<?xml version='1.0' encoding='UTF-8'?><gpx version="1.1" creator="JPX - https://github.com/jenetics/jpx" xmlns="http://www.topografix.com/GPX/1/1"><trk><trkseg><trkpt lat="45.7877064" lon="9.9796529"><ele>336.0</ele><time>2026-04-19T15:17:51.091Z</time></trkpt><trkpt lat="45.787728" lon="9.9797382"><ele>336.0</ele><time>2026-04-19T15:18:01.007Z</time></trkpt><trkpt lat="45.7877745" lon="9.9798115"><ele>336.0</ele><time>2026-04-19T15:18:12.977Z</time></trkpt><trkpt lat="45.7878656" lon="9.9798264"><ele>336.0</ele><time>2026-04-19T15:21:06.008Z</time></trkpt><trkpt lat="45.7878052" lon="9.979773"><ele>336.0</ele><time>2026-04-19T15:22:12.007Z</time></trkpt><trkpt lat="45.7877339" lon="9.9797338"><ele>336.0</ele><time>2026-04-19T15:22:18.007Z</time></trkpt><trkpt lat="45.7876644" lon="9.9797312"><ele>336.0</ele><time>2026-04-19T15:22:24.008Z</time></trkpt><trkpt lat="45.7876289" lon="9.9798094"><ele>336.4</ele><time>2026-04-19T15:22:36.007Z</time></trkpt><trkpt lat="45.7875944" lon="9.9797017"><ele>336.8</ele><time>2026-04-19T15:22:40.008Z</time></trkpt><trkpt lat="45.7875178" lon="9.9797786"><ele>337.2</ele><time>2026-04-19T15:22:46.007Z</time></trkpt><trkpt lat="45.787538" lon="9.979906"><ele>337.59999999999997</ele><time>2026-04-19T15:22:48.007Z</time></trkpt><trkpt lat="45.7875714" lon="9.9800707"><ele>338.0</ele><time>2026-04-19T15:22:50.007Z</time></trkpt><trkpt lat="45.7875866" lon="9.9801593"><ele>338.0</ele><time>2026-04-19T15:22:51.007Z</time></trkpt><trkpt lat="45.7876012" lon="9.9802489"><ele>338.0</ele><time>2026-04-19T15:22:52.005Z</time></trkpt><trkpt lat="45.7876188" lon="9.9803441"><ele>338.0</ele><time>2026-04-19T15:22:53.007Z</time></trkpt><trkpt lat="45.7876387" lon="9.9804364"><ele>338.0</ele><time>2026-04-19T15:22:54.006Z</time></trkpt><trkpt lat="45.7876575" lon="9.9805282"><ele>338.0</ele><time>2026-04-19T15:22:55.007Z</time></trkpt><trkpt lat="45.787679" lon="9.9806191"><ele>338.0</ele><time>2026-04-19T15:22:56.006Z</time></trkpt><trkpt lat="45.7877007" lon="9.9807071"><ele>338.0</ele><time>2026-04-19T15:22:57.006Z</time></trkpt><trkpt lat="45.7877235" lon="9.9807915"><ele>338.2857142857143</ele><time>2026-04-19T15:22:58.006Z</time></trkpt><trkpt lat="45.7877528" lon="9.9808795"><ele>338.57142857142856</ele><time>2026-04-19T15:22:59.007Z</time></trkpt><trkpt lat="45.7877889" lon="9.9809731"><ele>338.8571428571429</ele><time>2026-04-19T15:23:00.007Z</time></trkpt><trkpt lat="45.7878323" lon="9.9810579"><ele>339.1428571428571</ele><time>2026-04-19T15:23:01.005Z</time></trkpt><trkpt lat="45.7878827" lon="9.9811393"><ele>339.4285714285714</ele><time>2026-04-19T15:23:02.007Z</time></trkpt><trkpt lat="45.7879387" lon="9.9812105"><ele>339.7142857142857</ele><time>2026-04-19T15:23:03.007Z</time></trkpt><trkpt lat="45.7879928" lon="9.9812755"><ele>340.0</ele><time>2026-04-19T15:23:04.006Z</time></trkpt><trkpt lat="45.7880455" lon="9.9814057"><ele>340.0</ele><time>2026-04-19T15:23:06.006Z</time></trkpt><trkpt lat="45.7879912" lon="9.9815583"><ele>340.0</ele><time>2026-04-19T15:23:08.006Z</time></trkpt><trkpt lat="45.7879345" lon="9.9816059"><ele>340.0</ele><time>2026-04-19T15:23:09.006Z</time></trkpt><trkpt lat="45.7878693" lon="9.9816375"><ele>340.0</ele><time>2026-04-19T15:23:10.005Z</time></trkpt><trkpt lat="45.7878035" lon="9.9816677"><ele>340.0</ele><time>2026-04-19T15:23:11.005Z</time></trkpt><trkpt lat="45.7877365" lon="9.9817066"><ele>340.0</ele><time>2026-04-19T15:23:12.006Z</time></trkpt><trkpt lat="45.7876672" lon="9.9817405"><ele>339.8333333333333</ele><time>2026-04-19T15:23:13.006Z</time></trkpt><trkpt lat="45.7875984" lon="9.9817771"><ele>339.66666666666663</ele><time>2026-04-19T15:23:14.007Z</time></trkpt><trkpt lat="45.7875297" lon="9.98181"><ele>339.5</ele><time>2026-04-19T15:23:15.007Z</time></trkpt><trkpt lat="45.787459" lon="9.9818456"><ele>339.3333333333333</ele><time>2026-04-19T15:23:16.007Z</time></trkpt><trkpt lat="45.7873875" lon="9.981881"><ele>339.1666666666667</ele><time>2026-04-19T15:23:17.006Z</time></trkpt><trkpt lat="45.7873111" lon="9.9819189"><ele>339.0</ele><time>2026-04-19T15:23:18.007Z</time></trkpt><trkpt lat="45.7872283" lon="9.9819643"><ele>339.0</ele><time>2026-04-19T15:23:19.006Z</time></trkpt><trkpt lat="45.7871441" lon="9.9820109"><ele>339.0</ele><time>2026-04-19T15:23:20.005Z</time></trkpt><trkpt lat="45.7870588" lon="9.9820582"><ele>339.0</ele><time>2026-04-19T15:23:21.006Z</time></trkpt><trkpt lat="45.7869711" lon="9.9821088"><ele>339.0</ele><time>2026-04-19T15:23:22.007Z</time></trkpt><trkpt lat="45.7868823" lon="9.9821576"><ele>339.0</ele><time>2026-04-19T15:23:23.006Z</time></trkpt><trkpt lat="45.7867965" lon="9.9822019"><ele>339.2</ele><time>2026-04-19T15:23:24.007Z</time></trkpt><trkpt lat="45.7867092" lon="9.9822441"><ele>339.4</ele><time>2026-04-19T15:23:25.006Z</time></trkpt><trkpt lat="45.7866186" lon="9.9822925"><ele>339.6</ele><time>2026-04-19T15:23:26.007Z</time></trkpt><trkpt lat="45.7865233" lon="9.9823403"><ele>339.8</ele><time>2026-04-19T15:23:27.007Z</time></trkpt><trkpt lat="45.7864253" lon="9.9823949"><ele>340.0</ele><time>2026-04-19T15:23:28.007Z</time></trkpt><trkpt lat="45.7863326" lon="9.9824558"><ele>339.8</ele><time>2026-04-19T15:23:29.007Z</time></trkpt><trkpt lat="45.7862437" lon="9.9825157"><ele>339.6</ele><time>2026-04-19T15:23:30.006Z</time></trkpt><trkpt lat="45.7861599" lon="9.9825784"><ele>339.4</ele><time>2026-04-19T15:23:31.007Z</time></trkpt><trkpt lat="45.7860755" lon="9.9826399"><ele>339.2</ele><time>2026-04-19T15:23:32.007Z</time></trkpt><trkpt lat="45.7859837" lon="9.9826982"><ele>339.0</ele><time>2026-04-19T15:23:33.007Z</time></trkpt><trkpt lat="45.7858876" lon="9.9827585"><ele>339.79999999999995</ele><time>2026-04-19T15:23:34.007Z</time></trkpt><trkpt lat="45.785792" lon="9.98281"><ele>340.59999999999997</ele><time>2026-04-19T15:23:35.007Z</time></trkpt><trkpt lat="45.7856996" lon="9.9828588"><ele>341.4</ele><time>2026-04-19T15:23:36.007Z</time></trkpt><trkpt lat="45.7856089" lon="9.9828938"><ele>342.2</ele><time>2026-04-19T15:23:37.006Z</time></trkpt><trkpt lat="45.7855217" lon="9.9829139"><ele>343.0</ele><time>2026-04-19T15:23:38.007Z</time></trkpt><trkpt lat="45.7854348" lon="9.982927"><ele>343.0</ele><time>2026-04-19T15:23:39.007Z</time></trkpt><trkpt lat="45.7853511" lon="9.9829271"><ele>343.0</ele><time>2026-04-19T15:23:40.007Z</time></trkpt><trkpt lat="45.7852642" lon="9.9829182"><ele>343.0</ele><time>2026-04-19T15:23:41.006Z</time></trkpt><trkpt lat="45.785181" lon="9.9828898"><ele>343.0</ele><time>2026-04-19T15:23:42.007Z</time></trkpt><trkpt lat="45.7850945" lon="9.9828604"><ele>343.0</ele><time>2026-04-19T15:23:43.006Z</time></trkpt><trkpt lat="45.7850085" lon="9.9828373"><ele>343.0</ele><time>2026-04-19T15:23:44.005Z</time></trkpt><trkpt lat="45.7849182" lon="9.9828073"><ele>344.0</ele><time>2026-04-19T15:23:45.006Z</time></trkpt><trkpt lat="45.7848296" lon="9.9827956"><ele>345.0</ele><time>2026-04-19T15:23:46.006Z</time></trkpt><trkpt lat="45.7847389" lon="9.9827894"><ele>346.0</ele><time>2026-04-19T15:23:47.005Z</time></trkpt><trkpt lat="45.7846411" lon="9.9827906"><ele>347.0</ele><time>2026-04-19T15:23:48.007Z</time></trkpt><trkpt lat="45.7845461" lon="9.9827853"><ele>348.0</ele><time>2026-04-19T15:23:49.006Z</time></trkpt><trkpt lat="45.7844551" lon="9.9827836"><ele>348.0</ele><time>2026-04-19T15:23:50.006Z</time></trkpt><trkpt lat="45.7843671" lon="9.9827816"><ele>348.0</ele><time>2026-04-19T15:23:51.008Z</time></trkpt><trkpt lat="45.7842783" lon="9.9827829"><ele>348.0</ele><time>2026-04-19T15:23:52.007Z</time></trkpt><trkpt lat="45.784188" lon="9.9827844"><ele>348.0</ele><time>2026-04-19T15:23:53.006Z</time></trkpt><trkpt lat="45.7840975" lon="9.9827902"><ele>348.0</ele><time>2026-04-19T15:23:54.007Z</time></trkpt><trkpt lat="45.7840089" lon="9.9827998"><ele>348.0</ele><time>2026-04-19T15:23:55.007Z</time></trkpt><trkpt lat="45.7839181" lon="9.9828187"><ele>349.4</ele><time>2026-04-19T15:23:56.007Z</time></trkpt><trkpt lat="45.7838302" lon="9.9828362"><ele>350.79999999999995</ele><time>2026-04-19T15:23:57.006Z</time></trkpt><trkpt lat="45.7837392" lon="9.9828575"><ele>352.2</ele><time>2026-04-19T15:23:58.005Z</time></trkpt><trkpt lat="45.7836463" lon="9.9828773"><ele>353.6</ele><time>2026-04-19T15:23:59.006Z</time></trkpt><trkpt lat="45.7835592" lon="9.982893"><ele>355.0</ele><time>2026-04-19T15:24:00.008Z</time></trkpt><trkpt lat="45.7834703" lon="9.9829108"><ele>356.66666666666663</ele><time>2026-04-19T15:24:01.006Z</time></trkpt><trkpt lat="45.7833831" lon="9.9829306"><ele>358.3333333333333</ele><time>2026-04-19T15:24:02.007Z</time></trkpt><trkpt lat="45.7832976" lon="9.9829513"><ele>360.0</ele><time>2026-04-19T15:24:03.007Z</time></trkpt><trkpt lat="45.7832127" lon="9.9829656"><ele>361.6666666666667</ele><time>2026-04-19T15:24:04.007Z</time></trkpt><trkpt lat="45.7831307" lon="9.9829714"><ele>363.33333333333337</ele><time>2026-04-19T15:24:05.007Z</time></trkpt><trkpt lat="45.7830406" lon="9.9830012"><ele>365.0</ele><time>2026-04-19T15:24:07.008Z</time></trkpt><trkpt lat="45.7830131" lon="9.9831503"><ele>364.0</ele><time>2026-04-19T15:24:09.006Z</time></trkpt><trkpt lat="45.7830315" lon="9.9833539"><ele>363.0</ele><time>2026-04-19T15:24:11.006Z</time></trkpt><trkpt lat="45.7830437" lon="9.9834704"><ele>362.0</ele><time>2026-04-19T15:24:12.007Z</time></trkpt><trkpt lat="45.7830432" lon="9.9835633"><ele>361.0</ele><time>2026-04-19T15:24:13.007Z</time></trkpt><trkpt lat="45.7830527" lon="9.9836903"><ele>360.0</ele><time>2026-04-19T15:24:14.007Z</time></trkpt><trkpt lat="45.7830881" lon="9.9838131"><ele>360.0</ele><time>2026-04-19T15:24:15.007Z</time></trkpt><trkpt lat="45.7831161" lon="9.9839393"><ele>360.0</ele><time>2026-04-19T15:24:16.006Z</time></trkpt><trkpt lat="45.783148" lon="9.9840581"><ele>360.0</ele><time>2026-04-19T15:24:17.006Z</time></trkpt><trkpt lat="45.7831782" lon="9.9841797"><ele>360.0</ele><time>2026-04-19T15:24:18.008Z</time></trkpt><trkpt lat="45.783229" lon="9.9843155"><ele>360.0</ele><time>2026-04-19T15:24:19.008Z</time></trkpt><trkpt lat="45.7832825" lon="9.984436"><ele>359.2</ele><time>2026-04-19T15:24:20.008Z</time></trkpt><trkpt lat="45.7833342" lon="9.9845648"><ele>358.4</ele><time>2026-04-19T15:24:21.007Z</time></trkpt><trkpt lat="45.7833817" lon="9.9846904"><ele>357.6</ele><time>2026-04-19T15:24:22.006Z</time></trkpt><trkpt lat="45.7834297" lon="9.984818"><ele>356.8</ele><time>2026-04-19T15:24:23.007Z</time></trkpt><trkpt lat="45.7834772" lon="9.9849406"><ele>356.0</ele><time>2026-04-19T15:24:24.007Z</time></trkpt><trkpt lat="45.7835166" lon="9.9850672"><ele>354.20000000000005</ele><time>2026-04-19T15:24:25.007Z</time></trkpt><trkpt lat="45.7835531" lon="9.9851972"><ele>352.40000000000003</ele><time>2026-04-19T15:24:26.007Z</time></trkpt><trkpt lat="45.7835749" lon="9.9853449"><ele>350.6</ele><time>2026-04-19T15:24:27.006Z</time></trkpt><trkpt lat="45.7835852" lon="9.985495"><ele>348.8</ele><time>2026-04-19T15:24:28.007Z</time></trkpt><trkpt lat="45.7835948" lon="9.9856446"><ele>347.0</ele><time>2026-04-19T15:24:29.008Z</time></trkpt><trkpt lat="45.7836039" lon="9.9857967"><ele>346.20000000000005</ele><time>2026-04-19T15:24:30.006Z</time></trkpt><trkpt lat="45.7836203" lon="9.9859449"><ele>345.4</ele><time>2026-04-19T15:24:31.006Z</time></trkpt><trkpt lat="45.7836457" lon="9.9860969"><ele>344.6</ele><time>2026-04-19T15:24:32.006Z</time></trkpt><trkpt lat="45.7836827" lon="9.9862462"><ele>343.79999999999995</ele><time>2026-04-19T15:24:33.007Z</time></trkpt><trkpt lat="45.7837233" lon="9.9863865"><ele>343.0</ele><time>2026-04-19T15:24:34.006Z</time></trkpt><trkpt lat="45.7837688" lon="9.9865299"><ele>343.0</ele><time>2026-04-19T15:24:35.007Z</time></trkpt><trkpt lat="45.7838091" lon="9.9866723"><ele>343.0</ele><time>2026-04-19T15:24:36.007Z</time></trkpt><trkpt lat="45.7838541" lon="9.9868046"><ele>343.0</ele><time>2026-04-19T15:24:37.006Z</time></trkpt><trkpt lat="45.7838922" lon="9.986953"><ele>343.0</ele><time>2026-04-19T15:24:38.006Z</time></trkpt><trkpt lat="45.7839259" lon="9.9870966"><ele>343.0</ele><time>2026-04-19T15:24:39.007Z</time></trkpt><trkpt lat="45.7839617" lon="9.9872487"><ele>343.0</ele><time>2026-04-19T15:24:40.007Z</time></trkpt><trkpt lat="45.784005" lon="9.9873906"><ele>343.0</ele><time>2026-04-19T15:24:41.007Z</time></trkpt><trkpt lat="45.7840574" lon="9.9875211"><ele>343.0</ele><time>2026-04-19T15:24:42.008Z</time></trkpt><trkpt lat="45.7841176" lon="9.9876513"><ele>343.0</ele><time>2026-04-19T15:24:43.007Z</time></trkpt><trkpt lat="45.7841835" lon="9.9877701"><ele>343.0</ele><time>2026-04-19T15:24:44.007Z</time></trkpt><trkpt lat="45.7842521" lon="9.987887"><ele>343.0</ele><time>2026-04-19T15:24:45.006Z</time></trkpt><trkpt lat="45.7843187" lon="9.9879996"><ele>343.0</ele><time>2026-04-19T15:24:46.006Z</time></trkpt><trkpt lat="45.7843717" lon="9.9881228"><ele>343.0</ele><time>2026-04-19T15:24:47.007Z</time></trkpt><trkpt lat="45.7844088" lon="9.9882564"><ele>343.0</ele><time>2026-04-19T15:24:48.005Z</time></trkpt><trkpt lat="45.7844392" lon="9.9884023"><ele>343.0</ele><time>2026-04-19T15:24:49.007Z</time></trkpt><trkpt lat="45.784456" lon="9.988549"><ele>342.4</ele><time>2026-04-19T15:24:50.007Z</time></trkpt><trkpt lat="45.7844664" lon="9.9886949"><ele>341.79999999999995</ele><time>2026-04-19T15:24:51.006Z</time></trkpt><trkpt lat="45.784483" lon="9.9888393"><ele>341.2</ele><time>2026-04-19T15:24:52.006Z</time></trkpt><trkpt lat="45.7844991" lon="9.988976"><ele>340.6</ele><time>2026-04-19T15:24:53.006Z</time></trkpt><trkpt lat="45.7845204" lon="9.9891163"><ele>340.0</ele><time>2026-04-19T15:24:54.007Z</time></trkpt><trkpt lat="45.784537" lon="9.9892545"><ele>340.0</ele><time>2026-04-19T15:24:55.007Z</time></trkpt><trkpt lat="45.7845505" lon="9.9893876"><ele>340.0</ele><time>2026-04-19T15:24:56.006Z</time></trkpt><trkpt lat="45.7845661" lon="9.9895276"><ele>340.0</ele><time>2026-04-19T15:24:57.006Z</time></trkpt><trkpt lat="45.7845862" lon="9.9896668"><ele>340.0</ele><time>2026-04-19T15:24:58.006Z</time></trkpt><trkpt lat="45.7846178" lon="9.9898024"><ele>340.0</ele><time>2026-04-19T15:24:59.006Z</time></trkpt><trkpt lat="45.7846528" lon="9.9899312"><ele>340.8</ele><time>2026-04-19T15:25:00.007Z</time></trkpt><trkpt lat="45.7846926" lon="9.9900627"><ele>341.6</ele><time>2026-04-19T15:25:01.006Z</time></trkpt><trkpt lat="45.7847365" lon="9.9901862"><ele>342.4</ele><time>2026-04-19T15:25:02.007Z</time></trkpt><trkpt lat="45.7847749" lon="9.990314"><ele>343.2</ele><time>2026-04-19T15:25:03.007Z</time></trkpt><trkpt lat="45.7848167" lon="9.9904445"><ele>344.0</ele><time>2026-04-19T15:25:04.006Z</time></trkpt><trkpt lat="45.7848571" lon="9.9905769"><ele>344.0</ele><time>2026-04-19T15:25:05.006Z</time></trkpt><trkpt lat="45.7848969" lon="9.9907023"><ele>344.0</ele><time>2026-04-19T15:25:06.007Z</time></trkpt><trkpt lat="45.7849576" lon="9.99083"><ele>344.0</ele><time>2026-04-19T15:25:07.007Z</time></trkpt><trkpt lat="45.7850211" lon="9.9909557"><ele>344.0</ele><time>2026-04-19T15:25:08.007Z</time></trkpt><trkpt lat="45.7850803" lon="9.991079"><ele>344.0</ele><time>2026-04-19T15:25:09.007Z</time></trkpt><trkpt lat="45.7851359" lon="9.9911966"><ele>344.0</ele><time>2026-04-19T15:25:10.006Z</time></trkpt><trkpt lat="45.7851895" lon="9.9913097"><ele>344.0</ele><time>2026-04-19T15:25:11.006Z</time></trkpt><trkpt lat="45.7852437" lon="9.9914272"><ele>344.0</ele><time>2026-04-19T15:25:12.007Z</time></trkpt><trkpt lat="45.785293" lon="9.9915398"><ele>344.0</ele><time>2026-04-19T15:25:13.006Z</time></trkpt><trkpt lat="45.7853392" lon="9.9916577"><ele>344.0</ele><time>2026-04-19T15:25:14.007Z</time></trkpt><trkpt lat="45.7853884" lon="9.9917819"><ele>344.0</ele><time>2026-04-19T15:25:15.008Z</time></trkpt><trkpt lat="45.7854397" lon="9.9919046"><ele>344.0</ele><time>2026-04-19T15:25:16.007Z</time></trkpt><trkpt lat="45.7854919" lon="9.9920304"><ele>344.0</ele><time>2026-04-19T15:25:17.006Z</time></trkpt><trkpt lat="45.7855384" lon="9.9921566"><ele>344.0</ele><time>2026-04-19T15:25:18.007Z</time></trkpt><trkpt lat="45.7855788" lon="9.9922905"><ele>344.0</ele><time>2026-04-19T15:25:19.007Z</time></trkpt><trkpt lat="45.7856158" lon="9.9924292"><ele>344.6</ele><time>2026-04-19T15:25:20.005Z</time></trkpt><trkpt lat="45.7856508" lon="9.9925602"><ele>345.2</ele><time>2026-04-19T15:25:21.006Z</time></trkpt><trkpt lat="45.7856971" lon="9.9926889"><ele>345.8</ele><time>2026-04-19T15:25:22.007Z</time></trkpt><trkpt lat="45.7857558" lon="9.992803"><ele>346.40000000000003</ele><time>2026-04-19T15:25:23.006Z</time></trkpt><trkpt lat="45.7858174" lon="9.9929071"><ele>347.0</ele><time>2026-04-19T15:25:24.007Z</time></trkpt><trkpt lat="45.7858815" lon="9.9930159"><ele>347.0</ele><time>2026-04-19T15:25:25.006Z</time></trkpt><trkpt lat="45.7859501" lon="9.9931186"><ele>347.0</ele><time>2026-04-19T15:25:26.006Z</time></trkpt><trkpt lat="45.7860197" lon="9.9932326"><ele>347.0</ele><time>2026-04-19T15:25:27.007Z</time></trkpt><trkpt lat="45.7860817" lon="9.9933447"><ele>347.0</ele><time>2026-04-19T15:25:28.008Z</time></trkpt><trkpt lat="45.7861402" lon="9.9934661"><ele>347.0</ele><time>2026-04-19T15:25:29.007Z</time></trkpt><trkpt lat="45.7861774" lon="9.9935953"><ele>346.8</ele><time>2026-04-19T15:25:30.007Z</time></trkpt><trkpt lat="45.7862062" lon="9.9937329"><ele>346.6</ele><time>2026-04-19T15:25:31.007Z</time></trkpt><trkpt lat="45.7862399" lon="9.9938781"><ele>346.40000000000003</ele><time>2026-04-19T15:25:32.007Z</time></trkpt><trkpt lat="45.7862717" lon="9.9940097"><ele>346.20000000000005</ele><time>2026-04-19T15:25:33.007Z</time></trkpt><trkpt lat="45.7863072" lon="9.9941462"><ele>346.0</ele><time>2026-04-19T15:25:34.006Z</time></trkpt><trkpt lat="45.7863467" lon="9.9942877"><ele>346.0</ele><time>2026-04-19T15:25:35.007Z</time></trkpt><trkpt lat="45.7863784" lon="9.9944353"><ele>346.0</ele><time>2026-04-19T15:25:36.006Z</time></trkpt><trkpt lat="45.7864084" lon="9.9945876"><ele>346.0</ele><time>2026-04-19T15:25:37.006Z</time></trkpt><trkpt lat="45.7864359" lon="9.994746"><ele>346.0</ele><time>2026-04-19T15:25:38.007Z</time></trkpt><trkpt lat="45.7864652" lon="9.9948954"><ele>346.0</ele><time>2026-04-19T15:25:39.007Z</time></trkpt><trkpt lat="45.7864887" lon="9.9950618"><ele>346.20000000000005</ele><time>2026-04-19T15:25:40.006Z</time></trkpt><trkpt lat="45.7865036" lon="9.995219"><ele>346.40000000000003</ele><time>2026-04-19T15:25:41.007Z</time></trkpt><trkpt lat="45.7864991" lon="9.995372"><ele>346.6</ele><time>2026-04-19T15:25:42.007Z</time></trkpt><trkpt lat="45.7864943" lon="9.995531"><ele>346.8</ele><time>2026-04-19T15:25:43.007Z</time></trkpt><trkpt lat="45.786486" lon="9.9956833"><ele>347.0</ele><time>2026-04-19T15:25:44.007Z</time></trkpt><trkpt lat="45.78648" lon="9.9958284"><ele>347.0</ele><time>2026-04-19T15:25:45.007Z</time></trkpt><trkpt lat="45.7864792" lon="9.9959702"><ele>347.0</ele><time>2026-04-19T15:25:46.006Z</time></trkpt><trkpt lat="45.7864826" lon="9.996124"><ele>347.0</ele><time>2026-04-19T15:25:47.007Z</time></trkpt><trkpt lat="45.786486" lon="9.9962745"><ele>347.0</ele><time>2026-04-19T15:25:48.008Z</time></trkpt><trkpt lat="45.7864896" lon="9.9964216"><ele>347.0</ele><time>2026-04-19T15:25:49.008Z</time></trkpt><trkpt lat="45.7864945" lon="9.9965695"><ele>346.8</ele><time>2026-04-19T15:25:50.005Z</time></trkpt><trkpt lat="45.7864966" lon="9.9967186"><ele>346.6</ele><time>2026-04-19T15:25:51.007Z</time></trkpt><trkpt lat="45.7864977" lon="9.9968691"><ele>346.40000000000003</ele><time>2026-04-19T15:25:52.006Z</time></trkpt><trkpt lat="45.7864916" lon="9.9970174"><ele>346.20000000000005</ele><time>2026-04-19T15:25:53.006Z</time></trkpt><trkpt lat="45.7864858" lon="9.9971673"><ele>346.0</ele><time>2026-04-19T15:25:54.006Z</time></trkpt><trkpt lat="45.7864844" lon="9.9973115"><ele>346.0</ele><time>2026-04-19T15:25:55.007Z</time></trkpt><trkpt lat="45.7864853" lon="9.9974626"><ele>346.0</ele><time>2026-04-19T15:25:56.008Z</time></trkpt><trkpt lat="45.786491" lon="9.9976013"><ele>346.0</ele><time>2026-04-19T15:25:57.007Z</time></trkpt><trkpt lat="45.7865103" lon="9.9977517"><ele>346.0</ele><time>2026-04-19T15:25:58.007Z</time></trkpt><trkpt lat="45.7865308" lon="9.9978946"><ele>346.0</ele><time>2026-04-19T15:25:59.007Z</time></trkpt><trkpt lat="45.7865463" lon="9.9980365"><ele>345.8</ele><time>2026-04-19T15:26:00.006Z</time></trkpt><trkpt lat="45.7865644" lon="9.998175"><ele>345.6</ele><time>2026-04-19T15:26:01.007Z</time></trkpt><trkpt lat="45.7865892" lon="9.9983174"><ele>345.4</ele><time>2026-04-19T15:26:02.007Z</time></trkpt><trkpt lat="45.7866115" lon="9.9984576"><ele>345.2</ele><time>2026-04-19T15:26:03.007Z</time></trkpt><trkpt lat="45.7866361" lon="9.998598"><ele>345.0</ele><time>2026-04-19T15:26:04.007Z</time></trkpt><trkpt lat="45.7866603" lon="9.9987313"><ele>345.4</ele><time>2026-04-19T15:26:05.007Z</time></trkpt><trkpt lat="45.7866865" lon="9.9988635"><ele>345.8</ele><time>2026-04-19T15:26:06.007Z</time></trkpt><trkpt lat="45.7867056" lon="9.999"><ele>346.20000000000005</ele><time>2026-04-19T15:26:07.006Z</time></trkpt><trkpt lat="45.7867262" lon="9.9991391"><ele>346.6</ele><time>2026-04-19T15:26:08.008Z</time></trkpt><trkpt lat="45.7867433" lon="9.9992778"><ele>347.0</ele><time>2026-04-19T15:26:09.006Z</time></trkpt><trkpt lat="45.7867577" lon="9.9994135"><ele>347.0</ele><time>2026-04-19T15:26:10.008Z</time></trkpt><trkpt lat="45.7867765" lon="9.9995413"><ele>347.0</ele><time>2026-04-19T15:26:11.006Z</time></trkpt><trkpt lat="45.7867938" lon="9.9996615"><ele>347.0</ele><time>2026-04-19T15:26:12.007Z</time></trkpt><trkpt lat="45.7868104" lon="9.9997573"><ele>347.0</ele><time>2026-04-19T15:26:13.008Z</time></trkpt><trkpt lat="45.7868279" lon="9.9998574"><ele>347.0</ele><time>2026-04-19T15:26:14.007Z</time></trkpt><trkpt lat="45.7868451" lon="9.9999673"><ele>347.0</ele><time>2026-04-19T15:26:15.005Z</time></trkpt><trkpt lat="45.7868795" lon="10.0000515"><ele>347.0</ele><time>2026-04-19T15:26:16.007Z</time></trkpt><trkpt lat="45.7869638" lon="10.0001536"><ele>347.0</ele><time>2026-04-19T15:26:18.006Z</time></trkpt><trkpt lat="45.7870422" lon="10.0001981"><ele>347.0</ele><time>2026-04-19T15:26:20.007Z</time></trkpt><trkpt lat="45.7870957" lon="10.0002523"><ele>347.0</ele><time>2026-04-19T15:26:22.008Z</time></trkpt><trkpt lat="45.7870777" lon="10.0003834"><ele>347.0</ele><time>2026-04-19T15:26:24.007Z</time></trkpt><trkpt lat="45.7870508" lon="10.0004682"><ele>347.0</ele><time>2026-04-19T15:26:25.008Z</time></trkpt><trkpt lat="45.7870194" lon="10.0005677"><ele>347.0</ele><time>2026-04-19T15:26:26.008Z</time></trkpt><trkpt lat="45.7869833" lon="10.0006684"><ele>347.0</ele><time>2026-04-19T15:26:27.008Z</time></trkpt><trkpt lat="45.786956" lon="10.000781"><ele>347.0</ele><time>2026-04-19T15:26:28.008Z</time></trkpt><trkpt lat="45.7869313" lon="10.0009033"><ele>347.0</ele><time>2026-04-19T15:26:29.007Z</time></trkpt><trkpt lat="45.7869077" lon="10.0010329"><ele>347.0</ele><time>2026-04-19T15:26:30.007Z</time></trkpt><trkpt lat="45.786891" lon="10.0011692"><ele>347.0</ele><time>2026-04-19T15:26:31.008Z</time></trkpt><trkpt lat="45.7868748" lon="10.0012999"><ele>347.20000000000005</ele><time>2026-04-19T15:26:32.006Z</time></trkpt><trkpt lat="45.7868598" lon="10.0014312"><ele>347.4</ele><time>2026-04-19T15:26:33.007Z</time></trkpt><trkpt lat="45.7868482" lon="10.0015622"><ele>347.6</ele><time>2026-04-19T15:26:34.006Z</time></trkpt><trkpt lat="45.7868312" lon="10.0016995"><ele>347.79999999999995</ele><time>2026-04-19T15:26:35.006Z</time></trkpt><trkpt lat="45.7868019" lon="10.0018244"><ele>348.0</ele><time>2026-04-19T15:26:36.007Z</time></trkpt><trkpt lat="45.7867819" lon="10.0019454"><ele>347.59999999999997</ele><time>2026-04-19T15:26:37.005Z</time></trkpt><trkpt lat="45.7867666" lon="10.0020782"><ele>347.2</ele><time>2026-04-19T15:26:38.006Z</time></trkpt><trkpt lat="45.7867574" lon="10.0022087"><ele>346.8</ele><time>2026-04-19T15:26:39.007Z</time></trkpt><trkpt lat="45.7867483" lon="10.0023389"><ele>346.4</ele><time>2026-04-19T15:26:40.007Z</time></trkpt><trkpt lat="45.7867363" lon="10.0024707"><ele>346.0</ele><time>2026-04-19T15:26:41.006Z</time></trkpt><trkpt lat="45.7867275" lon="10.0026035"><ele>345.8</ele><time>2026-04-19T15:26:42.007Z</time></trkpt><trkpt lat="45.7867255" lon="10.0027316"><ele>345.6</ele><time>2026-04-19T15:26:43.007Z</time></trkpt><trkpt lat="45.7867278" lon="10.0028618"><ele>345.4</ele><time>2026-04-19T15:26:44.007Z</time></trkpt><trkpt lat="45.7867374" lon="10.0029921"><ele>345.2</ele><time>2026-04-19T15:26:45.007Z</time></trkpt><trkpt lat="45.7867544" lon="10.0031259"><ele>345.0</ele><time>2026-04-19T15:26:46.006Z</time></trkpt><trkpt lat="45.7867687" lon="10.0032544"><ele>345.1666666666667</ele><time>2026-04-19T15:26:47.006Z</time></trkpt><trkpt lat="45.7867777" lon="10.0033607"><ele>345.3333333333333</ele><time>2026-04-19T15:26:48.007Z</time></trkpt><trkpt lat="45.7867928" lon="10.0035363"><ele>345.5</ele><time>2026-04-19T15:26:50.006Z</time></trkpt><trkpt lat="45.786798" lon="10.0036416"><ele>345.66666666666663</ele><time>2026-04-19T15:26:51.006Z</time></trkpt><trkpt lat="45.7868024" lon="10.0037453"><ele>345.8333333333333</ele><time>2026-04-19T15:26:52.007Z</time></trkpt><trkpt lat="45.786812" lon="10.0038622"><ele>346.0</ele><time>2026-04-19T15:26:53.007Z</time></trkpt><trkpt lat="45.7868089" lon="10.0039844"><ele>346.0</ele><time>2026-04-19T15:26:54.007Z</time></trkpt><trkpt lat="45.7868088" lon="10.004109"><ele>346.0</ele><time>2026-04-19T15:26:55.007Z</time></trkpt><trkpt lat="45.7868081" lon="10.0042312"><ele>346.0</ele><time>2026-04-19T15:26:56.007Z</time></trkpt><trkpt lat="45.7868004" lon="10.0043585"><ele>346.0</ele><time>2026-04-19T15:26:57.006Z</time></trkpt><trkpt lat="45.7867935" lon="10.0044844"><ele>346.0</ele><time>2026-04-19T15:26:58.007Z</time></trkpt><trkpt lat="45.7867863" lon="10.0046122"><ele>346.0</ele><time>2026-04-19T15:26:59.006Z</time></trkpt><trkpt lat="45.7867768" lon="10.0047392"><ele>346.8</ele><time>2026-04-19T15:27:00.006Z</time></trkpt><trkpt lat="45.7867688" lon="10.0048684"><ele>347.6</ele><time>2026-04-19T15:27:01.006Z</time></trkpt><trkpt lat="45.7867646" lon="10.0049986"><ele>348.4</ele><time>2026-04-19T15:27:02.007Z</time></trkpt><trkpt lat="45.786755" lon="10.0051357"><ele>349.2</ele><time>2026-04-19T15:27:03.007Z</time></trkpt><trkpt lat="45.7867462" lon="10.0052642"><ele>350.0</ele><time>2026-04-19T15:27:04.007Z</time></trkpt><trkpt lat="45.7867455" lon="10.0053912"><ele>350.8</ele><time>2026-04-19T15:27:05.006Z</time></trkpt><trkpt lat="45.786748" lon="10.0055162"><ele>351.6</ele><time>2026-04-19T15:27:06.007Z</time></trkpt><trkpt lat="45.7867581" lon="10.0056486"><ele>352.4</ele><time>2026-04-19T15:27:07.007Z</time></trkpt><trkpt lat="45.7867652" lon="10.0057834"><ele>353.2</ele><time>2026-04-19T15:27:08.007Z</time></trkpt><trkpt lat="45.7867734" lon="10.0059042"><ele>354.0</ele><time>2026-04-19T15:27:09.008Z</time></trkpt><trkpt lat="45.7867867" lon="10.0060383"><ele>355.0</ele><time>2026-04-19T15:27:10.007Z</time></trkpt><trkpt lat="45.7868032" lon="10.0061685"><ele>356.0</ele><time>2026-04-19T15:27:11.008Z</time></trkpt><trkpt lat="45.786817" lon="10.0062957"><ele>357.0</ele><time>2026-04-19T15:27:12.008Z</time></trkpt><trkpt lat="45.7868366" lon="10.0064037"><ele>358.0</ele><time>2026-04-19T15:27:13.007Z</time></trkpt><trkpt lat="45.7868552" lon="10.0065033"><ele>359.0</ele><time>2026-04-19T15:27:14.007Z</time></trkpt><trkpt lat="45.7868655" lon="10.0065963"><ele>360.0</ele><time>2026-04-19T15:27:15.007Z</time></trkpt><trkpt lat="45.7868936" lon="10.0067305"><ele>357.6666666666667</ele><time>2026-04-19T15:27:17.007Z</time></trkpt><trkpt lat="45.7869173" lon="10.0068451"><ele>355.3333333333333</ele><time>2026-04-19T15:27:19.007Z</time></trkpt><trkpt lat="45.7869011" lon="10.0069523"><ele>353.0</ele><time>2026-04-19T15:27:21.006Z</time></trkpt><trkpt lat="45.7868753" lon="10.0070601"><ele>350.66666666666663</ele><time>2026-04-19T15:27:23.006Z</time></trkpt><trkpt lat="45.7868506" lon="10.0071899"><ele>348.3333333333333</ele><time>2026-04-19T15:27:25.006Z</time></trkpt><trkpt lat="45.7868476" lon="10.0073241"><ele>346.0</ele><time>2026-04-19T15:27:27.007Z</time></trkpt><trkpt lat="45.7868492" lon="10.0074421"><ele>346.5</ele><time>2026-04-19T15:27:29.007Z</time></trkpt><trkpt lat="45.7868406" lon="10.0075651"><ele>347.0</ele><time>2026-04-19T15:27:31.007Z</time></trkpt><trkpt lat="45.7868219" lon="10.0076934"><ele>347.5</ele><time>2026-04-19T15:27:33.007Z</time></trkpt><trkpt lat="45.786817" lon="10.0078098"><ele>348.0</ele><time>2026-04-19T15:27:35.006Z</time></trkpt><trkpt lat="45.7868328" lon="10.0079446"><ele>348.5</ele><time>2026-04-19T15:27:37.007Z</time></trkpt><trkpt lat="45.7868527" lon="10.0080386"><ele>349.0</ele><time>2026-04-19T15:27:39.007Z</time></trkpt><trkpt lat="45.7868403" lon="10.008168"><ele>351.1428571428571</ele><time>2026-04-19T15:27:42.007Z</time></trkpt><trkpt lat="45.7868089" lon="10.0082592"><ele>353.2857142857143</ele><time>2026-04-19T15:27:44.007Z</time></trkpt><trkpt lat="45.7867711" lon="10.0083447"><ele>355.42857142857144</ele><time>2026-04-19T15:27:46.007Z</time></trkpt><trkpt lat="45.7867226" lon="10.0084599"><ele>357.57142857142856</ele><time>2026-04-19T15:27:49.006Z</time></trkpt><trkpt lat="45.7866818" lon="10.0085369"><ele>359.7142857142857</ele><time>2026-04-19T15:27:51.007Z</time></trkpt><trkpt lat="45.7866394" lon="10.0086069"><ele>361.85714285714283</ele><time>2026-04-19T15:27:53.005Z</time></trkpt><trkpt lat="45.7866055" lon="10.0086991"><ele>364.0</ele><time>2026-04-19T15:27:57.006Z</time></trkpt><trkpt lat="45.7866192" lon="10.008815"><ele>364.0</ele><time>2026-04-19T15:28:05.006Z</time></trkpt><trkpt lat="45.7866198" lon="10.0089458"><ele>364.0</ele><time>2026-04-19T15:28:09.006Z</time></trkpt><trkpt lat="45.7866308" lon="10.0090597"><ele>364.0</ele><time>2026-04-19T15:28:12.005Z</time></trkpt><trkpt lat="45.786624" lon="10.0091514"><ele>364.0</ele><time>2026-04-19T15:29:12.006Z</time></trkpt><trkpt lat="45.7866041" lon="10.0092375"><ele>364.0</ele><time>2026-04-19T15:30:18.007Z</time></trkpt><trkpt lat="45.7865781" lon="10.0093316"><ele>364.0</ele><time>2026-04-19T15:30:24.007Z</time></trkpt><trkpt lat="45.7865507" lon="10.0094241"><ele>364.0</ele><time>2026-04-19T15:30:27.006Z</time></trkpt><trkpt lat="45.7865219" lon="10.009512"><ele>363.85714285714283</ele><time>2026-04-19T15:31:28.006Z</time></trkpt><trkpt lat="45.7865619" lon="10.0095896"><ele>363.7142857142857</ele><time>2026-04-19T15:34:24.006Z</time></trkpt><trkpt lat="45.7866005" lon="10.0096628"><ele>363.57142857142856</ele><time>2026-04-19T15:35:39.007Z</time></trkpt><trkpt lat="45.7865976" lon="10.0097823"><ele>363.42857142857144</ele><time>2026-04-19T15:37:16.006Z</time></trkpt><trkpt lat="45.7866306" lon="10.0098963"><ele>363.2857142857143</ele><time>2026-04-19T15:38:20.006Z</time></trkpt><trkpt lat="45.7866344" lon="10.0099926"><ele>363.1428571428571</ele><time>2026-04-19T15:38:22.006Z</time></trkpt><trkpt lat="45.7866072" lon="10.0100874"><ele>363.0</ele><time>2026-04-19T15:38:27.007Z</time></trkpt><trkpt lat="45.7865923" lon="10.010183"><ele>365.1666666666667</ele><time>2026-04-19T15:38:32.006Z</time></trkpt><trkpt lat="45.7865679" lon="10.0102799"><ele>367.3333333333333</ele><time>2026-04-19T15:38:36.007Z</time></trkpt><trkpt lat="45.7865509" lon="10.0103693"><ele>369.5</ele><time>2026-04-19T15:38:42.007Z</time></trkpt><trkpt lat="45.7865348" lon="10.0104965"><ele>371.66666666666663</ele><time>2026-04-19T15:39:15.006Z</time></trkpt><trkpt lat="45.7864724" lon="10.0105268"><ele>373.8333333333333</ele><time>2026-04-19T15:40:01.005Z</time></trkpt><trkpt lat="45.7863929" lon="10.0105269"><ele>376.0</ele><time>2026-04-19T15:40:03.007Z</time></trkpt><trkpt lat="45.7863114" lon="10.0105301"><ele>376.0</ele><time>2026-04-19T15:40:05.007Z</time></trkpt><trkpt lat="45.7862171" lon="10.0105698"><ele>376.0</ele><time>2026-04-19T15:40:07.007Z</time></trkpt><trkpt lat="45.7861219" lon="10.0106489"><ele>376.0</ele><time>2026-04-19T15:40:09.007Z</time></trkpt><trkpt lat="45.7860328" lon="10.0107714"><ele>376.0</ele><time>2026-04-19T15:40:11.006Z</time></trkpt><trkpt lat="45.7859628" lon="10.0109094"><ele>378.4</ele><time>2026-04-19T15:40:13.007Z</time></trkpt><trkpt lat="45.7858876" lon="10.0110388"><ele>380.8</ele><time>2026-04-19T15:40:15.007Z</time></trkpt><trkpt lat="45.7858213" lon="10.0111603"><ele>383.2</ele><time>2026-04-19T15:40:17.007Z</time></trkpt><trkpt lat="45.7858671" lon="10.0112314"><ele>385.59999999999997</ele><time>2026-04-19T15:40:20.007Z</time></trkpt><trkpt lat="45.785948" lon="10.0111593"><ele>388.0</ele><time>2026-04-19T15:40:22.007Z</time></trkpt><trkpt lat="45.7860152" lon="10.0110735"><ele>388.00000000000006</ele><time>2026-04-19T15:40:24.006Z</time></trkpt><trkpt lat="45.7860814" lon="10.0110414"><ele>388.0</ele><time>2026-04-19T15:40:27.006Z</time></trkpt><trkpt lat="45.7860923" lon="10.0111324"><ele>388.0</ele><time>2026-04-19T15:40:29.007Z</time></trkpt><trkpt lat="45.7860956" lon="10.011277"><ele>388.0</ele><time>2026-04-19T15:40:31.007Z</time></trkpt><trkpt lat="45.7860872" lon="10.0114273"><ele>388.00000000000006</ele><time>2026-04-19T15:40:33.007Z</time></trkpt><trkpt lat="45.7861189" lon="10.011565"><ele>388.0</ele><time>2026-04-19T15:40:35.006Z</time></trkpt><trkpt lat="45.7861988" lon="10.0116607"><ele>391.2</ele><time>2026-04-19T15:40:37.006Z</time></trkpt><trkpt lat="45.7862981" lon="10.0117331"><ele>394.4</ele><time>2026-04-19T15:40:39.006Z</time></trkpt><trkpt lat="45.7863864" lon="10.0118133"><ele>397.59999999999997</ele><time>2026-04-19T15:40:41.007Z</time></trkpt><trkpt lat="45.7864272" lon="10.011915"><ele>400.79999999999995</ele><time>2026-04-19T15:40:43.005Z</time></trkpt><trkpt lat="45.786404" lon="10.012022"><ele>404.0</ele><time>2026-04-19T15:40:45.007Z</time></trkpt><trkpt lat="45.78636" lon="10.0121194"><ele>404.0</ele><time>2026-04-19T15:40:47.006Z</time></trkpt><trkpt lat="45.786305" lon="10.0121741"><ele>404.0</ele><time>2026-04-19T15:40:52.007Z</time></trkpt><trkpt lat="45.7863792" lon="10.0121776"><ele>404.0</ele><time>2026-04-19T15:48:48.007Z</time></trkpt><trkpt lat="45.7864429" lon="10.0121782"><ele>404.0</ele><time>2026-04-19T15:48:53.006Z</time></trkpt><trkpt lat="45.7865198" lon="10.0121875"><ele>404.0</ele><time>2026-04-19T15:48:57.006Z</time></trkpt><trkpt lat="45.7865993" lon="10.0121863"><ele>404.0</ele><time>2026-04-19T15:49:03.006Z</time></trkpt><trkpt lat="45.786672" lon="10.0122428"><ele>404.0</ele><time>2026-04-19T15:49:08.005Z</time></trkpt><trkpt lat="45.786737" lon="10.0122932"><ele>403.99999999999994</ele><time>2026-04-19T15:50:01.006Z</time></trkpt><trkpt lat="45.7867412" lon="10.0123852"><ele>404.0</ele><time>2026-04-19T15:55:18.004Z</time></trkpt><trkpt lat="45.7867038" lon="10.0124835"><ele>404.0</ele><time>2026-04-19T15:55:22.005Z</time></trkpt><trkpt lat="45.7866532" lon="10.0126075"><ele>404.0</ele><time>2026-04-19T15:55:25.005Z</time></trkpt><trkpt lat="45.7866253" lon="10.012717"><ele>403.99999999999994</ele><time>2026-04-19T15:55:27.006Z</time></trkpt><trkpt lat="45.786629" lon="10.0128095"><ele>404.0</ele><time>2026-04-19T15:55:29.006Z</time></trkpt><trkpt lat="45.7866666" lon="10.0128878"><ele>407.1428571428571</ele><time>2026-04-19T15:55:31.004Z</time></trkpt><trkpt lat="45.7867121" lon="10.0129601"><ele>410.2857142857143</ele><time>2026-04-19T15:55:36.006Z</time></trkpt><trkpt lat="45.7867601" lon="10.0130356"><ele>413.42857142857144</ele><time>2026-04-19T15:56:42.006Z</time></trkpt><trkpt lat="45.7867341" lon="10.0131238"><ele>416.57142857142856</ele><time>2026-04-19T15:56:49.006Z</time></trkpt><trkpt lat="45.7866701" lon="10.0130938"><ele>419.7142857142857</ele><time>2026-04-19T15:57:10.006Z</time></trkpt><trkpt lat="45.786603" lon="10.0131438"><ele>422.85714285714283</ele><time>2026-04-19T15:57:14.992Z</time></trkpt><trkpt lat="45.7865394" lon="10.0131696"><ele>426.0</ele><time>2026-04-19T15:57:18.001Z</time></trkpt><trkpt lat="45.7864762" lon="10.0131862"><ele>426.0</ele><time>2026-04-19T15:57:21.016Z</time></trkpt><trkpt lat="45.7864124" lon="10.013258"><ele>426.0</ele><time>2026-04-19T15:57:24.035Z</time></trkpt><trkpt lat="45.7863658" lon="10.0133302"><ele>426.0</ele><time>2026-04-19T15:57:26.009Z</time></trkpt><trkpt lat="45.7863139" lon="10.0134242"><ele>426.0</ele><time>2026-04-19T15:57:29.006Z</time></trkpt><trkpt lat="45.7862794" lon="10.0135022"><ele>426.0</ele><time>2026-04-19T15:57:31.003Z</time></trkpt><trkpt lat="45.786248" lon="10.0135836"><ele>426.0</ele><time>2026-04-19T15:57:32.004Z</time></trkpt><trkpt lat="45.7861714" lon="10.0137531"><ele>429.1666666666667</ele><time>2026-04-19T15:57:34.012Z</time></trkpt><trkpt lat="45.7862036" lon="10.013848"><ele>432.33333333333337</ele><time>2026-04-19T15:57:36.019Z</time></trkpt><trkpt lat="45.7862186" lon="10.0139373"><ele>435.5</ele><time>2026-04-19T15:57:37.003Z</time></trkpt><trkpt lat="45.7862228" lon="10.0140631"><ele>438.6666666666667</ele><time>2026-04-19T15:57:40.014Z</time></trkpt><trkpt lat="45.7862421" lon="10.0141955"><ele>441.83333333333337</ele><time>2026-04-19T15:57:41.998Z</time></trkpt><trkpt lat="45.7862016" lon="10.0143614"><ele>445.0</ele><time>2026-04-19T15:57:44.004Z</time></trkpt><trkpt lat="45.7861418" lon="10.0144824"><ele>447.00000000000006</ele><time>2026-04-19T15:57:46.012Z</time></trkpt><trkpt lat="45.7860877" lon="10.0145295"><ele>449.0</ele><time>2026-04-19T15:57:47.007Z</time></trkpt><trkpt lat="45.7860002" lon="10.0146174"><ele>451.0</ele><time>2026-04-19T15:57:48.997Z</time></trkpt><trkpt lat="45.7859407" lon="10.0146653"><ele>453.0</ele><time>2026-04-19T15:57:57.004Z</time></trkpt><trkpt lat="45.7858559" lon="10.0147625"><ele>455.00000000000006</ele><time>2026-04-19T15:58:00.015Z</time></trkpt><trkpt lat="45.7857799" lon="10.0148435"><ele>457.0</ele><time>2026-04-19T15:58:02.007Z</time></trkpt><trkpt lat="45.7857202" lon="10.0149097"><ele>457.00000000000006</ele><time>2026-04-19T15:58:03.01Z</time></trkpt><trkpt lat="45.7857081" lon="10.0150056"><ele>457.0</ele><time>2026-04-19T15:58:08.001Z</time></trkpt><trkpt lat="45.7857694" lon="10.0149793"><ele>457.0</ele><time>2026-04-19T15:58:11.999Z</time></trkpt><trkpt lat="45.7858416" lon="10.0150095"><ele>457.0</ele><time>2026-04-19T15:58:15.003Z</time></trkpt><trkpt lat="45.7859062" lon="10.0151025"><ele>457.00000000000006</ele><time>2026-04-19T15:58:18.015Z</time></trkpt><trkpt lat="45.785971" lon="10.0152135"><ele>457.0</ele><time>2026-04-19T15:58:20.008Z</time></trkpt><trkpt lat="45.7860118" lon="10.0153042"><ele>461.33333333333337</ele><time>2026-04-19T15:58:21.003Z</time></trkpt><trkpt lat="45.7860523" lon="10.0153815"><ele>465.6666666666667</ele><time>2026-04-19T15:58:22.01Z</time></trkpt><trkpt lat="45.7861279" lon="10.0154897"><ele>470.0</ele><time>2026-04-19T15:58:24.01Z</time></trkpt><trkpt lat="45.786186" lon="10.0155565"><ele>474.33333333333337</ele><time>2026-04-19T15:58:26.012Z</time></trkpt><trkpt lat="45.7862535" lon="10.0156262"><ele>478.6666666666667</ele><time>2026-04-19T15:58:28.013Z</time></trkpt><trkpt lat="45.7862907" lon="10.0157477"><ele>483.0</ele><time>2026-04-19T15:58:30.019Z</time></trkpt><trkpt lat="45.7862418" lon="10.0159259"><ele>485.0</ele><time>2026-04-19T15:58:32.005Z</time></trkpt><trkpt lat="45.7862041" lon="10.0160171"><ele>487.0</ele><time>2026-04-19T15:58:33.008Z</time></trkpt><trkpt lat="45.7862092" lon="10.0161451"><ele>489.0</ele><time>2026-04-19T15:58:33.996Z</time></trkpt><trkpt lat="45.786208" lon="10.0162774"><ele>491.0</ele><time>2026-04-19T15:58:35.009Z</time></trkpt><trkpt lat="45.7861958" lon="10.0164069"><ele>493.0</ele><time>2026-04-19T15:58:36.005Z</time></trkpt><trkpt lat="45.7861811" lon="10.0165119"><ele>495.0</ele><time>2026-04-19T15:58:37.011Z</time></trkpt><trkpt lat="45.7862068" lon="10.0166447"><ele>497.0</ele><time>2026-04-19T15:58:39.011Z</time></trkpt><trkpt lat="45.7862218" lon="10.0167583"><ele>499.0</ele><time>2026-04-19T15:58:40.996Z</time></trkpt><trkpt lat="45.7862373" lon="10.0168995"><ele>501.0</ele><time>2026-04-19T15:58:43.008Z</time></trkpt><trkpt lat="45.7863111" lon="10.0169573"><ele>503.0</ele><time>2026-04-19T15:58:45.998Z</time></trkpt><trkpt lat="45.7863874" lon="10.0169708"><ele>505.0</ele><time>2026-04-19T15:58:48.007Z</time></trkpt><trkpt lat="45.7864678" lon="10.0169711"><ele>507.0</ele><time>2026-04-19T15:58:50.006Z</time></trkpt><trkpt lat="45.7865584" lon="10.0169291"><ele>507.0</ele><time>2026-04-19T15:58:52.001Z</time></trkpt><trkpt lat="45.7866142" lon="10.0168739"><ele>507.00000000000006</ele><time>2026-04-19T15:58:53.018Z</time></trkpt><trkpt lat="45.7867237" lon="10.0168269"><ele>507.00000000000006</ele><time>2026-04-19T15:58:55.011Z</time></trkpt><trkpt lat="45.7868207" lon="10.0167866"><ele>507.0</ele><time>2026-04-19T15:58:56.998Z</time></trkpt><trkpt lat="45.7869252" lon="10.0167563"><ele>507.0</ele><time>2026-04-19T15:58:59.004Z</time></trkpt><trkpt lat="45.7870167" lon="10.01677"><ele>509.6</ele><time>2026-04-19T15:59:01.014Z</time></trkpt><trkpt lat="45.7871045" lon="10.0168485"><ele>512.2</ele><time>2026-04-19T15:59:03.004Z</time></trkpt><trkpt lat="45.7871949" lon="10.0169507"><ele>514.8</ele><time>2026-04-19T15:59:05.006Z</time></trkpt><trkpt lat="45.7872591" lon="10.0170316"><ele>517.4</ele><time>2026-04-19T15:59:07.007Z</time></trkpt><trkpt lat="45.7873347" lon="10.0171285"><ele>520.0</ele><time>2026-04-19T15:59:09.005Z</time></trkpt><trkpt lat="45.7873974" lon="10.0172014"><ele>520.0</ele><time>2026-04-19T15:59:11.006Z</time></trkpt><trkpt lat="45.7874487" lon="10.0172947"><ele>520.0</ele><time>2026-04-19T15:59:12.001Z</time></trkpt><trkpt lat="45.7875083" lon="10.0174789"><ele>520.0</ele><time>2026-04-19T15:59:14.014Z</time></trkpt><trkpt lat="45.7875288" lon="10.0175915"><ele>520.0</ele><time>2026-04-19T15:59:15.007Z</time></trkpt><trkpt lat="45.7875548" lon="10.0177083"><ele>520.0</ele><time>2026-04-19T15:59:16.004Z</time></trkpt><trkpt lat="45.7875932" lon="10.0178365"><ele>521.6666666666667</ele><time>2026-04-19T15:59:17.005Z</time></trkpt><trkpt lat="45.7876291" lon="10.0179605"><ele>523.3333333333334</ele><time>2026-04-19T15:59:18Z</time></trkpt><trkpt lat="45.7876746" lon="10.018065"><ele>525.0</ele><time>2026-04-19T15:59:18.999Z</time></trkpt><trkpt lat="45.7877108" lon="10.0181709"><ele>526.6666666666666</ele><time>2026-04-19T15:59:20.015Z</time></trkpt><trkpt lat="45.7877561" lon="10.0182763"><ele>528.3333333333333</ele><time>2026-04-19T15:59:20.998Z</time></trkpt><trkpt lat="45.7878082" lon="10.0183914"><ele>530.0</ele><time>2026-04-19T15:59:22.003Z</time></trkpt><trkpt lat="45.7878605" lon="10.0185443"><ele>533.0</ele><time>2026-04-19T15:59:23.011Z</time></trkpt><trkpt lat="45.7879152" lon="10.0186741"><ele>536.0</ele><time>2026-04-19T15:59:24.002Z</time></trkpt><trkpt lat="45.787992" lon="10.0187977"><ele>539.0</ele><time>2026-04-19T15:59:25.007Z</time></trkpt><trkpt lat="45.7880688" lon="10.0189541"><ele>542.0</ele><time>2026-04-19T15:59:26.003Z</time></trkpt><trkpt lat="45.7881479" lon="10.0190715"><ele>543.6</ele><time>2026-04-19T15:59:27.003Z</time></trkpt><trkpt lat="45.7882346" lon="10.0191795"><ele>545.2</ele><time>2026-04-19T15:59:28.007Z</time></trkpt><trkpt lat="45.7883101" lon="10.0192514"><ele>546.8</ele><time>2026-04-19T15:59:29Z</time></trkpt><trkpt lat="45.7884016" lon="10.0193439"><ele>548.4</ele><time>2026-04-19T15:59:30.005Z</time></trkpt><trkpt lat="45.7884481" lon="10.0194223"><ele>550.0</ele><time>2026-04-19T15:59:30.998Z</time></trkpt><trkpt lat="45.7885104" lon="10.0195235"><ele>553.75</ele><time>2026-04-19T15:59:32.002Z</time></trkpt><trkpt lat="45.7885892" lon="10.0197305"><ele>557.5</ele><time>2026-04-19T15:59:34.004Z</time></trkpt><trkpt lat="45.7886283" lon="10.0198883"><ele>561.25</ele><time>2026-04-19T15:59:35.008Z</time></trkpt><trkpt lat="45.7886885" lon="10.0200544"><ele>565.0</ele><time>2026-04-19T15:59:36.005Z</time></trkpt><trkpt lat="45.7887475" lon="10.0202206"><ele>565.0</ele><time>2026-04-19T15:59:37.008Z</time></trkpt><trkpt lat="45.7888205" lon="10.0203732"><ele>565.0</ele><time>2026-04-19T15:59:38.012Z</time></trkpt><trkpt lat="45.7889025" lon="10.0205441"><ele>565.0</ele><time>2026-04-19T15:59:39.005Z</time></trkpt><trkpt lat="45.7889826" lon="10.0206983"><ele>565.0</ele><time>2026-04-19T15:59:40.007Z</time></trkpt><trkpt lat="45.789073" lon="10.0208581"><ele>566.25</ele><time>2026-04-19T15:59:41.003Z</time></trkpt><trkpt lat="45.7891763" lon="10.0210162"><ele>567.5</ele><time>2026-04-19T15:59:41.998Z</time></trkpt><trkpt lat="45.7892619" lon="10.0211573"><ele>568.75</ele><time>2026-04-19T15:59:43.007Z</time></trkpt><trkpt lat="45.789335" lon="10.0212727"><ele>570.0</ele><time>2026-04-19T15:59:44.008Z</time></trkpt><trkpt lat="45.7894104" lon="10.0213729"><ele>571.6666666666666</ele><time>2026-04-19T15:59:44.998Z</time></trkpt><trkpt lat="45.7894827" lon="10.0214309"><ele>573.3333333333334</ele><time>2026-04-19T15:59:46.007Z</time></trkpt><trkpt lat="45.789533" lon="10.0215214"><ele>575.0</ele><time>2026-04-19T15:59:47.013Z</time></trkpt><trkpt lat="45.7895977" lon="10.021611"><ele>576.6666666666667</ele><time>2026-04-19T15:59:48.006Z</time></trkpt><trkpt lat="45.7896591" lon="10.0217005"><ele>578.3333333333334</ele><time>2026-04-19T15:59:49.008Z</time></trkpt><trkpt lat="45.7897133" lon="10.0218009"><ele>580.0</ele><time>2026-04-19T15:59:50.009Z</time></trkpt><trkpt lat="45.7897621" lon="10.0219028"><ele>580.0</ele><time>2026-04-19T15:59:51.008Z</time></trkpt><trkpt lat="45.7898081" lon="10.022"><ele>580.0</ele><time>2026-04-19T15:59:52.011Z</time></trkpt><trkpt lat="45.7898408" lon="10.0220804"><ele>580.0</ele><time>2026-04-19T15:59:53.006Z</time></trkpt><trkpt lat="45.7898694" lon="10.0221761"><ele>580.0</ele><time>2026-04-19T15:59:54.008Z</time></trkpt><trkpt lat="45.7898967" lon="10.02226"><ele>580.0</ele><time>2026-04-19T15:59:55.006Z</time></trkpt><trkpt lat="45.7899205" lon="10.022352"><ele>580.0</ele><time>2026-04-19T15:59:56.001Z</time></trkpt><trkpt lat="45.7899426" lon="10.0224985"><ele>580.0</ele><time>2026-04-19T15:59:58.01Z</time></trkpt><trkpt lat="45.7899555" lon="10.0226055"><ele>580.0</ele><time>2026-04-19T15:59:59.001Z</time></trkpt><trkpt lat="45.7899503" lon="10.0227035"><ele>580.0</ele><time>2026-04-19T16:00:00.013Z</time></trkpt><trkpt lat="45.7899462" lon="10.022815"><ele>580.0</ele><time>2026-04-19T16:00:01.018Z</time></trkpt><trkpt lat="45.7899365" lon="10.0229082"><ele>580.0</ele><time>2026-04-19T16:00:02.008Z</time></trkpt><trkpt lat="45.7899143" lon="10.0230102"><ele>580.0</ele><time>2026-04-19T16:00:03.005Z</time></trkpt><trkpt lat="45.7899006" lon="10.023122"><ele>580.0</ele><time>2026-04-19T16:00:04.008Z</time></trkpt><trkpt lat="45.7898743" lon="10.023219"><ele>579.8333333333334</ele><time>2026-04-19T16:00:05.002Z</time></trkpt><trkpt lat="45.7898598" lon="10.0233179"><ele>579.6666666666667</ele><time>2026-04-19T16:00:06.009Z</time></trkpt><trkpt lat="45.7898487" lon="10.0234107"><ele>579.5</ele><time>2026-04-19T16:00:07.006Z</time></trkpt><trkpt lat="45.7898445" lon="10.023543"><ele>579.3333333333334</ele><time>2026-04-19T16:00:09Z</time></trkpt><trkpt lat="45.7898422" lon="10.0236403"><ele>579.1666666666666</ele><time>2026-04-19T16:00:12.002Z</time></trkpt><trkpt lat="45.7898728" lon="10.0237499"><ele>579.0</ele><time>2026-04-19T16:00:19.003Z</time></trkpt><trkpt lat="45.7898538" lon="10.0238493"><ele>579.0</ele><time>2026-04-19T16:00:20.014Z</time></trkpt><trkpt lat="45.7898398" lon="10.024026"><ele>579.0</ele><time>2026-04-19T16:00:22Z</time></trkpt><trkpt lat="45.7898074" lon="10.024115"><ele>579.0</ele><time>2026-04-19T16:00:23.011Z</time></trkpt><trkpt lat="45.7897832" lon="10.0241998"><ele>579.0</ele><time>2026-04-19T16:00:24.005Z</time></trkpt><trkpt lat="45.7897583" lon="10.0243625"><ele>579.0</ele><time>2026-04-19T16:00:25.999Z</time></trkpt><trkpt lat="45.7897466" lon="10.0245041"><ele>579.0</ele><time>2026-04-19T16:00:28.007Z</time></trkpt><trkpt lat="45.7897331" lon="10.0246365"><ele>579.0</ele><time>2026-04-19T16:00:30Z</time></trkpt><trkpt lat="45.7897155" lon="10.0247619"><ele>579.0</ele><time>2026-04-19T16:00:32.001Z</time></trkpt><trkpt lat="45.7896614" lon="10.0248758"><ele>579.0</ele><time>2026-04-19T16:00:35.006Z</time></trkpt><trkpt lat="45.7896921" lon="10.0250398"><ele>579.0</ele><time>2026-04-19T16:00:37.007Z</time></trkpt><trkpt lat="45.7897514" lon="10.0251861"><ele>579.2</ele><time>2026-04-19T16:00:39.01Z</time></trkpt><trkpt lat="45.7897964" lon="10.0253232"><ele>579.4</ele><time>2026-04-19T16:00:41.002Z</time></trkpt><trkpt lat="45.7897847" lon="10.025452"><ele>579.6</ele><time>2026-04-19T16:00:42.998Z</time></trkpt><trkpt lat="45.7897231" lon="10.0255593"><ele>579.8</ele><time>2026-04-19T16:00:46.01Z</time></trkpt><trkpt lat="45.7896972" lon="10.0257028"><ele>580.0</ele><time>2026-04-19T16:00:47.996Z</time></trkpt><trkpt lat="45.7896542" lon="10.0258247"><ele>580.6</ele><time>2026-04-19T16:00:49.996Z</time></trkpt><trkpt lat="45.7896215" lon="10.0259129"><ele>581.2</ele><time>2026-04-19T16:00:53.01Z</time></trkpt><trkpt lat="45.7896686" lon="10.0260671"><ele>581.8</ele><time>2026-04-19T16:00:59.014Z</time></trkpt><trkpt lat="45.7897221" lon="10.0261396"><ele>582.4</ele><time>2026-04-19T16:01:00.004Z</time></trkpt><trkpt lat="45.7897992" lon="10.0262571"><ele>583.0</ele><time>2026-04-19T16:01:01.009Z</time></trkpt><trkpt lat="45.7898801" lon="10.0263607"><ele>583.0</ele><time>2026-04-19T16:01:02.006Z</time></trkpt><trkpt lat="45.7899313" lon="10.0264648"><ele>583.0</ele><time>2026-04-19T16:01:03.012Z</time></trkpt><trkpt lat="45.7899574" lon="10.0266032"><ele>583.0</ele><time>2026-04-19T16:01:03.998Z</time></trkpt><trkpt lat="45.7899863" lon="10.0267376"><ele>583.0</ele><time>2026-04-19T16:01:05.01Z</time></trkpt><trkpt lat="45.7900274" lon="10.0268796"><ele>583.0</ele><time>2026-04-19T16:01:06.013Z</time></trkpt><trkpt lat="45.7900571" lon="10.0270081"><ele>582.75</ele><time>2026-04-19T16:01:07.008Z</time></trkpt><trkpt lat="45.7900867" lon="10.0271623"><ele>582.5</ele><time>2026-04-19T16:01:08.005Z</time></trkpt><trkpt lat="45.7901054" lon="10.0273404"><ele>582.25</ele><time>2026-04-19T16:01:08.995Z</time></trkpt><trkpt lat="45.7901162" lon="10.0275302"><ele>582.0</ele><time>2026-04-19T16:01:10.008Z</time></trkpt><trkpt lat="45.790128" lon="10.0277059"><ele>582.4</ele><time>2026-04-19T16:01:11.013Z</time></trkpt><trkpt lat="45.7901425" lon="10.0278673"><ele>582.8000000000001</ele><time>2026-04-19T16:01:12.01Z</time></trkpt><trkpt lat="45.7901637" lon="10.0280165"><ele>583.2</ele><time>2026-04-19T16:01:13.013Z</time></trkpt><trkpt lat="45.7901946" lon="10.0281628"><ele>583.6</ele><time>2026-04-19T16:01:14.01Z</time></trkpt><trkpt lat="45.7902478" lon="10.0282869"><ele>584.0</ele><time>2026-04-19T16:01:15.001Z</time></trkpt><trkpt lat="45.7903021" lon="10.0283698"><ele>586.2</ele><time>2026-04-19T16:01:16.006Z</time></trkpt><trkpt lat="45.7903844" lon="10.0284314"><ele>588.4</ele><time>2026-04-19T16:01:17.009Z</time></trkpt><trkpt lat="45.7904611" lon="10.0284893"><ele>590.6</ele><time>2026-04-19T16:01:18.012Z</time></trkpt><trkpt lat="45.7905462" lon="10.0285305"><ele>592.8</ele><time>2026-04-19T16:01:19.009Z</time></trkpt><trkpt lat="45.7906302" lon="10.0285727"><ele>595.0</ele><time>2026-04-19T16:01:20.004Z</time></trkpt><trkpt lat="45.7907035" lon="10.0286518"><ele>595.0</ele><time>2026-04-19T16:01:21.018Z</time></trkpt><trkpt lat="45.7907772" lon="10.028743"><ele>595.0</ele><time>2026-04-19T16:01:22.003Z</time></trkpt><trkpt lat="45.7908399" lon="10.0288364"><ele>595.0</ele><time>2026-04-19T16:01:23.005Z</time></trkpt><trkpt lat="45.7908914" lon="10.0289404"><ele>595.0</ele><time>2026-04-19T16:01:24Z</time></trkpt><trkpt lat="45.7909223" lon="10.029032"><ele>595.0</ele><time>2026-04-19T16:01:25Z</time></trkpt><trkpt lat="45.7910109" lon="10.029147"><ele>596.8</ele><time>2026-04-19T16:01:27.017Z</time></trkpt><trkpt lat="45.7911264" lon="10.0291634"><ele>598.6</ele><time>2026-04-19T16:01:29.012Z</time></trkpt><trkpt lat="45.7912447" lon="10.0291936"><ele>600.4</ele><time>2026-04-19T16:01:31.007Z</time></trkpt><trkpt lat="45.7913327" lon="10.0292678"><ele>602.2</ele><time>2026-04-19T16:01:33.004Z</time></trkpt><trkpt lat="45.7914046" lon="10.0293423"><ele>604.0</ele><time>2026-04-19T16:01:33.996Z</time></trkpt><trkpt lat="45.7914712" lon="10.0294413"><ele>604.0</ele><time>2026-04-19T16:01:35.005Z</time></trkpt><trkpt lat="45.7915354" lon="10.029501"><ele>604.0</ele><time>2026-04-19T16:01:36.003Z</time></trkpt><trkpt lat="45.7916114" lon="10.0295507"><ele>604.0</ele><time>2026-04-19T16:01:37.003Z</time></trkpt><trkpt lat="45.7916958" lon="10.0295704"><ele>604.0</ele><time>2026-04-19T16:01:38.005Z</time></trkpt><trkpt lat="45.7917715" lon="10.0295835"><ele>604.0</ele><time>2026-04-19T16:01:39.006Z</time></trkpt><trkpt lat="45.7918737" lon="10.0295866"><ele>604.0</ele><time>2026-04-19T16:01:40.006Z</time></trkpt><trkpt lat="45.7919678" lon="10.0295659"><ele>604.6</ele><time>2026-04-19T16:01:40.998Z</time></trkpt><trkpt lat="45.7920504" lon="10.0295272"><ele>605.2</ele><time>2026-04-19T16:01:42.007Z</time></trkpt><trkpt lat="45.792142" lon="10.0294948"><ele>605.8000000000001</ele><time>2026-04-19T16:01:43.006Z</time></trkpt><trkpt lat="45.7922236" lon="10.0294554"><ele>606.4</ele><time>2026-04-19T16:01:44.001Z</time></trkpt><trkpt lat="45.7923129" lon="10.0294056"><ele>607.0</ele><time>2026-04-19T16:01:45.017Z</time></trkpt><trkpt lat="45.7923933" lon="10.0293562"><ele>607.0</ele><time>2026-04-19T16:01:46.012Z</time></trkpt><trkpt lat="45.7924751" lon="10.0292969"><ele>607.0</ele><time>2026-04-19T16:01:47Z</time></trkpt><trkpt lat="45.7925653" lon="10.0292301"><ele>607.0</ele><time>2026-04-19T16:01:48.015Z</time></trkpt><trkpt lat="45.792643" lon="10.0291463"><ele>607.0</ele><time>2026-04-19T16:01:48.998Z</time></trkpt><trkpt lat="45.7927039" lon="10.0290739"><ele>607.0</ele><time>2026-04-19T16:01:50.017Z</time></trkpt><trkpt lat="45.7927625" lon="10.0289962"><ele>607.0</ele><time>2026-04-19T16:01:51.005Z</time></trkpt><trkpt lat="45.7928107" lon="10.0289272"><ele>609.4</ele><time>2026-04-19T16:01:52.012Z</time></trkpt><trkpt lat="45.7928473" lon="10.0288364"><ele>611.8000000000001</ele><time>2026-04-19T16:01:53.011Z</time></trkpt><trkpt lat="45.7928959" lon="10.0287191"><ele>614.2</ele><time>2026-04-19T16:01:54.01Z</time></trkpt><trkpt lat="45.7929521" lon="10.0285405"><ele>616.6</ele><time>2026-04-19T16:01:56.012Z</time></trkpt><trkpt lat="45.7930004" lon="10.0284512"><ele>619.0</ele><time>2026-04-19T16:01:57.008Z</time></trkpt><trkpt lat="45.7930454" lon="10.0283629"><ele>621.0</ele><time>2026-04-19T16:01:58.001Z</time></trkpt><trkpt lat="45.7930713" lon="10.0282678"><ele>623.0</ele><time>2026-04-19T16:01:59.006Z</time></trkpt><trkpt lat="45.7931153" lon="10.0281672"><ele>625.0</ele><time>2026-04-19T16:02:00.003Z</time></trkpt><trkpt lat="45.7932145" lon="10.0280516"><ele>627.0</ele><time>2026-04-19T16:02:02.004Z</time></trkpt><trkpt lat="45.7933048" lon="10.0279909"><ele>629.0</ele><time>2026-04-19T16:02:04.01Z</time></trkpt><trkpt lat="45.7933851" lon="10.027897"><ele>629.0</ele><time>2026-04-19T16:02:07.005Z</time></trkpt><trkpt lat="45.7934658" lon="10.0278445"><ele>629.0</ele><time>2026-04-19T16:02:09.004Z</time></trkpt><trkpt lat="45.793611" lon="10.027845"><ele>629.0</ele><time>2026-04-19T16:02:11.012Z</time></trkpt><trkpt lat="45.7936896" lon="10.0278241"><ele>629.0</ele><time>2026-04-19T16:02:12.012Z</time></trkpt><trkpt lat="45.7937767" lon="10.0278022"><ele>629.0</ele><time>2026-04-19T16:02:13.012Z</time></trkpt><trkpt lat="45.7939049" lon="10.0278077"><ele>632.1666666666666</ele><time>2026-04-19T16:02:15.011Z</time></trkpt><trkpt lat="45.7939681" lon="10.0278418"><ele>635.3333333333333</ele><time>2026-04-19T16:02:16.011Z</time></trkpt><trkpt lat="45.7940438" lon="10.0279022"><ele>638.5</ele><time>2026-04-19T16:02:17.011Z</time></trkpt><trkpt lat="45.7941237" lon="10.0279738"><ele>641.6666666666666</ele><time>2026-04-19T16:02:18.011Z</time></trkpt><trkpt lat="45.7941823" lon="10.0280436"><ele>644.8333333333334</ele><time>2026-04-19T16:02:19.012Z</time></trkpt><trkpt lat="45.7942544" lon="10.0281149"><ele>648.0</ele><time>2026-04-19T16:02:20.012Z</time></trkpt><trkpt lat="45.7943211" lon="10.0281972"><ele>651.1666666666666</ele><time>2026-04-19T16:02:21.011Z</time></trkpt><trkpt lat="45.7943858" lon="10.0282862"><ele>654.3333333333334</ele><time>2026-04-19T16:02:22.012Z</time></trkpt><trkpt lat="45.7944389" lon="10.0283627"><ele>657.5</ele><time>2026-04-19T16:02:23.012Z</time></trkpt><trkpt lat="45.7945104" lon="10.0284478"><ele>660.6666666666667</ele><time>2026-04-19T16:02:24.012Z</time></trkpt><trkpt lat="45.7945742" lon="10.0285247"><ele>663.8333333333334</ele><time>2026-04-19T16:02:25.011Z</time></trkpt><trkpt lat="45.7946384" lon="10.0286031"><ele>667.0</ele><time>2026-04-19T16:02:26.012Z</time></trkpt><trkpt lat="45.7947025" lon="10.028677"><ele>667.0</ele><time>2026-04-19T16:02:27.011Z</time></trkpt><trkpt lat="45.7947625" lon="10.0287624"><ele>667.0</ele><time>2026-04-19T16:02:28.012Z</time></trkpt><trkpt lat="45.7948335" lon="10.0288464"><ele>667.0</ele><time>2026-04-19T16:02:29.011Z</time></trkpt><trkpt lat="45.7949013" lon="10.0289393"><ele>667.0</ele><time>2026-04-19T16:02:30.012Z</time></trkpt><trkpt lat="45.7949523" lon="10.0290037"><ele>667.0</ele><time>2026-04-19T16:02:31.012Z</time></trkpt><trkpt lat="45.7950035" lon="10.0290789"><ele>667.0</ele><time>2026-04-19T16:02:33.012Z</time></trkpt><trkpt lat="45.7949985" lon="10.029171"><ele>668.5</ele><time>2026-04-19T16:02:34.012Z</time></trkpt><trkpt lat="45.7950035" lon="10.0292836"><ele>670.0</ele><time>2026-04-19T16:02:35.012Z</time></trkpt><trkpt lat="45.7950109" lon="10.0293902"><ele>671.5</ele><time>2026-04-19T16:02:36.012Z</time></trkpt><trkpt lat="45.7950527" lon="10.0294912"><ele>673.0</ele><time>2026-04-19T16:02:37.012Z</time></trkpt><trkpt lat="45.795121" lon="10.0295531"><ele>674.5</ele><time>2026-04-19T16:02:38.012Z</time></trkpt><trkpt lat="45.7951937" lon="10.0296673"><ele>676.0</ele><time>2026-04-19T16:02:40.012Z</time></trkpt><trkpt lat="45.7952716" lon="10.0297834"><ele>676.0</ele><time>2026-04-19T16:02:42.012Z</time></trkpt><trkpt lat="45.7953795" lon="10.0298302"><ele>676.0</ele><time>2026-04-19T16:02:44.012Z</time></trkpt><trkpt lat="45.7954614" lon="10.0298986"><ele>676.0</ele><time>2026-04-19T16:02:46.011Z</time></trkpt><trkpt lat="45.7955065" lon="10.0299769"><ele>676.0</ele><time>2026-04-19T16:02:47.011Z</time></trkpt><trkpt lat="45.7955491" lon="10.0300771"><ele>676.0</ele><time>2026-04-19T16:02:48.012Z</time></trkpt><trkpt lat="45.7955936" lon="10.0301752"><ele>676.0</ele><time>2026-04-19T16:02:49.012Z</time></trkpt><trkpt lat="45.7956432" lon="10.0302741"><ele>673.0</ele><time>2026-04-19T16:02:50.012Z</time></trkpt><trkpt lat="45.7956862" lon="10.030371"><ele>670.0</ele><time>2026-04-19T16:02:51.011Z</time></trkpt><trkpt lat="45.7957173" lon="10.0304795"><ele>667.0</ele><time>2026-04-19T16:02:52.012Z</time></trkpt><trkpt lat="45.7957567" lon="10.0305859"><ele>664.0</ele><time>2026-04-19T16:02:53.012Z</time></trkpt><trkpt lat="45.795768" lon="10.0307407"><ele>661.0</ele><time>2026-04-19T16:02:55.011Z</time></trkpt><trkpt lat="45.7957014" lon="10.0309015"><ele>659.5</ele><time>2026-04-19T16:02:57.012Z</time></trkpt><trkpt lat="45.7956581" lon="10.0310046"><ele>658.0</ele><time>2026-04-19T16:02:58.012Z</time></trkpt><trkpt lat="45.7956264" lon="10.0311333"><ele>656.5</ele><time>2026-04-19T16:02:59.012Z</time></trkpt><trkpt lat="45.7956134" lon="10.0312521"><ele>655.0</ele><time>2026-04-19T16:03:00.011Z</time></trkpt><trkpt lat="45.7955841" lon="10.0313543"><ele>653.5</ele><time>2026-04-19T16:03:01.011Z</time></trkpt><trkpt lat="45.7955533" lon="10.0314476"><ele>652.0</ele><time>2026-04-19T16:03:02.011Z</time></trkpt><trkpt lat="45.7955482" lon="10.0315411"><ele>652.0</ele><time>2026-04-19T16:03:03.012Z</time></trkpt><trkpt lat="45.7955787" lon="10.0316296"><ele>652.0</ele><time>2026-04-19T16:03:04.012Z</time></trkpt><trkpt lat="45.7955973" lon="10.0317658"><ele>652.0</ele><time>2026-04-19T16:03:06.012Z</time></trkpt><trkpt lat="45.7955735" lon="10.0318683"><ele>652.0</ele><time>2026-04-19T16:03:07.011Z</time></trkpt><trkpt lat="45.7955677" lon="10.0320079"><ele>652.0</ele><time>2026-04-19T16:03:08.012Z</time></trkpt><trkpt lat="45.7955394" lon="10.0320997"><ele>652.0</ele><time>2026-04-19T16:03:10.011Z</time></trkpt><trkpt lat="45.7955994" lon="10.0320528"><ele>653.4000000000001</ele><time>2026-04-19T16:03:13.012Z</time></trkpt><trkpt lat="45.795665" lon="10.0319526"><ele>654.8000000000001</ele><time>2026-04-19T16:03:14.011Z</time></trkpt><trkpt lat="45.7957672" lon="10.0318479"><ele>656.2</ele><time>2026-04-19T16:03:15.012Z</time></trkpt><trkpt lat="45.7958643" lon="10.0317566"><ele>657.6</ele><time>2026-04-19T16:03:16.012Z</time></trkpt><trkpt lat="45.7959297" lon="10.0316921"><ele>659.0</ele><time>2026-04-19T16:03:17.012Z</time></trkpt><trkpt lat="45.7960013" lon="10.0316753"><ele>661.6</ele><time>2026-04-19T16:03:18.011Z</time></trkpt><trkpt lat="45.7961366" lon="10.0317164"><ele>664.2</ele><time>2026-04-19T16:03:20.012Z</time></trkpt><trkpt lat="45.7962228" lon="10.0317402"><ele>666.8000000000001</ele><time>2026-04-19T16:03:21.012Z</time></trkpt><trkpt lat="45.7962853" lon="10.0317623"><ele>669.4000000000001</ele><time>2026-04-19T16:03:22.012Z</time></trkpt><trkpt lat="45.7964043" lon="10.0317123"><ele>672.0</ele><time>2026-04-19T16:03:24.012Z</time></trkpt><trkpt lat="45.7964636" lon="10.031675"><ele>671.4000000000001</ele><time>2026-04-19T16:03:25.012Z</time></trkpt><trkpt lat="45.7965525" lon="10.0316033"><ele>670.8000000000001</ele><time>2026-04-19T16:03:26.012Z</time></trkpt><trkpt lat="45.7966202" lon="10.0315286"><ele>670.2</ele><time>2026-04-19T16:03:27.011Z</time></trkpt><trkpt lat="45.7967137" lon="10.0314528"><ele>669.6</ele><time>2026-04-19T16:03:28.012Z</time></trkpt><trkpt lat="45.7967967" lon="10.0313746"><ele>669.0</ele><time>2026-04-19T16:03:29.012Z</time></trkpt><trkpt lat="45.7968983" lon="10.031299"><ele>670.2</ele><time>2026-04-19T16:03:30.012Z</time></trkpt><trkpt lat="45.7969854" lon="10.0312266"><ele>671.4000000000001</ele><time>2026-04-19T16:03:31.011Z</time></trkpt><trkpt lat="45.7970799" lon="10.0311301"><ele>672.6</ele><time>2026-04-19T16:03:32.012Z</time></trkpt><trkpt lat="45.7971457" lon="10.0310637"><ele>673.8</ele><time>2026-04-19T16:03:33.012Z</time></trkpt><trkpt lat="45.7971914" lon="10.030984"><ele>675.0</ele><time>2026-04-19T16:03:34.011Z</time></trkpt><trkpt lat="45.7972863" lon="10.0309649"><ele>675.0</ele><time>2026-04-19T16:03:38.011Z</time></trkpt><trkpt lat="45.7973154" lon="10.0310488"><ele>675.0</ele><time>2026-04-19T16:03:39.012Z</time></trkpt><trkpt lat="45.7973926" lon="10.031144"><ele>675.0</ele><time>2026-04-19T16:03:41.011Z</time></trkpt><trkpt lat="45.7974989" lon="10.0312355"><ele>675.0</ele><time>2026-04-19T16:03:43.012Z</time></trkpt><trkpt lat="45.7975858" lon="10.031292"><ele>675.0</ele><time>2026-04-19T16:03:44.012Z</time></trkpt><trkpt lat="45.7976621" lon="10.0313467"><ele>673.8</ele><time>2026-04-19T16:03:45.011Z</time></trkpt><trkpt lat="45.7977661" lon="10.031393"><ele>672.6</ele><time>2026-04-19T16:03:47.012Z</time></trkpt><trkpt lat="45.7978078" lon="10.031493"><ele>671.4000000000001</ele><time>2026-04-19T16:03:49.012Z</time></trkpt><trkpt lat="45.7977595" lon="10.0316165"><ele>670.2</ele><time>2026-04-19T16:03:50.012Z</time></trkpt><trkpt lat="45.7977159" lon="10.0317281"><ele>669.0</ele><time>2026-04-19T16:03:51.011Z</time></trkpt><trkpt lat="45.7976703" lon="10.0318215"><ele>672.6666666666666</ele><time>2026-04-19T16:03:52.011Z</time></trkpt><trkpt lat="45.797662" lon="10.0319246"><ele>676.3333333333334</ele><time>2026-04-19T16:03:53.011Z</time></trkpt><trkpt lat="45.7976429" lon="10.0320309"><ele>680.0</ele><time>2026-04-19T16:03:54.011Z</time></trkpt><trkpt lat="45.7976216" lon="10.032119"><ele>683.6666666666667</ele><time>2026-04-19T16:03:55.012Z</time></trkpt><trkpt lat="45.7975913" lon="10.0322285"><ele>687.3333333333334</ele><time>2026-04-19T16:03:56.012Z</time></trkpt><trkpt lat="45.7975314" lon="10.0323735"><ele>691.0</ele><time>2026-04-19T16:03:57.012Z</time></trkpt><trkpt lat="45.7974635" lon="10.0325013"><ele>693.4</ele><time>2026-04-19T16:03:58.012Z</time></trkpt><trkpt lat="45.7974177" lon="10.0326014"><ele>695.8</ele><time>2026-04-19T16:03:59.012Z</time></trkpt><trkpt lat="45.7973448" lon="10.0327389"><ele>698.1999999999999</ele><time>2026-04-19T16:04:01.011Z</time></trkpt><trkpt lat="45.7973447" lon="10.0329207"><ele>700.5999999999999</ele><time>2026-04-19T16:04:02.011Z</time></trkpt><trkpt lat="45.797321" lon="10.0330649"><ele>703.0</ele><time>2026-04-19T16:04:03.012Z</time></trkpt><trkpt lat="45.7973033" lon="10.0331935"><ele>703.0</ele><time>2026-04-19T16:04:04.011Z</time></trkpt><trkpt lat="45.7972967" lon="10.0333021"><ele>703.0</ele><time>2026-04-19T16:04:05.011Z</time></trkpt><trkpt lat="45.7972764" lon="10.0334426"><ele>703.0</ele><time>2026-04-19T16:04:06.012Z</time></trkpt><trkpt lat="45.7972906" lon="10.0336008"><ele>703.0</ele><time>2026-04-19T16:04:08.012Z</time></trkpt><trkpt lat="45.7972981" lon="10.0337382"><ele>703.0</ele><time>2026-04-19T16:04:10.012Z</time></trkpt><trkpt lat="45.7972497" lon="10.0338895"><ele>705.8</ele><time>2026-04-19T16:04:12.012Z</time></trkpt><trkpt lat="45.7971553" lon="10.0339809"><ele>708.5999999999999</ele><time>2026-04-19T16:04:13.012Z</time></trkpt><trkpt lat="45.7970893" lon="10.0340694"><ele>711.4000000000001</ele><time>2026-04-19T16:04:14.012Z</time></trkpt><trkpt lat="45.7970327" lon="10.0341797"><ele>714.2</ele><time>2026-04-19T16:04:15.011Z</time></trkpt><trkpt lat="45.7969641" lon="10.0343247"><ele>717.0</ele><time>2026-04-19T16:04:16.012Z</time></trkpt><trkpt lat="45.7969169" lon="10.0344788"><ele>716.1666666666666</ele><time>2026-04-19T16:04:17.011Z</time></trkpt><trkpt lat="45.7968919" lon="10.0345978"><ele>715.3333333333334</ele><time>2026-04-19T16:04:18.012Z</time></trkpt><trkpt lat="45.7968409" lon="10.0346796"><ele>714.5</ele><time>2026-04-19T16:04:19.012Z</time></trkpt><trkpt lat="45.7968118" lon="10.0347812"><ele>713.6666666666667</ele><time>2026-04-19T16:04:20.011Z</time></trkpt><trkpt lat="45.796732" lon="10.0349323"><ele>712.8333333333334</ele><time>2026-04-19T16:04:22.012Z</time></trkpt><trkpt lat="45.7967008" lon="10.0350111"><ele>712.0</ele><time>2026-04-19T16:04:23.011Z</time></trkpt><trkpt lat="45.7966798" lon="10.0351281"><ele>712.0</ele><time>2026-04-19T16:04:24.012Z</time></trkpt><trkpt lat="45.7966633" lon="10.0352158"><ele>712.0</ele><time>2026-04-19T16:04:25.011Z</time></trkpt><trkpt lat="45.7966711" lon="10.0353286"><ele>712.0</ele><time>2026-04-19T16:04:26.012Z</time></trkpt><trkpt lat="45.7967181" lon="10.035448"><ele>712.0</ele><time>2026-04-19T16:04:27.012Z</time></trkpt><trkpt lat="45.7967401" lon="10.0355481"><ele>712.0</ele><time>2026-04-19T16:04:28.011Z</time></trkpt><trkpt lat="45.79676" lon="10.0356609"><ele>712.0</ele><time>2026-04-19T16:04:29.012Z</time></trkpt><trkpt lat="45.796751" lon="10.0357516"><ele>712.8</ele><time>2026-04-19T16:04:30.011Z</time></trkpt><trkpt lat="45.7967466" lon="10.0359396"><ele>713.6</ele><time>2026-04-19T16:04:32.011Z</time></trkpt><trkpt lat="45.7967359" lon="10.0360491"><ele>714.4</ele><time>2026-04-19T16:04:33.012Z</time></trkpt><trkpt lat="45.7967404" lon="10.0361536"><ele>715.1999999999999</ele><time>2026-04-19T16:04:34.012Z</time></trkpt><trkpt lat="45.7967798" lon="10.0362955"><ele>716.0</ele><time>2026-04-19T16:04:36.012Z</time></trkpt><trkpt lat="45.7968878" lon="10.036407"><ele>722.1999999999999</ele><time>2026-04-19T16:04:38.011Z</time></trkpt><trkpt lat="45.7969738" lon="10.0364541"><ele>728.4</ele><time>2026-04-19T16:04:39.011Z</time></trkpt><trkpt lat="45.7970619" lon="10.0365198"><ele>734.6</ele><time>2026-04-19T16:04:40.012Z</time></trkpt><trkpt lat="45.7971659" lon="10.0366217"><ele>740.8</ele><time>2026-04-19T16:04:42.012Z</time></trkpt><trkpt lat="45.797189" lon="10.0367805"><ele>747.0</ele><time>2026-04-19T16:04:44.012Z</time></trkpt><trkpt lat="45.7972061" lon="10.0369082"><ele>747.0</ele><time>2026-04-19T16:04:45.012Z</time></trkpt><trkpt lat="45.7972366" lon="10.0370561"><ele>747.0</ele><time>2026-04-19T16:04:46.011Z</time></trkpt><trkpt lat="45.7972506" lon="10.0371702"><ele>747.0</ele><time>2026-04-19T16:04:47.012Z</time></trkpt><trkpt lat="45.7972692" lon="10.0373118"><ele>747.0</ele><time>2026-04-19T16:04:48.012Z</time></trkpt><trkpt lat="45.7972789" lon="10.0374108"><ele>747.0</ele><time>2026-04-19T16:04:49.011Z</time></trkpt><trkpt lat="45.7973525" lon="10.0375364"><ele>745.2</ele><time>2026-04-19T16:04:51.011Z</time></trkpt><trkpt lat="45.7974385" lon="10.0375967"><ele>743.4000000000001</ele><time>2026-04-19T16:04:52.011Z</time></trkpt><trkpt lat="45.7975218" lon="10.0376352"><ele>741.5999999999999</ele><time>2026-04-19T16:04:53.011Z</time></trkpt><trkpt lat="45.7975952" lon="10.0376854"><ele>739.8</ele><time>2026-04-19T16:04:54.012Z</time></trkpt><trkpt lat="45.7976632" lon="10.0377241"><ele>738.0</ele><time>2026-04-19T16:04:55.012Z</time></trkpt><trkpt lat="45.7977552" lon="10.0378498"><ele>738.0</ele><time>2026-04-19T16:04:57.012Z</time></trkpt><trkpt lat="45.7978231" lon="10.0379689"><ele>738.0</ele><time>2026-04-19T16:04:59.011Z</time></trkpt><trkpt lat="45.7978845" lon="10.0381169"><ele>738.0</ele><time>2026-04-19T16:05:01.012Z</time></trkpt><trkpt lat="45.7979497" lon="10.0381485"><ele>738.0</ele><time>2026-04-19T16:05:02.012Z</time></trkpt><trkpt lat="45.7980661" lon="10.0382023"><ele>738.0</ele><time>2026-04-19T16:05:03.012Z</time></trkpt><trkpt lat="45.7981686" lon="10.0382225"><ele>738.0</ele><time>2026-04-19T16:05:04.011Z</time></trkpt><trkpt lat="45.7982814" lon="10.0382076"><ele>738.0</ele><time>2026-04-19T16:05:05.012Z</time></trkpt><trkpt lat="45.7984129" lon="10.0382034"><ele>738.0</ele><time>2026-04-19T16:05:06.011Z</time></trkpt><trkpt lat="45.7984994" lon="10.0382493"><ele>738.0</ele><time>2026-04-19T16:05:07.012Z</time></trkpt><trkpt lat="45.7985813" lon="10.0382945"><ele>738.0</ele><time>2026-04-19T16:05:08.011Z</time></trkpt><trkpt lat="45.7987266" lon="10.0382978"><ele>734.4</ele><time>2026-04-19T16:05:10.012Z</time></trkpt><trkpt lat="45.7988127" lon="10.0382699"><ele>730.8</ele><time>2026-04-19T16:05:11.012Z</time></trkpt><trkpt lat="45.798889" lon="10.0382417"><ele>727.2</ele><time>2026-04-19T16:05:12.012Z</time></trkpt><trkpt lat="45.7989495" lon="10.0382009"><ele>723.6</ele><time>2026-04-19T16:05:13.012Z</time></trkpt><trkpt lat="45.7990298" lon="10.0380648"><ele>720.0</ele><time>2026-04-19T16:05:15.011Z</time></trkpt><trkpt lat="45.7990849" lon="10.0379128"><ele>720.0</ele><time>2026-04-19T16:05:17.012Z</time></trkpt><trkpt lat="45.799132" lon="10.0378029"><ele>720.0</ele><time>2026-04-19T16:05:19.012Z</time></trkpt><trkpt lat="45.7991881" lon="10.037753"><ele>720.0</ele><time>2026-04-19T16:05:21.012Z</time></trkpt><trkpt lat="45.7992425" lon="10.0378926"><ele>720.0</ele><time>2026-04-19T16:05:23.012Z</time></trkpt><trkpt lat="45.799257" lon="10.0380037"><ele>720.0</ele><time>2026-04-19T16:05:24.012Z</time></trkpt><trkpt lat="45.799248" lon="10.0381251"><ele>720.0</ele><time>2026-04-19T16:05:25.012Z</time></trkpt><trkpt lat="45.7992609" lon="10.0382414"><ele>717.2</ele><time>2026-04-19T16:05:26.012Z</time></trkpt><trkpt lat="45.7992714" lon="10.0383465"><ele>714.4</ele><time>2026-04-19T16:05:27.012Z</time></trkpt><trkpt lat="45.7992903" lon="10.0384555"><ele>711.5999999999999</ele><time>2026-04-19T16:05:28.012Z</time></trkpt><trkpt lat="45.7992803" lon="10.0385593"><ele>708.8</ele><time>2026-04-19T16:05:30.011Z</time></trkpt><trkpt lat="45.7992221" lon="10.0387105"><ele>706.0</ele><time>2026-04-19T16:05:32.012Z</time></trkpt><trkpt lat="45.7991505" lon="10.0388376"><ele>706.0</ele><time>2026-04-19T16:05:34.012Z</time></trkpt><trkpt lat="45.7990885" lon="10.0389488"><ele>706.0</ele><time>2026-04-19T16:05:36.012Z</time></trkpt><trkpt lat="45.7990315" lon="10.0390476"><ele>706.0</ele><time>2026-04-19T16:05:38.012Z</time></trkpt><trkpt lat="45.7989714" lon="10.0390798"><ele>706.0</ele><time>2026-04-19T16:05:39.011Z</time></trkpt><trkpt lat="45.7988755" lon="10.0391219"><ele>706.0</ele><time>2026-04-19T16:05:41.011Z</time></trkpt><trkpt lat="45.7988116" lon="10.0391564"><ele>706.0</ele><time>2026-04-19T16:05:42.011Z</time></trkpt><trkpt lat="45.7987547" lon="10.0391992"><ele>704.3333333333334</ele><time>2026-04-19T16:05:43.012Z</time></trkpt><trkpt lat="45.7986875" lon="10.0392356"><ele>702.6666666666667</ele><time>2026-04-19T16:05:44.012Z</time></trkpt><trkpt lat="45.7986312" lon="10.0392802"><ele>701.0</ele><time>2026-04-19T16:05:45.011Z</time></trkpt><trkpt lat="45.798569" lon="10.0393404"><ele>699.3333333333334</ele><time>2026-04-19T16:05:46.011Z</time></trkpt><trkpt lat="45.7985205" lon="10.0394209"><ele>697.6666666666666</ele><time>2026-04-19T16:05:47.012Z</time></trkpt><trkpt lat="45.7984665" lon="10.0395708"><ele>696.0</ele><time>2026-04-19T16:05:49.012Z</time></trkpt><trkpt lat="45.7983966" lon="10.0397036"><ele>696.0</ele><time>2026-04-19T16:05:51.011Z</time></trkpt><trkpt lat="45.7983306" lon="10.0398256"><ele>696.0</ele><time>2026-04-19T16:05:53.012Z</time></trkpt><trkpt lat="45.7982791" lon="10.0399458"><ele>696.0</ele><time>2026-04-19T16:05:55.011Z</time></trkpt><trkpt lat="45.7982329" lon="10.0400602"><ele>696.0</ele><time>2026-04-19T16:05:57.011Z</time></trkpt><trkpt lat="45.7981404" lon="10.0401699"><ele>696.0</ele><time>2026-04-19T16:05:59.012Z</time></trkpt><trkpt lat="45.7980712" lon="10.0402857"><ele>691.8</ele><time>2026-04-19T16:06:01.012Z</time></trkpt><trkpt lat="45.7979612" lon="10.0403473"><ele>687.5999999999999</ele><time>2026-04-19T16:06:03.012Z</time></trkpt><trkpt lat="45.7978466" lon="10.0403631"><ele>683.4</ele><time>2026-04-19T16:06:05.011Z</time></trkpt><trkpt lat="45.7977737" lon="10.0403428"><ele>679.2</ele><time>2026-04-19T16:06:06.012Z</time></trkpt><trkpt lat="45.7976481" lon="10.0403068"><ele>675.0</ele><time>2026-04-19T16:06:08.012Z</time></trkpt><trkpt lat="45.7975723" lon="10.0402697"><ele>674.0</ele><time>2026-04-19T16:06:09.012Z</time></trkpt><trkpt lat="45.7974856" lon="10.0402212"><ele>673.0</ele><time>2026-04-19T16:06:10.012Z</time></trkpt><trkpt lat="45.7973869" lon="10.0401898"><ele>672.0</ele><time>2026-04-19T16:06:11.012Z</time></trkpt><trkpt lat="45.7973141" lon="10.0401837"><ele>671.0</ele><time>2026-04-19T16:06:12.012Z</time></trkpt><trkpt lat="45.7972404" lon="10.0401669"><ele>670.0</ele><time>2026-04-19T16:06:13.011Z</time></trkpt><trkpt lat="45.7971701" lon="10.0401186"><ele>669.0</ele><time>2026-04-19T16:06:14.011Z</time></trkpt><trkpt lat="45.797108" lon="10.0400577"><ele>669.0</ele><time>2026-04-19T16:06:15.011Z</time></trkpt><trkpt lat="45.7970329" lon="10.0399777"><ele>669.0</ele><time>2026-04-19T16:06:17.011Z</time></trkpt><trkpt lat="45.7969634" lon="10.0398911"><ele>669.0</ele><time>2026-04-19T16:06:19.011Z</time></trkpt><trkpt lat="45.7968633" lon="10.0398065"><ele>669.0</ele><time>2026-04-19T16:06:21.012Z</time></trkpt><trkpt lat="45.7967918" lon="10.0396634"><ele>669.0</ele><time>2026-04-19T16:06:23.012Z</time></trkpt><trkpt lat="45.7967527" lon="10.0395895"><ele>670.0</ele><time>2026-04-19T16:06:24.012Z</time></trkpt><trkpt lat="45.7966842" lon="10.0394051"><ele>671.0</ele><time>2026-04-19T16:06:26.011Z</time></trkpt><trkpt lat="45.7966461" lon="10.0393233"><ele>672.0</ele><time>2026-04-19T16:06:27.011Z</time></trkpt><trkpt lat="45.796611" lon="10.0392302"><ele>673.0</ele><time>2026-04-19T16:06:28.012Z</time></trkpt><trkpt lat="45.7965597" lon="10.0391464"><ele>674.0</ele><time>2026-04-19T16:06:29.012Z</time></trkpt><trkpt lat="45.7965104" lon="10.0390794"><ele>675.0</ele><time>2026-04-19T16:06:30.012Z</time></trkpt><trkpt lat="45.7964528" lon="10.0390027"><ele>675.0</ele><time>2026-04-19T16:06:31.012Z</time></trkpt><trkpt lat="45.796401" lon="10.0389359"><ele>675.0</ele><time>2026-04-19T16:06:32.012Z</time></trkpt><trkpt lat="45.796309" lon="10.038813"><ele>675.0</ele><time>2026-04-19T16:06:34.011Z</time></trkpt><trkpt lat="45.7962238" lon="10.0387063"><ele>675.0</ele><time>2026-04-19T16:06:36.011Z</time></trkpt><trkpt lat="45.7961389" lon="10.0385779"><ele>675.0</ele><time>2026-04-19T16:06:38.012Z</time></trkpt><trkpt lat="45.7960332" lon="10.0384822"><ele>671.6666666666666</ele><time>2026-04-19T16:06:40.011Z</time></trkpt><trkpt lat="45.7959789" lon="10.038417"><ele>668.3333333333334</ele><time>2026-04-19T16:06:41.012Z</time></trkpt><trkpt lat="45.7959344" lon="10.0383433"><ele>665.0</ele><time>2026-04-19T16:06:42.011Z</time></trkpt><trkpt lat="45.7958891" lon="10.0382715"><ele>661.6666666666667</ele><time>2026-04-19T16:06:43.012Z</time></trkpt><trkpt lat="45.7958444" lon="10.0381762"><ele>658.3333333333334</ele><time>2026-04-19T16:06:44.011Z</time></trkpt><trkpt lat="45.7957551" lon="10.0380618"><ele>655.0</ele><time>2026-04-19T16:06:45.011Z</time></trkpt><trkpt lat="45.7956898" lon="10.0379393"><ele>655.0</ele><time>2026-04-19T16:06:46.012Z</time></trkpt><trkpt lat="45.7956305" lon="10.0378551"><ele>655.0</ele><time>2026-04-19T16:06:47.012Z</time></trkpt><trkpt lat="45.7955879" lon="10.0377802"><ele>655.0</ele><time>2026-04-19T16:06:48.012Z</time></trkpt><trkpt lat="45.7954991" lon="10.0376791"><ele>655.0</ele><time>2026-04-19T16:06:50.011Z</time></trkpt><trkpt lat="45.7954853" lon="10.0375849"><ele>655.0</ele><time>2026-04-19T16:06:52.012Z</time></trkpt><trkpt lat="45.7954466" lon="10.0374974"><ele>655.0</ele><time>2026-04-19T16:09:15.012Z</time></trkpt><trkpt lat="45.79537" lon="10.0374578"><ele>657.3333333333334</ele><time>2026-04-19T16:09:21.011Z</time></trkpt><trkpt lat="45.7952923" lon="10.0374512"><ele>659.6666666666667</ele><time>2026-04-19T16:09:24.012Z</time></trkpt><trkpt lat="45.7952063" lon="10.0374321"><ele>662.0</ele><time>2026-04-19T16:09:27.012Z</time></trkpt><trkpt lat="45.7951105" lon="10.0374095"><ele>664.3333333333334</ele><time>2026-04-19T16:09:30.012Z</time></trkpt><trkpt lat="45.795025" lon="10.0373915"><ele>666.6666666666666</ele><time>2026-04-19T16:09:32.012Z</time></trkpt><trkpt lat="45.7949385" lon="10.0373396"><ele>669.0</ele><time>2026-04-19T16:09:34.012Z</time></trkpt><trkpt lat="45.7948907" lon="10.0372745"><ele>662.6666666666666</ele><time>2026-04-19T16:09:36.012Z</time></trkpt><trkpt lat="45.7949091" lon="10.0371365"><ele>656.3333333333334</ele><time>2026-04-19T16:09:39.011Z</time></trkpt><trkpt lat="45.7949731" lon="10.0370791"><ele>650.0</ele><time>2026-04-19T16:09:41.012Z</time></trkpt><trkpt lat="45.795037" lon="10.0370427"><ele>643.6666666666667</ele><time>2026-04-19T16:09:43.011Z</time></trkpt><trkpt lat="45.7950761" lon="10.0369253"><ele>637.3333333333334</ele><time>2026-04-19T16:09:46.012Z</time></trkpt><trkpt lat="45.7950611" lon="10.0368138"><ele>631.0</ele><time>2026-04-19T16:09:48.012Z</time></trkpt><trkpt lat="45.7950138" lon="10.0367426"><ele>631.0</ele><time>2026-04-19T16:09:50.011Z</time></trkpt><trkpt lat="45.7949591" lon="10.0366614"><ele>631.0</ele><time>2026-04-19T16:09:53.012Z</time></trkpt><trkpt lat="45.7949042" lon="10.0366059"><ele>631.0</ele><time>2026-04-19T16:09:55.012Z</time></trkpt><trkpt lat="45.794852" lon="10.0365474"><ele>631.0</ele><time>2026-04-19T16:09:57.011Z</time></trkpt><trkpt lat="45.7947984" lon="10.0364976"><ele>631.0</ele><time>2026-04-19T16:09:58.012Z</time></trkpt><trkpt lat="45.7947291" lon="10.0364356"><ele>631.0</ele><time>2026-04-19T16:10:00.012Z</time></trkpt><trkpt lat="45.7946391" lon="10.0363926"><ele>633.0</ele><time>2026-04-19T16:10:02.012Z</time></trkpt><trkpt lat="45.7945667" lon="10.0363419"><ele>635.0</ele><time>2026-04-19T16:10:04.012Z</time></trkpt><trkpt lat="45.7945073" lon="10.036262"><ele>637.0</ele><time>2026-04-19T16:10:06.011Z</time></trkpt><trkpt lat="45.7944515" lon="10.0361588"><ele>639.0</ele><time>2026-04-19T16:10:08.012Z</time></trkpt><trkpt lat="45.7943872" lon="10.0360634"><ele>641.0</ele><time>2026-04-19T16:10:10.012Z</time></trkpt><trkpt lat="45.7943367" lon="10.0359676"><ele>643.0</ele><time>2026-04-19T16:10:12.011Z</time></trkpt><trkpt lat="45.7943115" lon="10.0358502"><ele>639.4</ele><time>2026-04-19T16:10:14.011Z</time></trkpt><trkpt lat="45.794271" lon="10.035781"><ele>635.8</ele><time>2026-04-19T16:10:15.011Z</time></trkpt><trkpt lat="45.7941994" lon="10.0356893"><ele>632.2</ele><time>2026-04-19T16:10:17.011Z</time></trkpt><trkpt lat="45.7941512" lon="10.0356243"><ele>628.6</ele><time>2026-04-19T16:10:18.012Z</time></trkpt><trkpt lat="45.7940777" lon="10.0355072"><ele>625.0</ele><time>2026-04-19T16:10:20.012Z</time></trkpt><trkpt lat="45.7939821" lon="10.0353994"><ele>625.0</ele><time>2026-04-19T16:10:22.012Z</time></trkpt><trkpt lat="45.7939096" lon="10.0352846"><ele>625.0</ele><time>2026-04-19T16:10:24.012Z</time></trkpt><trkpt lat="45.7938394" lon="10.0351416"><ele>625.0</ele><time>2026-04-19T16:10:26.012Z</time></trkpt><trkpt lat="45.7937675" lon="10.0350165"><ele>625.0</ele><time>2026-04-19T16:10:28.012Z</time></trkpt><trkpt lat="45.79367" lon="10.0349021"><ele>625.4</ele><time>2026-04-19T16:10:30.012Z</time></trkpt><trkpt lat="45.7935577" lon="10.0347993"><ele>625.8</ele><time>2026-04-19T16:10:32.011Z</time></trkpt><trkpt lat="45.7934673" lon="10.034678"><ele>626.2</ele><time>2026-04-19T16:10:34.012Z</time></trkpt><trkpt lat="45.7933999" lon="10.0345507"><ele>626.6</ele><time>2026-04-19T16:10:36.011Z</time></trkpt><trkpt lat="45.7933596" lon="10.0344785"><ele>627.0</ele><time>2026-04-19T16:10:37.011Z</time></trkpt><trkpt lat="45.7932863" lon="10.0343707"><ele>625.3333333333334</ele><time>2026-04-19T16:10:39.012Z</time></trkpt><trkpt lat="45.7932284" lon="10.0343193"><ele>623.6666666666666</ele><time>2026-04-19T16:10:40.012Z</time></trkpt><trkpt lat="45.7931642" lon="10.0342757"><ele>622.0</ele><time>2026-04-19T16:10:41.011Z</time></trkpt><trkpt lat="45.7930519" lon="10.0342148"><ele>620.3333333333333</ele><time>2026-04-19T16:10:43.012Z</time></trkpt><trkpt lat="45.7929857" lon="10.0342057"><ele>618.6666666666666</ele><time>2026-04-19T16:10:44.011Z</time></trkpt><trkpt lat="45.7928699" lon="10.0341834"><ele>617.0</ele><time>2026-04-19T16:10:46.012Z</time></trkpt><trkpt lat="45.7927568" lon="10.0341475"><ele>617.0</ele><time>2026-04-19T16:10:48.012Z</time></trkpt><trkpt lat="45.7926667" lon="10.0341483"><ele>617.0</ele><time>2026-04-19T16:10:50.012Z</time></trkpt><trkpt lat="45.7925947" lon="10.0341446"><ele>617.0</ele><time>2026-04-19T16:10:52.011Z</time></trkpt><trkpt lat="45.7925345" lon="10.0341809"><ele>617.0</ele><time>2026-04-19T16:11:03.011Z</time></trkpt><trkpt lat="45.792588" lon="10.0342752"><ele>617.0</ele><time>2026-04-19T16:11:05.011Z</time></trkpt><trkpt lat="45.7926458" lon="10.0344337"><ele>617.0</ele><time>2026-04-19T16:11:07.012Z</time></trkpt><trkpt lat="45.7926835" lon="10.0345522"><ele>617.0</ele><time>2026-04-19T16:11:08.011Z</time></trkpt><trkpt lat="45.792707" lon="10.0346548"><ele>617.0</ele><time>2026-04-19T16:11:09.012Z</time></trkpt><trkpt lat="45.7927315" lon="10.0347621"><ele>617.0</ele><time>2026-04-19T16:11:10.011Z</time></trkpt><trkpt lat="45.7927559" lon="10.0348774"><ele>617.0</ele><time>2026-04-19T16:11:11.011Z</time></trkpt><trkpt lat="45.7927709" lon="10.0349803"><ele>617.0</ele><time>2026-04-19T16:11:12.012Z</time></trkpt><trkpt lat="45.7927848" lon="10.0350795"><ele>617.0</ele><time>2026-04-19T16:11:13.012Z</time></trkpt><trkpt lat="45.7927988" lon="10.0351773"><ele>616.6666666666666</ele><time>2026-04-19T16:11:14.012Z</time></trkpt><trkpt lat="45.7928176" lon="10.0352764"><ele>616.3333333333333</ele><time>2026-04-19T16:11:15.012Z</time></trkpt><trkpt lat="45.7928437" lon="10.0353651"><ele>616.0</ele><time>2026-04-19T16:11:16.011Z</time></trkpt><trkpt lat="45.7929172" lon="10.0354627"><ele>615.6666666666666</ele><time>2026-04-19T16:11:18.012Z</time></trkpt><trkpt lat="45.7929635" lon="10.0355981"><ele>615.3333333333334</ele><time>2026-04-19T16:11:20.012Z</time></trkpt><trkpt lat="45.7929389" lon="10.0357289"><ele>615.0</ele><time>2026-04-19T16:11:22.011Z</time></trkpt><trkpt lat="45.792884" lon="10.0358679"><ele>614.3333333333334</ele><time>2026-04-19T16:11:24.012Z</time></trkpt><trkpt lat="45.7928663" lon="10.0359685"><ele>613.6666666666666</ele><time>2026-04-19T16:11:25.011Z</time></trkpt><trkpt lat="45.7928493" lon="10.0360731"><ele>613.0</ele><time>2026-04-19T16:11:26.011Z</time></trkpt><trkpt lat="45.7928263" lon="10.0362009"><ele>612.3333333333333</ele><time>2026-04-19T16:11:27.012Z</time></trkpt><trkpt lat="45.7927897" lon="10.0363154"><ele>611.6666666666666</ele><time>2026-04-19T16:11:28.012Z</time></trkpt><trkpt lat="45.7927545" lon="10.0364406"><ele>611.0</ele><time>2026-04-19T16:11:29.011Z</time></trkpt><trkpt lat="45.792713" lon="10.0365591"><ele>614.2</ele><time>2026-04-19T16:11:30.011Z</time></trkpt><trkpt lat="45.7926717" lon="10.0366927"><ele>617.4000000000001</ele><time>2026-04-19T16:11:31.011Z</time></trkpt><trkpt lat="45.7926416" lon="10.0368199"><ele>620.6</ele><time>2026-04-19T16:11:32.011Z</time></trkpt><trkpt lat="45.7926109" lon="10.0369466"><ele>623.8000000000001</ele><time>2026-04-19T16:11:33.012Z</time></trkpt><trkpt lat="45.7925838" lon="10.0370627"><ele>627.0</ele><time>2026-04-19T16:11:34.011Z</time></trkpt><trkpt lat="45.7925652" lon="10.0371949"><ele>627.0</ele><time>2026-04-19T16:11:35.012Z</time></trkpt><trkpt lat="45.792531" lon="10.0373054"><ele>627.0</ele><time>2026-04-19T16:11:36.011Z</time></trkpt><trkpt lat="45.7925231" lon="10.0374186"><ele>627.0</ele><time>2026-04-19T16:11:37.012Z</time></trkpt><trkpt lat="45.7925229" lon="10.0375145"><ele>627.0</ele><time>2026-04-19T16:11:38.012Z</time></trkpt><trkpt lat="45.7925163" lon="10.0376452"><ele>627.0</ele><time>2026-04-19T16:11:40.011Z</time></trkpt><trkpt lat="45.7925301" lon="10.037747"><ele>627.0</ele><time>2026-04-19T16:11:42.012Z</time></trkpt><trkpt lat="45.7925736" lon="10.0378558"><ele>627.0</ele><time>2026-04-19T16:11:44.012Z</time></trkpt><trkpt lat="45.7926303" lon="10.0379691"><ele>627.0</ele><time>2026-04-19T16:11:46.012Z</time></trkpt><trkpt lat="45.792684" lon="10.0380805"><ele>627.0</ele><time>2026-04-19T16:11:48.011Z</time></trkpt><trkpt lat="45.7926953" lon="10.0381968"><ele>627.0</ele><time>2026-04-19T16:11:50.012Z</time></trkpt><trkpt lat="45.7926789" lon="10.0383004"><ele>627.0</ele><time>2026-04-19T16:11:52.012Z</time></trkpt><trkpt lat="45.7926559" lon="10.038421"><ele>627.0</ele><time>2026-04-19T16:11:55.011Z</time></trkpt><trkpt lat="45.7926037" lon="10.0385356"><ele>626.8333333333334</ele><time>2026-04-19T16:11:58.012Z</time></trkpt><trkpt lat="45.7925545" lon="10.0386358"><ele>626.6666666666666</ele><time>2026-04-19T16:12:00.012Z</time></trkpt><trkpt lat="45.7924871" lon="10.0387722"><ele>626.5</ele><time>2026-04-19T16:12:02.012Z</time></trkpt><trkpt lat="45.7924621" lon="10.0388641"><ele>626.3333333333333</ele><time>2026-04-19T16:12:03.011Z</time></trkpt><trkpt lat="45.7924267" lon="10.0389449"><ele>626.1666666666666</ele><time>2026-04-19T16:12:04.012Z</time></trkpt><trkpt lat="45.7923936" lon="10.0390335"><ele>626.0</ele><time>2026-04-19T16:12:05.012Z</time></trkpt><trkpt lat="45.7923545" lon="10.0391213"><ele>625.6666666666666</ele><time>2026-04-19T16:12:06.012Z</time></trkpt><trkpt lat="45.7923114" lon="10.0392234"><ele>625.3333333333333</ele><time>2026-04-19T16:12:07.011Z</time></trkpt><trkpt lat="45.792279" lon="10.0393433"><ele>625.0</ele><time>2026-04-19T16:12:08.012Z</time></trkpt><trkpt lat="45.792252" lon="10.039456"><ele>624.6666666666666</ele><time>2026-04-19T16:12:09.011Z</time></trkpt><trkpt lat="45.792218" lon="10.0395697"><ele>624.3333333333334</ele><time>2026-04-19T16:12:10.011Z</time></trkpt><trkpt lat="45.7921865" lon="10.0396815"><ele>624.0</ele><time>2026-04-19T16:12:11.012Z</time></trkpt><trkpt lat="45.7921581" lon="10.0397874"><ele>624.0</ele><time>2026-04-19T16:12:12.011Z</time></trkpt><trkpt lat="45.7921323" lon="10.0398839"><ele>624.0</ele><time>2026-04-19T16:12:13.011Z</time></trkpt><trkpt lat="45.7921125" lon="10.0399985"><ele>624.0</ele><time>2026-04-19T16:12:14.012Z</time></trkpt><trkpt lat="45.7921086" lon="10.0401024"><ele>624.0</ele><time>2026-04-19T16:12:15.012Z</time></trkpt><trkpt lat="45.7920837" lon="10.0402101"><ele>624.0</ele><time>2026-04-19T16:12:16.012Z</time></trkpt><trkpt lat="45.7920609" lon="10.0403299"><ele>624.0</ele><time>2026-04-19T16:12:17.012Z</time></trkpt><trkpt lat="45.7920339" lon="10.0404541"><ele>623.3333333333334</ele><time>2026-04-19T16:12:18.011Z</time></trkpt><trkpt lat="45.7920128" lon="10.0405714"><ele>622.6666666666666</ele><time>2026-04-19T16:12:19.012Z</time></trkpt><trkpt lat="45.7920033" lon="10.0406921"><ele>622.0</ele><time>2026-04-19T16:12:20.012Z</time></trkpt><trkpt lat="45.7919975" lon="10.0408105"><ele>621.3333333333333</ele><time>2026-04-19T16:12:21.012Z</time></trkpt><trkpt lat="45.7919819" lon="10.0409469"><ele>620.6666666666666</ele><time>2026-04-19T16:12:22.012Z</time></trkpt><trkpt lat="45.7919619" lon="10.0410729"><ele>620.0</ele><time>2026-04-19T16:12:23.012Z</time></trkpt><trkpt lat="45.7919556" lon="10.0411857"><ele>619.0</ele><time>2026-04-19T16:12:24.012Z</time></trkpt><trkpt lat="45.7919337" lon="10.0412901"><ele>618.0</ele><time>2026-04-19T16:12:25.012Z</time></trkpt><trkpt lat="45.791902" lon="10.0413722"><ele>617.0</ele><time>2026-04-19T16:12:26.012Z</time></trkpt><trkpt lat="45.7918839" lon="10.0414668"><ele>616.0</ele><time>2026-04-19T16:12:27.012Z</time></trkpt><trkpt lat="45.7918608" lon="10.0416473"><ele>615.0</ele><time>2026-04-19T16:12:29.012Z</time></trkpt><trkpt lat="45.7918151" lon="10.0417437"><ele>614.0</ele><time>2026-04-19T16:12:30.011Z</time></trkpt><trkpt lat="45.7917713" lon="10.0418399"><ele>620.2</ele><time>2026-04-19T16:12:31.012Z</time></trkpt><trkpt lat="45.7917118" lon="10.041919"><ele>626.4</ele><time>2026-04-19T16:12:32.012Z</time></trkpt><trkpt lat="45.7916618" lon="10.0420097"><ele>632.6</ele><time>2026-04-19T16:12:33.012Z</time></trkpt><trkpt lat="45.7916074" lon="10.0420968"><ele>638.8</ele><time>2026-04-19T16:12:34.011Z</time></trkpt><trkpt lat="45.7915492" lon="10.042244"><ele>645.0</ele><time>2026-04-19T16:12:36.011Z</time></trkpt><trkpt lat="45.7914833" lon="10.0423604"><ele>645.0</ele><time>2026-04-19T16:12:38.012Z</time></trkpt><trkpt lat="45.7914302" lon="10.0424205"><ele>645.0</ele><time>2026-04-19T16:12:40.011Z</time></trkpt><trkpt lat="45.7913708" lon="10.0425232"><ele>645.0</ele><time>2026-04-19T16:13:37.012Z</time></trkpt><trkpt lat="45.7913015" lon="10.0426039"><ele>645.0</ele><time>2026-04-19T16:13:40.012Z</time></trkpt><trkpt lat="45.7912212" lon="10.0426885"><ele>645.0</ele><time>2026-04-19T16:13:42.012Z</time></trkpt><trkpt lat="45.7911208" lon="10.04282"><ele>643.6666666666666</ele><time>2026-04-19T16:13:44.011Z</time></trkpt><trkpt lat="45.791092" lon="10.0429169"><ele>642.3333333333334</ele><time>2026-04-19T16:13:45.012Z</time></trkpt><trkpt lat="45.7910391" lon="10.0430702"><ele>641.0</ele><time>2026-04-19T16:13:47.012Z</time></trkpt><trkpt lat="45.7910115" lon="10.0431516"><ele>639.6666666666667</ele><time>2026-04-19T16:13:48.012Z</time></trkpt><trkpt lat="45.7909754" lon="10.0432625"><ele>638.3333333333334</ele><time>2026-04-19T16:13:49.012Z</time></trkpt><trkpt lat="45.7909397" lon="10.0433732"><ele>637.0</ele><time>2026-04-19T16:13:51.012Z</time></trkpt><trkpt lat="45.7909175" lon="10.043469"><ele>643.0</ele><time>2026-04-19T16:13:53.012Z</time></trkpt><trkpt lat="45.7909102" lon="10.043589"><ele>649.0</ele><time>2026-04-19T16:13:55.012Z</time></trkpt><trkpt lat="45.790904" lon="10.0436834"><ele>655.0</ele><time>2026-04-19T16:13:57.012Z</time></trkpt><trkpt lat="45.7909068" lon="10.0437998"><ele>661.0</ele><time>2026-04-19T16:13:59.011Z</time></trkpt><trkpt lat="45.7909115" lon="10.0439214"><ele>667.0</ele><time>2026-04-19T16:14:01.012Z</time></trkpt><trkpt lat="45.7909043" lon="10.0440401"><ele>673.0</ele><time>2026-04-19T16:14:03.012Z</time></trkpt><trkpt lat="45.7908697" lon="10.0441228"><ele>672.8333333333334</ele><time>2026-04-19T16:14:05.012Z</time></trkpt><trkpt lat="45.7908125" lon="10.044163"><ele>672.6666666666667</ele><time>2026-04-19T16:14:07.012Z</time></trkpt><trkpt lat="45.7907413" lon="10.0441691"><ele>672.5</ele><time>2026-04-19T16:14:09.012Z</time></trkpt><trkpt lat="45.7906478" lon="10.0441991"><ele>672.3333333333334</ele><time>2026-04-19T16:14:12.012Z</time></trkpt><trkpt lat="45.7905568" lon="10.0442097"><ele>672.1666666666666</ele><time>2026-04-19T16:14:15.012Z</time></trkpt><trkpt lat="45.7904777" lon="10.0441954"><ele>672.0</ele><time>2026-04-19T16:14:17.012Z</time></trkpt><trkpt lat="45.7903926" lon="10.0441922"><ele>672.0</ele><time>2026-04-19T16:14:19.012Z</time></trkpt><trkpt lat="45.7903104" lon="10.0441839"><ele>672.0</ele><time>2026-04-19T16:14:21.012Z</time></trkpt><trkpt lat="45.7902294" lon="10.0441675"><ele>672.0</ele><time>2026-04-19T16:14:23.012Z</time></trkpt><trkpt lat="45.7901552" lon="10.0441518"><ele>672.0</ele><time>2026-04-19T16:14:25.012Z</time></trkpt><trkpt lat="45.7900881" lon="10.0441329"><ele>672.0</ele><time>2026-04-19T16:14:27.012Z</time></trkpt><trkpt lat="45.7900226" lon="10.0441392"><ele>672.0</ele><time>2026-04-19T16:14:29.011Z</time></trkpt><trkpt lat="45.7899532" lon="10.044148"><ele>672.0</ele><time>2026-04-19T16:14:31.012Z</time></trkpt><trkpt lat="45.7898759" lon="10.0441484"><ele>672.0</ele><time>2026-04-19T16:14:33.012Z</time></trkpt><trkpt lat="45.7897796" lon="10.0441607"><ele>672.0</ele><time>2026-04-19T16:14:35.012Z</time></trkpt><trkpt lat="45.7896914" lon="10.0441648"><ele>672.0</ele><time>2026-04-19T16:14:37.011Z</time></trkpt><trkpt lat="45.7896152" lon="10.0441429"><ele>672.0</ele><time>2026-04-19T16:14:39.011Z</time></trkpt><trkpt lat="45.7895479" lon="10.0441303"><ele>672.0</ele><time>2026-04-19T16:14:41.012Z</time></trkpt><trkpt lat="45.7894781" lon="10.0441738"><ele>672.0</ele><time>2026-04-19T16:14:43.011Z</time></trkpt><trkpt lat="45.7893967" lon="10.0442252"><ele>670.6666666666666</ele><time>2026-04-19T16:14:45.011Z</time></trkpt><trkpt lat="45.789332" lon="10.044215"><ele>669.3333333333334</ele><time>2026-04-19T16:14:46.012Z</time></trkpt><trkpt lat="45.7892219" lon="10.0441858"><ele>668.0</ele><time>2026-04-19T16:14:48.011Z</time></trkpt><trkpt lat="45.7891239" lon="10.0441875"><ele>666.6666666666667</ele><time>2026-04-19T16:14:50.012Z</time></trkpt><trkpt lat="45.7890578" lon="10.0442509"><ele>665.3333333333334</ele><time>2026-04-19T16:14:52.012Z</time></trkpt><trkpt lat="45.788994" lon="10.0443132"><ele>664.0</ele><time>2026-04-19T16:14:54.011Z</time></trkpt><trkpt lat="45.7889142" lon="10.0444026"><ele>664.0</ele><time>2026-04-19T16:14:56.011Z</time></trkpt><trkpt lat="45.7888597" lon="10.044457"><ele>664.0</ele><time>2026-04-19T16:14:58.012Z</time></trkpt><trkpt lat="45.7887954" lon="10.0444883"><ele>664.0</ele><time>2026-04-19T16:15:01.012Z</time></trkpt><trkpt lat="45.7887301" lon="10.0445221"><ele>664.0</ele><time>2026-04-19T16:15:05.011Z</time></trkpt><trkpt lat="45.7886837" lon="10.0445867"><ele>664.0</ele><time>2026-04-19T16:16:00.011Z</time></trkpt><trkpt lat="45.7887324" lon="10.0445279"><ele>664.0</ele><time>2026-04-19T16:18:07.012Z</time></trkpt><trkpt lat="45.7888051" lon="10.0445288"><ele>664.0</ele><time>2026-04-19T16:18:10.012Z</time></trkpt><trkpt lat="45.7888328" lon="10.0446125"><ele>664.0</ele><time>2026-04-19T16:18:12.012Z</time></trkpt><trkpt lat="45.7888213" lon="10.044723"><ele>664.0</ele><time>2026-04-19T16:18:15.011Z</time></trkpt><trkpt lat="45.7888504" lon="10.0448173"><ele>664.0</ele><time>2026-04-19T16:18:17.011Z</time></trkpt><trkpt lat="45.7889058" lon="10.0449013"><ele>664.0</ele><time>2026-04-19T16:18:42.012Z</time></trkpt><trkpt lat="45.7888677" lon="10.0448029"><ele>664.0</ele><time>2026-04-19T16:24:33.012Z</time></trkpt><trkpt lat="45.7888462" lon="10.0447058"><ele>664.0</ele><time>2026-04-19T16:24:36.011Z</time></trkpt><trkpt lat="45.788839" lon="10.0445861"><ele>664.0</ele><time>2026-04-19T16:24:39.012Z</time></trkpt><trkpt lat="45.7888779" lon="10.0444679"><ele>664.0</ele><time>2026-04-19T16:24:42.012Z</time></trkpt><trkpt lat="45.7889266" lon="10.0443874"><ele>664.0</ele><time>2026-04-19T16:24:44.011Z</time></trkpt><trkpt lat="45.7889813" lon="10.0443114"><ele>664.0</ele><time>2026-04-19T16:24:46.012Z</time></trkpt><trkpt lat="45.789035" lon="10.0442267"><ele>664.0</ele><time>2026-04-19T16:24:48.012Z</time></trkpt><trkpt lat="45.7890992" lon="10.0441685"><ele>664.0</ele><time>2026-04-19T16:24:50.012Z</time></trkpt><trkpt lat="45.7891941" lon="10.0441558"><ele>664.0</ele><time>2026-04-19T16:24:52.012Z</time></trkpt><trkpt lat="45.7892849" lon="10.0441894"><ele>664.0</ele><time>2026-04-19T16:24:54.012Z</time></trkpt><trkpt lat="45.7893724" lon="10.0442186"><ele>664.0</ele><time>2026-04-19T16:24:56.012Z</time></trkpt><trkpt lat="45.7894539" lon="10.0441849"><ele>664.0</ele><time>2026-04-19T16:24:58.012Z</time></trkpt><trkpt lat="45.789517" lon="10.0441339"><ele>664.0</ele><time>2026-04-19T16:25:00.011Z</time></trkpt><trkpt lat="45.7895904" lon="10.0441153"><ele>664.0</ele><time>2026-04-19T16:25:02.012Z</time></trkpt><trkpt lat="45.7896599" lon="10.0441568"><ele>665.3333333333334</ele><time>2026-04-19T16:25:03.011Z</time></trkpt><trkpt lat="45.7897431" lon="10.0441705"><ele>666.6666666666667</ele><time>2026-04-19T16:25:05.012Z</time></trkpt><trkpt lat="45.7898226" lon="10.0441675"><ele>668.0</ele><time>2026-04-19T16:25:07.012Z</time></trkpt><trkpt lat="45.7899062" lon="10.044153"><ele>669.3333333333334</ele><time>2026-04-19T16:25:09.012Z</time></trkpt><trkpt lat="45.7899784" lon="10.0441407"><ele>670.6666666666666</ele><time>2026-04-19T16:25:11.012Z</time></trkpt><trkpt lat="45.7900485" lon="10.0441295"><ele>672.0</ele><time>2026-04-19T16:25:13.012Z</time></trkpt><trkpt lat="45.7901396" lon="10.0441621"><ele>672.0</ele><time>2026-04-19T16:25:16.012Z</time></trkpt><trkpt lat="45.7902288" lon="10.044177"><ele>672.0</ele><time>2026-04-19T16:25:19.012Z</time></trkpt><trkpt lat="45.7903244" lon="10.0441749"><ele>672.0</ele><time>2026-04-19T16:25:22.012Z</time></trkpt><trkpt lat="45.790412" lon="10.0441837"><ele>672.0</ele><time>2026-04-19T16:25:25.012Z</time></trkpt><trkpt lat="45.7904936" lon="10.0442039"><ele>672.0</ele><time>2026-04-19T16:25:28.012Z</time></trkpt><trkpt lat="45.7905677" lon="10.0442112"><ele>672.0</ele><time>2026-04-19T16:25:31.012Z</time></trkpt><trkpt lat="45.790654" lon="10.0441855"><ele>672.0</ele><time>2026-04-19T16:25:33.011Z</time></trkpt><trkpt lat="45.790773" lon="10.0441737"><ele>672.0</ele><time>2026-04-19T16:25:35.011Z</time></trkpt><trkpt lat="45.7908638" lon="10.0441186"><ele>672.0</ele><time>2026-04-19T16:25:37.012Z</time></trkpt><trkpt lat="45.7909193" lon="10.0440297"><ele>672.0</ele><time>2026-04-19T16:25:39.012Z</time></trkpt><trkpt lat="45.7909231" lon="10.0439214"><ele>672.0</ele><time>2026-04-19T16:25:41.012Z</time></trkpt><trkpt lat="45.7909154" lon="10.0438103"><ele>672.0</ele><time>2026-04-19T16:25:44.012Z</time></trkpt><trkpt lat="45.7909114" lon="10.0437185"><ele>672.0</ele><time>2026-04-19T16:25:46.012Z</time></trkpt><trkpt lat="45.7909188" lon="10.0436114"><ele>672.0</ele><time>2026-04-19T16:25:48.011Z</time></trkpt><trkpt lat="45.7909332" lon="10.0435106"><ele>672.0</ele><time>2026-04-19T16:25:50.011Z</time></trkpt><trkpt lat="45.7909284" lon="10.0434056"><ele>672.0</ele><time>2026-04-19T16:25:53.011Z</time></trkpt><trkpt lat="45.7909278" lon="10.0433047"><ele>672.0</ele><time>2026-04-19T16:25:55.012Z</time></trkpt><trkpt lat="45.7909707" lon="10.0431945"><ele>672.0</ele><time>2026-04-19T16:25:57.011Z</time></trkpt><trkpt lat="45.7910242" lon="10.0431032"><ele>667.0</ele><time>2026-04-19T16:25:59.012Z</time></trkpt><trkpt lat="45.7910573" lon="10.0430255"><ele>662.0</ele><time>2026-04-19T16:26:01.011Z</time></trkpt><trkpt lat="45.7910896" lon="10.0429429"><ele>657.0</ele><time>2026-04-19T16:26:37.011Z</time></trkpt><trkpt lat="45.7911039" lon="10.0428532"><ele>652.0</ele><time>2026-04-19T16:26:43.012Z</time></trkpt><trkpt lat="45.7911514" lon="10.0427487"><ele>647.0</ele><time>2026-04-19T16:26:46.011Z</time></trkpt><trkpt lat="45.7912044" lon="10.0426823"><ele>642.0</ele><time>2026-04-19T16:26:48.012Z</time></trkpt><trkpt lat="45.7912761" lon="10.0426008"><ele>637.0</ele><time>2026-04-19T16:26:51.012Z</time></trkpt><trkpt lat="45.7913374" lon="10.0425338"><ele>638.3333333333334</ele><time>2026-04-19T16:26:53.011Z</time></trkpt><trkpt lat="45.7913961" lon="10.042451"><ele>639.6666666666667</ele><time>2026-04-19T16:26:55.012Z</time></trkpt><trkpt lat="45.7914515" lon="10.0423755"><ele>641.0</ele><time>2026-04-19T16:26:57.012Z</time></trkpt><trkpt lat="45.7915073" lon="10.042294"><ele>642.3333333333334</ele><time>2026-04-19T16:26:59.012Z</time></trkpt><trkpt lat="45.7915696" lon="10.0421986"><ele>643.6666666666666</ele><time>2026-04-19T16:27:01.012Z</time></trkpt><trkpt lat="45.7916261" lon="10.0420773"><ele>645.0</ele><time>2026-04-19T16:27:03.012Z</time></trkpt><trkpt lat="45.7916941" lon="10.0419564"><ele>645.0</ele><time>2026-04-19T16:27:05.012Z</time></trkpt><trkpt lat="45.7917481" lon="10.0418568"><ele>645.0</ele><time>2026-04-19T16:27:07.012Z</time></trkpt><trkpt lat="45.7918044" lon="10.0417369"><ele>645.0</ele><time>2026-04-19T16:27:09.012Z</time></trkpt><trkpt lat="45.7918532" lon="10.0415976"><ele>645.0</ele><time>2026-04-19T16:27:11.012Z</time></trkpt><trkpt lat="45.7919089" lon="10.0414536"><ele>645.0</ele><time>2026-04-19T16:27:13.012Z</time></trkpt><trkpt lat="45.7919458" lon="10.0413123"><ele>638.75</ele><time>2026-04-19T16:27:15.012Z</time></trkpt><trkpt lat="45.7919625" lon="10.0411425"><ele>632.5</ele><time>2026-04-19T16:27:17.012Z</time></trkpt><trkpt lat="45.7919873" lon="10.0409876"><ele>626.25</ele><time>2026-04-19T16:27:19.011Z</time></trkpt><trkpt lat="45.7920032" lon="10.0408387"><ele>620.0</ele><time>2026-04-19T16:27:21.012Z</time></trkpt><trkpt lat="45.7920155" lon="10.0406724"><ele>620.0</ele><time>2026-04-19T16:27:23.012Z</time></trkpt><trkpt lat="45.7920302" lon="10.0405835"><ele>620.0</ele><time>2026-04-19T16:27:24.012Z</time></trkpt><trkpt lat="45.7920547" lon="10.0404586"><ele>620.0</ele><time>2026-04-19T16:27:26.011Z</time></trkpt><trkpt lat="45.7920926" lon="10.0403464"><ele>620.0</ele><time>2026-04-19T16:27:28.011Z</time></trkpt><trkpt lat="45.7921028" lon="10.040233"><ele>620.0</ele><time>2026-04-19T16:27:30.012Z</time></trkpt><trkpt lat="45.7920964" lon="10.0401089"><ele>620.0</ele><time>2026-04-19T16:27:32.011Z</time></trkpt><trkpt lat="45.7921025" lon="10.0399478"><ele>620.8</ele><time>2026-04-19T16:27:34.012Z</time></trkpt><trkpt lat="45.7921231" lon="10.0398098"><ele>621.6</ele><time>2026-04-19T16:27:36.011Z</time></trkpt><trkpt lat="45.7921657" lon="10.0396989"><ele>622.4</ele><time>2026-04-19T16:27:38.012Z</time></trkpt><trkpt lat="45.792207" lon="10.0395621"><ele>623.2</ele><time>2026-04-19T16:27:40.011Z</time></trkpt><trkpt lat="45.7922435" lon="10.0394093"><ele>624.0</ele><time>2026-04-19T16:27:42.012Z</time></trkpt><trkpt lat="45.7922881" lon="10.0392742"><ele>624.0</ele><time>2026-04-19T16:27:44.012Z</time></trkpt><trkpt lat="45.7923368" lon="10.03915"><ele>624.0</ele><time>2026-04-19T16:27:46.011Z</time></trkpt><trkpt lat="45.7923828" lon="10.0390222"><ele>624.0</ele><time>2026-04-19T16:27:48.012Z</time></trkpt><trkpt lat="45.7924256" lon="10.038892"><ele>624.0</ele><time>2026-04-19T16:27:50.012Z</time></trkpt><trkpt lat="45.7924663" lon="10.0387737"><ele>624.0</ele><time>2026-04-19T16:27:52.011Z</time></trkpt><trkpt lat="45.7925181" lon="10.0386768"><ele>624.4</ele><time>2026-04-19T16:27:54.012Z</time></trkpt><trkpt lat="45.7925767" lon="10.038583"><ele>624.8</ele><time>2026-04-19T16:27:56.012Z</time></trkpt><trkpt lat="45.7926376" lon="10.0384954"><ele>625.2</ele><time>2026-04-19T16:27:58.012Z</time></trkpt><trkpt lat="45.7926966" lon="10.0383793"><ele>625.6</ele><time>2026-04-19T16:28:00.011Z</time></trkpt><trkpt lat="45.7927188" lon="10.0382457"><ele>626.0</ele><time>2026-04-19T16:28:02.011Z</time></trkpt><trkpt lat="45.79272" lon="10.0381204"><ele>626.2</ele><time>2026-04-19T16:28:04.012Z</time></trkpt><trkpt lat="45.7926705" lon="10.0380224"><ele>626.4000000000001</ele><time>2026-04-19T16:28:06.012Z</time></trkpt><trkpt lat="45.792612" lon="10.0379019"><ele>626.6</ele><time>2026-04-19T16:28:08.012Z</time></trkpt><trkpt lat="45.7925606" lon="10.0377803"><ele>626.8000000000001</ele><time>2026-04-19T16:28:10.012Z</time></trkpt><trkpt lat="45.792517" lon="10.0376608"><ele>627.0</ele><time>2026-04-19T16:28:12.011Z</time></trkpt><trkpt lat="45.7924977" lon="10.0375501"><ele>627.0</ele><time>2026-04-19T16:28:14.012Z</time></trkpt><trkpt lat="45.792491" lon="10.0374254"><ele>627.0</ele><time>2026-04-19T16:28:16.012Z</time></trkpt><trkpt lat="45.7925026" lon="10.0372877"><ele>627.0</ele><time>2026-04-19T16:28:18.012Z</time></trkpt><trkpt lat="45.7925305" lon="10.0371574"><ele>627.0</ele><time>2026-04-19T16:28:20.012Z</time></trkpt><trkpt lat="45.7925523" lon="10.0370725"><ele>627.0</ele><time>2026-04-19T16:28:21.011Z</time></trkpt><trkpt lat="45.7925814" lon="10.0369136"><ele>627.0</ele><time>2026-04-19T16:28:23.012Z</time></trkpt><trkpt lat="45.7925991" lon="10.0368243"><ele>627.0</ele><time>2026-04-19T16:28:24.011Z</time></trkpt><trkpt lat="45.7926345" lon="10.0367479"><ele>627.0</ele><time>2026-04-19T16:28:25.011Z</time></trkpt><trkpt lat="45.7926862" lon="10.0366063"><ele>627.0</ele><time>2026-04-19T16:28:27.012Z</time></trkpt><trkpt lat="45.792722" lon="10.0364509"><ele>627.0</ele><time>2026-04-19T16:28:29.012Z</time></trkpt><trkpt lat="45.7927721" lon="10.0363133"><ele>624.6</ele><time>2026-04-19T16:28:31.012Z</time></trkpt><trkpt lat="45.7928246" lon="10.0361569"><ele>622.2</ele><time>2026-04-19T16:28:33.012Z</time></trkpt><trkpt lat="45.7928556" lon="10.0360082"><ele>619.8</ele><time>2026-04-19T16:28:35.011Z</time></trkpt><trkpt lat="45.7928929" lon="10.0358674"><ele>617.4</ele><time>2026-04-19T16:28:37.012Z</time></trkpt><trkpt lat="45.7929295" lon="10.0357791"><ele>615.0</ele><time>2026-04-19T16:28:38.012Z</time></trkpt><trkpt lat="45.792981" lon="10.0356486"><ele>615.0</ele><time>2026-04-19T16:28:40.012Z</time></trkpt><trkpt lat="45.7929827" lon="10.0355483"><ele>615.0</ele><time>2026-04-19T16:28:42.011Z</time></trkpt><trkpt lat="45.7930561" lon="10.0355534"><ele>615.0</ele><time>2026-04-19T16:28:45.012Z</time></trkpt><trkpt lat="45.7930834" lon="10.0357009"><ele>615.0</ele><time>2026-04-19T16:28:47.012Z</time></trkpt><trkpt lat="45.7930876" lon="10.0357935"><ele>615.0</ele><time>2026-04-19T16:28:48.011Z</time></trkpt><trkpt lat="45.7930864" lon="10.0358941"><ele>615.0</ele><time>2026-04-19T16:28:49.012Z</time></trkpt><trkpt lat="45.7930807" lon="10.035998"><ele>614.3333333333334</ele><time>2026-04-19T16:28:50.012Z</time></trkpt><trkpt lat="45.7930791" lon="10.0361181"><ele>613.6666666666666</ele><time>2026-04-19T16:28:51.011Z</time></trkpt><trkpt lat="45.7930831" lon="10.0362396"><ele>613.0</ele><time>2026-04-19T16:28:52.012Z</time></trkpt><trkpt lat="45.7931102" lon="10.036355"><ele>612.3333333333333</ele><time>2026-04-19T16:28:53.012Z</time></trkpt><trkpt lat="45.7931388" lon="10.0364651"><ele>611.6666666666666</ele><time>2026-04-19T16:28:54.011Z</time></trkpt><trkpt lat="45.793176" lon="10.0365757"><ele>611.0</ele><time>2026-04-19T16:28:55.011Z</time></trkpt><trkpt lat="45.7932258" lon="10.0366966"><ele>610.6</ele><time>2026-04-19T16:28:56.012Z</time></trkpt><trkpt lat="45.7932756" lon="10.0368105"><ele>610.2</ele><time>2026-04-19T16:28:57.011Z</time></trkpt><trkpt lat="45.7933342" lon="10.03692"><ele>609.8</ele><time>2026-04-19T16:28:58.012Z</time></trkpt><trkpt lat="45.7933965" lon="10.0370292"><ele>609.4</ele><time>2026-04-19T16:28:59.011Z</time></trkpt><trkpt lat="45.7934563" lon="10.0371365"><ele>609.0</ele><time>2026-04-19T16:29:00.011Z</time></trkpt><trkpt lat="45.7935112" lon="10.0372521"><ele>609.6</ele><time>2026-04-19T16:29:01.012Z</time></trkpt><trkpt lat="45.793567" lon="10.0373618"><ele>610.2</ele><time>2026-04-19T16:29:02.012Z</time></trkpt><trkpt lat="45.7936196" lon="10.0374723"><ele>610.8000000000001</ele><time>2026-04-19T16:29:03.012Z</time></trkpt><trkpt lat="45.7936647" lon="10.0375829"><ele>611.4</ele><time>2026-04-19T16:29:04.011Z</time></trkpt><trkpt lat="45.7937082" lon="10.0376936"><ele>612.0</ele><time>2026-04-19T16:29:05.012Z</time></trkpt><trkpt lat="45.7937543" lon="10.0378087"><ele>612.0</ele><time>2026-04-19T16:29:06.012Z</time></trkpt><trkpt lat="45.7938089" lon="10.0379223"><ele>612.0</ele><time>2026-04-19T16:29:07.012Z</time></trkpt><trkpt lat="45.7938632" lon="10.0380462"><ele>612.0</ele><time>2026-04-19T16:29:08.012Z</time></trkpt><trkpt lat="45.7939094" lon="10.0381842"><ele>612.0</ele><time>2026-04-19T16:29:09.011Z</time></trkpt><trkpt lat="45.7939535" lon="10.0383263"><ele>612.0</ele><time>2026-04-19T16:29:10.011Z</time></trkpt><trkpt lat="45.7939932" lon="10.0384718"><ele>611.4</ele><time>2026-04-19T16:29:11.012Z</time></trkpt><trkpt lat="45.7940409" lon="10.0386163"><ele>610.8000000000001</ele><time>2026-04-19T16:29:12.011Z</time></trkpt><trkpt lat="45.7940915" lon="10.0387643"><ele>610.2</ele><time>2026-04-19T16:29:13.011Z</time></trkpt><trkpt lat="45.7941457" lon="10.0388986"><ele>609.6</ele><time>2026-04-19T16:29:14.011Z</time></trkpt><trkpt lat="45.794209" lon="10.0390267"><ele>609.0</ele><time>2026-04-19T16:29:15.011Z</time></trkpt><trkpt lat="45.7942797" lon="10.0391563"><ele>609.5</ele><time>2026-04-19T16:29:16.011Z</time></trkpt><trkpt lat="45.7943396" lon="10.0392942"><ele>610.0</ele><time>2026-04-19T16:29:17.012Z</time></trkpt><trkpt lat="45.7943973" lon="10.0394422"><ele>610.5</ele><time>2026-04-19T16:29:18.011Z</time></trkpt><trkpt lat="45.7944478" lon="10.039584"><ele>611.0</ele><time>2026-04-19T16:29:19.011Z</time></trkpt><trkpt lat="45.7944908" lon="10.0397318"><ele>611.0</ele><time>2026-04-19T16:29:20.012Z</time></trkpt><trkpt lat="45.7945321" lon="10.0398768"><ele>611.0</ele><time>2026-04-19T16:29:21.011Z</time></trkpt><trkpt lat="45.7945726" lon="10.0400301"><ele>611.0</ele><time>2026-04-19T16:29:22.012Z</time></trkpt><trkpt lat="45.7946174" lon="10.0401866"><ele>611.0</ele><time>2026-04-19T16:29:23.011Z</time></trkpt><trkpt lat="45.7946577" lon="10.0403332"><ele>609.75</ele><time>2026-04-19T16:29:24.011Z</time></trkpt><trkpt lat="45.7947081" lon="10.0404726"><ele>608.5</ele><time>2026-04-19T16:29:25.012Z</time></trkpt><trkpt lat="45.7947622" lon="10.0406108"><ele>607.25</ele><time>2026-04-19T16:29:26.012Z</time></trkpt><trkpt lat="45.7948241" lon="10.0407517"><ele>606.0</ele><time>2026-04-19T16:29:27.011Z</time></trkpt><trkpt lat="45.7948903" lon="10.040892"><ele>604.0</ele><time>2026-04-19T16:29:28.012Z</time></trkpt><trkpt lat="45.7949615" lon="10.0410275"><ele>602.0</ele><time>2026-04-19T16:29:29.011Z</time></trkpt><trkpt lat="45.7950374" lon="10.0411615"><ele>600.0</ele><time>2026-04-19T16:29:30.012Z</time></trkpt><trkpt lat="45.7951095" lon="10.0412949"><ele>598.0</ele><time>2026-04-19T16:29:31.012Z</time></trkpt><trkpt lat="45.7951878" lon="10.0414245"><ele>598.5</ele><time>2026-04-19T16:29:32.012Z</time></trkpt><trkpt lat="45.7952665" lon="10.0415518"><ele>599.0</ele><time>2026-04-19T16:29:33.012Z</time></trkpt><trkpt lat="45.7953482" lon="10.0416791"><ele>599.5</ele><time>2026-04-19T16:29:34.011Z</time></trkpt><trkpt lat="45.7954302" lon="10.0417994"><ele>600.0</ele><time>2026-04-19T16:29:35.012Z</time></trkpt><trkpt lat="45.7954964" lon="10.041913"><ele>600.0</ele><time>2026-04-19T16:29:36.012Z</time></trkpt><trkpt lat="45.7955563" lon="10.0420224"><ele>600.0</ele><time>2026-04-19T16:29:37.012Z</time></trkpt><trkpt lat="45.7956251" lon="10.0421133"><ele>600.0</ele><time>2026-04-19T16:29:38.012Z</time></trkpt><trkpt lat="45.795693" lon="10.0421714"><ele>600.0</ele><time>2026-04-19T16:29:39.012Z</time></trkpt><trkpt lat="45.7957759" lon="10.0422017"><ele>600.0</ele><time>2026-04-19T16:29:40.012Z</time></trkpt><trkpt lat="45.7958425" lon="10.0422151"><ele>600.0</ele><time>2026-04-19T16:29:41.011Z</time></trkpt><trkpt lat="45.7959072" lon="10.0422316"><ele>600.0</ele><time>2026-04-19T16:29:42.012Z</time></trkpt><trkpt lat="45.7959755" lon="10.0422662"><ele>600.0</ele><time>2026-04-19T16:29:43.011Z</time></trkpt><trkpt lat="45.7960397" lon="10.0423362"><ele>600.0</ele><time>2026-04-19T16:29:44.012Z</time></trkpt><trkpt lat="45.7960932" lon="10.0424375"><ele>600.0</ele><time>2026-04-19T16:29:45.012Z</time></trkpt><trkpt lat="45.7961349" lon="10.0425385"><ele>600.0</ele><time>2026-04-19T16:29:46.011Z</time></trkpt><trkpt lat="45.7961582" lon="10.0426419"><ele>600.0</ele><time>2026-04-19T16:29:47.011Z</time></trkpt><trkpt lat="45.7961587" lon="10.0427371"><ele>600.4</ele><time>2026-04-19T16:29:48.012Z</time></trkpt><trkpt lat="45.7961403" lon="10.042881"><ele>600.8</ele><time>2026-04-19T16:29:50.012Z</time></trkpt><trkpt lat="45.7961661" lon="10.0430401"><ele>601.2</ele><time>2026-04-19T16:29:52.011Z</time></trkpt><trkpt lat="45.7961931" lon="10.0431272"><ele>601.6</ele><time>2026-04-19T16:29:53.012Z</time></trkpt><trkpt lat="45.7962527" lon="10.0432381"><ele>602.0</ele><time>2026-04-19T16:29:54.012Z</time></trkpt><trkpt lat="45.7963064" lon="10.0433581"><ele>600.0</ele><time>2026-04-19T16:29:55.011Z</time></trkpt><trkpt lat="45.7963626" lon="10.0434851"><ele>598.0</ele><time>2026-04-19T16:29:56.012Z</time></trkpt><trkpt lat="45.7964127" lon="10.0436108"><ele>596.0</ele><time>2026-04-19T16:29:57.012Z</time></trkpt><trkpt lat="45.7964603" lon="10.0437348"><ele>594.0</ele><time>2026-04-19T16:29:58.012Z</time></trkpt><trkpt lat="45.796511" lon="10.0438514"><ele>592.0</ele><time>2026-04-19T16:29:59.011Z</time></trkpt><trkpt lat="45.7965685" lon="10.0439507"><ele>592.0</ele><time>2026-04-19T16:30:00.012Z</time></trkpt><trkpt lat="45.7966114" lon="10.0440454"><ele>592.0</ele><time>2026-04-19T16:30:01.012Z</time></trkpt><trkpt lat="45.7966253" lon="10.0441458"><ele>592.0</ele><time>2026-04-19T16:30:02.011Z</time></trkpt><trkpt lat="45.796613" lon="10.0442357"><ele>592.0</ele><time>2026-04-19T16:30:03.011Z</time></trkpt><trkpt lat="45.7966594" lon="10.0443703"><ele>592.0</ele><time>2026-04-19T16:30:05.012Z</time></trkpt><trkpt lat="45.7967187" lon="10.0444667"><ele>592.0</ele><time>2026-04-19T16:30:07.011Z</time></trkpt><trkpt lat="45.7967891" lon="10.044453"><ele>592.0</ele><time>2026-04-19T16:30:09.012Z</time></trkpt><trkpt lat="45.7967998" lon="10.0443615"><ele>592.0</ele><time>2026-04-19T16:30:11.011Z</time></trkpt><trkpt lat="45.7967426" lon="10.0442583"><ele>592.0</ele><time>2026-04-19T16:30:13.011Z</time></trkpt><trkpt lat="45.7966673" lon="10.0441168"><ele>592.0</ele><time>2026-04-19T16:30:15.011Z</time></trkpt><trkpt lat="45.7966252" lon="10.0440461"><ele>592.0</ele><time>2026-04-19T16:30:16.011Z</time></trkpt><trkpt lat="45.7965832" lon="10.0439696"><ele>592.0</ele><time>2026-04-19T16:30:17.011Z</time></trkpt><trkpt lat="45.7965399" lon="10.0439013"><ele>592.0</ele><time>2026-04-19T16:30:18.012Z</time></trkpt><trkpt lat="45.7964935" lon="10.0438171"><ele>592.0</ele><time>2026-04-19T16:30:19.012Z</time></trkpt><trkpt lat="45.7964482" lon="10.0437183"><ele>592.0</ele><time>2026-04-19T16:30:20.012Z</time></trkpt><trkpt lat="45.7964042" lon="10.0436008"><ele>592.0</ele><time>2026-04-19T16:30:21.012Z</time></trkpt><trkpt lat="45.7963626" lon="10.0434798"><ele>592.0</ele><time>2026-04-19T16:30:22.011Z</time></trkpt><trkpt lat="45.7963143" lon="10.0433531"><ele>592.0</ele><time>2026-04-19T16:30:23.011Z</time></trkpt><trkpt lat="45.7962598" lon="10.0432315"><ele>594.0</ele><time>2026-04-19T16:30:24.012Z</time></trkpt><trkpt lat="45.7962121" lon="10.043121"><ele>596.0</ele><time>2026-04-19T16:30:25.012Z</time></trkpt><trkpt lat="45.7961748" lon="10.0430232"><ele>598.0</ele><time>2026-04-19T16:30:26.012Z</time></trkpt><trkpt lat="45.7961505" lon="10.0429152"><ele>600.0</ele><time>2026-04-19T16:30:27.012Z</time></trkpt><trkpt lat="45.7961295" lon="10.0427846"><ele>602.0</ele><time>2026-04-19T16:30:28.012Z</time></trkpt><trkpt lat="45.7961008" lon="10.042634"><ele>602.0</ele><time>2026-04-19T16:30:29.012Z</time></trkpt><trkpt lat="45.7960765" lon="10.0424963"><ele>602.0</ele><time>2026-04-19T16:30:30.012Z</time></trkpt><trkpt lat="45.7960272" lon="10.0423952"><ele>602.0</ele><time>2026-04-19T16:30:31.012Z</time></trkpt><trkpt lat="45.7959756" lon="10.0423138"><ele>602.0</ele><time>2026-04-19T16:30:32.012Z</time></trkpt><trkpt lat="45.7959191" lon="10.0422682"><ele>602.0</ele><time>2026-04-19T16:30:33.012Z</time></trkpt><trkpt lat="45.7958187" lon="10.042222"><ele>602.0</ele><time>2026-04-19T16:30:35.011Z</time></trkpt><trkpt lat="45.795722" lon="10.0422136"><ele>601.6</ele><time>2026-04-19T16:30:37.011Z</time></trkpt><trkpt lat="45.7956163" lon="10.0421062"><ele>601.2</ele><time>2026-04-19T16:30:39.011Z</time></trkpt><trkpt lat="45.7955652" lon="10.0420122"><ele>600.8</ele><time>2026-04-19T16:30:40.011Z</time></trkpt><trkpt lat="45.7955171" lon="10.0419075"><ele>600.4</ele><time>2026-04-19T16:30:41.012Z</time></trkpt><trkpt lat="45.7954691" lon="10.0418134"><ele>600.0</ele><time>2026-04-19T16:30:42.012Z</time></trkpt><trkpt lat="45.7954138" lon="10.0417135"><ele>599.6</ele><time>2026-04-19T16:30:43.011Z</time></trkpt><trkpt lat="45.7953416" lon="10.0416215"><ele>599.2</ele><time>2026-04-19T16:30:44.012Z</time></trkpt><trkpt lat="45.7952651" lon="10.0415161"><ele>598.8</ele><time>2026-04-19T16:30:45.012Z</time></trkpt><trkpt lat="45.7951749" lon="10.0413986"><ele>598.4</ele><time>2026-04-19T16:30:46.011Z</time></trkpt><trkpt lat="45.7950985" lon="10.0412667"><ele>598.0</ele><time>2026-04-19T16:30:47.011Z</time></trkpt><trkpt lat="45.7950231" lon="10.041125"><ele>598.0</ele><time>2026-04-19T16:30:48.012Z</time></trkpt><trkpt lat="45.7949428" lon="10.0409743"><ele>598.0</ele><time>2026-04-19T16:30:49.012Z</time></trkpt><trkpt lat="45.7948633" lon="10.040819"><ele>598.0</ele><time>2026-04-19T16:30:50.012Z</time></trkpt><trkpt lat="45.7947895" lon="10.0406618"><ele>598.0</ele><time>2026-04-19T16:30:51.011Z</time></trkpt><trkpt lat="45.7947196" lon="10.0404931"><ele>600.0</ele><time>2026-04-19T16:30:52.011Z</time></trkpt><trkpt lat="45.7946587" lon="10.0403198"><ele>602.0</ele><time>2026-04-19T16:30:53.011Z</time></trkpt><trkpt lat="45.7946031" lon="10.0401503"><ele>604.0</ele><time>2026-04-19T16:30:54.012Z</time></trkpt><trkpt lat="45.7945484" lon="10.0399779"><ele>606.0</ele><time>2026-04-19T16:30:55.012Z</time></trkpt><trkpt lat="45.7944966" lon="10.0397973"><ele>605.25</ele><time>2026-04-19T16:30:56.011Z</time></trkpt><trkpt lat="45.7944545" lon="10.0396154"><ele>604.5</ele><time>2026-04-19T16:30:57.011Z</time></trkpt><trkpt lat="45.7944074" lon="10.0394448"><ele>603.75</ele><time>2026-04-19T16:30:58.012Z</time></trkpt><trkpt lat="45.7943526" lon="10.0392854"><ele>603.0</ele><time>2026-04-19T16:30:59.011Z</time></trkpt><trkpt lat="45.7942846" lon="10.0391371"><ele>604.5</ele><time>2026-04-19T16:31:00.011Z</time></trkpt><trkpt lat="45.7942073" lon="10.0389909"><ele>606.0</ele><time>2026-04-19T16:31:01.012Z</time></trkpt><trkpt lat="45.7941351" lon="10.0388376"><ele>607.5</ele><time>2026-04-19T16:31:02.012Z</time></trkpt><trkpt lat="45.7940682" lon="10.0386616"><ele>609.0</ele><time>2026-04-19T16:31:03.012Z</time></trkpt><trkpt lat="45.7940171" lon="10.0384814"><ele>609.75</ele><time>2026-04-19T16:31:04.012Z</time></trkpt><trkpt lat="45.793962" lon="10.0383012"><ele>610.5</ele><time>2026-04-19T16:31:05.012Z</time></trkpt><trkpt lat="45.7938983" lon="10.0381232"><ele>611.25</ele><time>2026-04-19T16:31:06.012Z</time></trkpt><trkpt lat="45.7938358" lon="10.037939"><ele>612.0</ele><time>2026-04-19T16:31:07.012Z</time></trkpt><trkpt lat="45.7937769" lon="10.0377917"><ele>612.0</ele><time>2026-04-19T16:31:08.012Z</time></trkpt><trkpt lat="45.79372" lon="10.0376562"><ele>612.0</ele><time>2026-04-19T16:31:09.011Z</time></trkpt><trkpt lat="45.793664" lon="10.0375296"><ele>612.0</ele><time>2026-04-19T16:31:10.012Z</time></trkpt><trkpt lat="45.7936066" lon="10.0373916"><ele>612.0</ele><time>2026-04-19T16:31:11.012Z</time></trkpt><trkpt lat="45.7935414" lon="10.0372521"><ele>612.0</ele><time>2026-04-19T16:31:12.012Z</time></trkpt><trkpt lat="45.7934628" lon="10.0371182"><ele>611.75</ele><time>2026-04-19T16:31:13.012Z</time></trkpt><trkpt lat="45.79338" lon="10.0369901"><ele>611.5</ele><time>2026-04-19T16:31:14.011Z</time></trkpt><trkpt lat="45.7933026" lon="10.0368517"><ele>611.25</ele><time>2026-04-19T16:31:15.012Z</time></trkpt><trkpt lat="45.7932301" lon="10.0367087"><ele>611.0</ele><time>2026-04-19T16:31:16.011Z</time></trkpt><trkpt lat="45.793164" lon="10.0365614"><ele>611.0</ele><time>2026-04-19T16:31:17.011Z</time></trkpt><trkpt lat="45.7931207" lon="10.0363916"><ele>611.0</ele><time>2026-04-19T16:31:18.012Z</time></trkpt><trkpt lat="45.7930873" lon="10.036222"><ele>611.0</ele><time>2026-04-19T16:31:19.012Z</time></trkpt><trkpt lat="45.7930663" lon="10.0360588"><ele>611.0</ele><time>2026-04-19T16:31:20.011Z</time></trkpt><trkpt lat="45.793082" lon="10.0359195"><ele>611.6666666666666</ele><time>2026-04-19T16:31:21.012Z</time></trkpt><trkpt lat="45.7930991" lon="10.0357991"><ele>612.3333333333333</ele><time>2026-04-19T16:31:22.011Z</time></trkpt><trkpt lat="45.7931022" lon="10.0356783"><ele>613.0</ele><time>2026-04-19T16:31:23.012Z</time></trkpt><trkpt lat="45.7930801" lon="10.0355778"><ele>613.6666666666666</ele><time>2026-04-19T16:31:24.012Z</time></trkpt><trkpt lat="45.7930283" lon="10.0355141"><ele>614.3333333333334</ele><time>2026-04-19T16:31:25.011Z</time></trkpt><trkpt lat="45.7929649" lon="10.0354481"><ele>615.0</ele><time>2026-04-19T16:31:26.012Z</time></trkpt><trkpt lat="45.7929" lon="10.0353849"><ele>615.0</ele><time>2026-04-19T16:31:27.011Z</time></trkpt><trkpt lat="45.7928528" lon="10.035298"><ele>615.0</ele><time>2026-04-19T16:31:28.012Z</time></trkpt><trkpt lat="45.7928218" lon="10.0351895"><ele>615.0</ele><time>2026-04-19T16:31:29.011Z</time></trkpt><trkpt lat="45.7928006" lon="10.0350695"><ele>615.0</ele><time>2026-04-19T16:31:30.012Z</time></trkpt><trkpt lat="45.792778" lon="10.0349276"><ele>615.0</ele><time>2026-04-19T16:31:31.012Z</time></trkpt><trkpt lat="45.7927526" lon="10.0347989"><ele>615.0</ele><time>2026-04-19T16:31:32.011Z</time></trkpt><trkpt lat="45.792731" lon="10.0346853"><ele>615.3333333333334</ele><time>2026-04-19T16:31:33.012Z</time></trkpt><trkpt lat="45.792713" lon="10.034568"><ele>615.6666666666666</ele><time>2026-04-19T16:31:34.012Z</time></trkpt><trkpt lat="45.7926872" lon="10.0344525"><ele>616.0</ele><time>2026-04-19T16:31:35.011Z</time></trkpt><trkpt lat="45.7926397" lon="10.0343585"><ele>616.3333333333333</ele><time>2026-04-19T16:31:36.011Z</time></trkpt><trkpt lat="45.7925939" lon="10.0342822"><ele>616.6666666666666</ele><time>2026-04-19T16:31:37.011Z</time></trkpt><trkpt lat="45.7925489" lon="10.0342116"><ele>617.0</ele><time>2026-04-19T16:31:39.011Z</time></trkpt><trkpt lat="45.7925117" lon="10.0341323"><ele>616.1666666666666</ele><time>2026-04-19T16:31:43.012Z</time></trkpt><trkpt lat="45.7924343" lon="10.0340527"><ele>615.3333333333333</ele><time>2026-04-19T16:32:00.012Z</time></trkpt><trkpt lat="45.7923858" lon="10.0339694"><ele>614.5</ele><time>2026-04-19T16:32:01.012Z</time></trkpt><trkpt lat="45.7923411" lon="10.0338914"><ele>613.6666666666666</ele><time>2026-04-19T16:32:02.012Z</time></trkpt><trkpt lat="45.7922963" lon="10.0337975"><ele>612.8333333333334</ele><time>2026-04-19T16:32:03.012Z</time></trkpt><trkpt lat="45.7922498" lon="10.0336949"><ele>612.0</ele><time>2026-04-19T16:32:04.012Z</time></trkpt><trkpt lat="45.7922006" lon="10.0335964"><ele>612.0</ele><time>2026-04-19T16:32:05.012Z</time></trkpt><trkpt lat="45.7921497" lon="10.0334952"><ele>612.0</ele><time>2026-04-19T16:32:06.012Z</time></trkpt><trkpt lat="45.7920888" lon="10.033393"><ele>612.0</ele><time>2026-04-19T16:32:07.012Z</time></trkpt><trkpt lat="45.7920258" lon="10.0332871"><ele>612.0</ele><time>2026-04-19T16:32:08.012Z</time></trkpt><trkpt lat="45.7919685" lon="10.0331765"><ele>612.0</ele><time>2026-04-19T16:32:09.012Z</time></trkpt><trkpt lat="45.7919155" lon="10.0330571"><ele>612.4</ele><time>2026-04-19T16:32:10.011Z</time></trkpt><trkpt lat="45.791868" lon="10.0329377"><ele>612.8000000000001</ele><time>2026-04-19T16:32:11.011Z</time></trkpt><trkpt lat="45.7918203" lon="10.0328197"><ele>613.2</ele><time>2026-04-19T16:32:12.012Z</time></trkpt><trkpt lat="45.7917557" lon="10.0327292"><ele>613.6</ele><time>2026-04-19T16:32:13.011Z</time></trkpt><trkpt lat="45.7916861" lon="10.0326492"><ele>614.0</ele><time>2026-04-19T16:32:14.012Z</time></trkpt><trkpt lat="45.7915995" lon="10.0325809"><ele>612.2</ele><time>2026-04-19T16:32:15.011Z</time></trkpt><trkpt lat="45.7915183" lon="10.0324992"><ele>610.4</ele><time>2026-04-19T16:32:16.012Z</time></trkpt><trkpt lat="45.7914342" lon="10.0324211"><ele>608.6</ele><time>2026-04-19T16:32:17.012Z</time></trkpt><trkpt lat="45.7913462" lon="10.032348"><ele>606.8</ele><time>2026-04-19T16:32:18.011Z</time></trkpt><trkpt lat="45.7912674" lon="10.0322459"><ele>605.0</ele><time>2026-04-19T16:32:19.011Z</time></trkpt><trkpt lat="45.7912038" lon="10.0321249"><ele>604.4</ele><time>2026-04-19T16:32:20.012Z</time></trkpt><trkpt lat="45.7911524" lon="10.031986"><ele>603.8</ele><time>2026-04-19T16:32:21.012Z</time></trkpt><trkpt lat="45.7911177" lon="10.0318469"><ele>603.2</ele><time>2026-04-19T16:32:22.012Z</time></trkpt><trkpt lat="45.7910935" lon="10.0316939"><ele>602.6</ele><time>2026-04-19T16:32:23.012Z</time></trkpt><trkpt lat="45.7910914" lon="10.0315437"><ele>602.0</ele><time>2026-04-19T16:32:24.012Z</time></trkpt><trkpt lat="45.7911175" lon="10.031387"><ele>601.75</ele><time>2026-04-19T16:32:25.011Z</time></trkpt><trkpt lat="45.7911571" lon="10.0312246"><ele>601.5</ele><time>2026-04-19T16:32:26.012Z</time></trkpt><trkpt lat="45.7911953" lon="10.0310616"><ele>601.25</ele><time>2026-04-19T16:32:27.012Z</time></trkpt><trkpt lat="45.7912079" lon="10.0308971"><ele>601.0</ele><time>2026-04-19T16:32:28.012Z</time></trkpt><trkpt lat="45.7912086" lon="10.0307229"><ele>601.0</ele><time>2026-04-19T16:32:29.012Z</time></trkpt><trkpt lat="45.791198" lon="10.030554"><ele>601.0</ele><time>2026-04-19T16:32:30.012Z</time></trkpt><trkpt lat="45.7911809" lon="10.0303868"><ele>601.0</ele><time>2026-04-19T16:32:31.011Z</time></trkpt><trkpt lat="45.7911565" lon="10.0302243"><ele>601.0</ele><time>2026-04-19T16:32:32.012Z</time></trkpt><trkpt lat="45.7911403" lon="10.0300636"><ele>601.6</ele><time>2026-04-19T16:32:33.012Z</time></trkpt><trkpt lat="45.7911282" lon="10.0298921"><ele>602.2</ele><time>2026-04-19T16:32:34.011Z</time></trkpt><trkpt lat="45.7911167" lon="10.0297373"><ele>602.8</ele><time>2026-04-19T16:32:35.012Z</time></trkpt><trkpt lat="45.791103" lon="10.0295901"><ele>603.4</ele><time>2026-04-19T16:32:36.012Z</time></trkpt><trkpt lat="45.7910927" lon="10.0294492"><ele>604.0</ele><time>2026-04-19T16:32:37.012Z</time></trkpt><trkpt lat="45.7910777" lon="10.0293185"><ele>604.0</ele><time>2026-04-19T16:32:38.011Z</time></trkpt><trkpt lat="45.7910359" lon="10.0292036"><ele>604.0</ele><time>2026-04-19T16:32:39.012Z</time></trkpt><trkpt lat="45.7909941" lon="10.0290906"><ele>604.0</ele><time>2026-04-19T16:32:40.012Z</time></trkpt><trkpt lat="45.7909323" lon="10.0289915"><ele>604.0</ele><time>2026-04-19T16:32:41.012Z</time></trkpt><trkpt lat="45.7908694" lon="10.028893"><ele>604.0</ele><time>2026-04-19T16:32:42.012Z</time></trkpt><trkpt lat="45.7908054" lon="10.0287904"><ele>602.2</ele><time>2026-04-19T16:32:43.011Z</time></trkpt><trkpt lat="45.7907442" lon="10.0286911"><ele>600.4</ele><time>2026-04-19T16:32:44.012Z</time></trkpt><trkpt lat="45.7906757" lon="10.0285933"><ele>598.6</ele><time>2026-04-19T16:32:45.012Z</time></trkpt><trkpt lat="45.7905891" lon="10.0285286"><ele>596.8</ele><time>2026-04-19T16:32:46.012Z</time></trkpt><trkpt lat="45.7905024" lon="10.0284856"><ele>595.0</ele><time>2026-04-19T16:32:47.011Z</time></trkpt><trkpt lat="45.7904204" lon="10.0284353"><ele>595.0</ele><time>2026-04-19T16:32:48.012Z</time></trkpt><trkpt lat="45.7903485" lon="10.0283659"><ele>595.0</ele><time>2026-04-19T16:32:49.012Z</time></trkpt><trkpt lat="45.7902819" lon="10.0282803"><ele>595.0</ele><time>2026-04-19T16:32:50.011Z</time></trkpt><trkpt lat="45.7902326" lon="10.0281825"><ele>595.0</ele><time>2026-04-19T16:32:51.012Z</time></trkpt><trkpt lat="45.7901929" lon="10.028079"><ele>595.0</ele><time>2026-04-19T16:32:52.011Z</time></trkpt><trkpt lat="45.7901677" lon="10.0279634"><ele>595.0</ele><time>2026-04-19T16:32:53.011Z</time></trkpt><trkpt lat="45.7901437" lon="10.0278422"><ele>593.1666666666667</ele><time>2026-04-19T16:32:54.011Z</time></trkpt><trkpt lat="45.7901265" lon="10.0277161"><ele>591.3333333333334</ele><time>2026-04-19T16:32:55.012Z</time></trkpt><trkpt lat="45.790123" lon="10.0275856"><ele>589.5</ele><time>2026-04-19T16:32:56.011Z</time></trkpt><trkpt lat="45.7901215" lon="10.0274656"><ele>587.6666666666666</ele><time>2026-04-19T16:32:57.012Z</time></trkpt><trkpt lat="45.7901228" lon="10.0273403"><ele>585.8333333333333</ele><time>2026-04-19T16:32:58.012Z</time></trkpt><trkpt lat="45.790123" lon="10.0272084"><ele>584.0</ele><time>2026-04-19T16:32:59.011Z</time></trkpt><trkpt lat="45.7901204" lon="10.0270762"><ele>583.8333333333333</ele><time>2026-04-19T16:33:00.011Z</time></trkpt><trkpt lat="45.7901103" lon="10.026955"><ele>583.6666666666666</ele><time>2026-04-19T16:33:01.012Z</time></trkpt><trkpt lat="45.7900629" lon="10.0268241"><ele>583.5</ele><time>2026-04-19T16:33:02.011Z</time></trkpt><trkpt lat="45.7900291" lon="10.0267129"><ele>583.3333333333334</ele><time>2026-04-19T16:33:03.012Z</time></trkpt><trkpt lat="45.7900014" lon="10.0266077"><ele>583.1666666666667</ele><time>2026-04-19T16:33:04.012Z</time></trkpt><trkpt lat="45.7899689" lon="10.0264995"><ele>583.0</ele><time>2026-04-19T16:33:05.012Z</time></trkpt><trkpt lat="45.7899295" lon="10.0263941"><ele>583.0</ele><time>2026-04-19T16:33:06.011Z</time></trkpt><trkpt lat="45.7898773" lon="10.0262915"><ele>583.0</ele><time>2026-04-19T16:33:07.012Z</time></trkpt><trkpt lat="45.7898165" lon="10.0262122"><ele>583.0</ele><time>2026-04-19T16:33:08.012Z</time></trkpt><trkpt lat="45.7897565" lon="10.0261395"><ele>583.0</ele><time>2026-04-19T16:33:09.011Z</time></trkpt><trkpt lat="45.7896976" lon="10.0260709"><ele>583.0</ele><time>2026-04-19T16:33:10.011Z</time></trkpt><trkpt lat="45.7896347" lon="10.0260112"><ele>583.0</ele><time>2026-04-19T16:33:11.012Z</time></trkpt><trkpt lat="45.7895695" lon="10.0259522"><ele>583.0</ele><time>2026-04-19T16:33:12.012Z</time></trkpt><trkpt lat="45.7895071" lon="10.0258904"><ele>583.0</ele><time>2026-04-19T16:33:13.011Z</time></trkpt><trkpt lat="45.7894501" lon="10.0258261"><ele>583.0</ele><time>2026-04-19T16:33:14.012Z</time></trkpt><trkpt lat="45.7894156" lon="10.0257364"><ele>583.0</ele><time>2026-04-19T16:33:15.012Z</time></trkpt><trkpt lat="45.7894336" lon="10.0255584"><ele>583.0</ele><time>2026-04-19T16:33:17.012Z</time></trkpt><trkpt lat="45.7894156" lon="10.0254023"><ele>581.8333333333334</ele><time>2026-04-19T16:33:19.012Z</time></trkpt><trkpt lat="45.7893311" lon="10.0253363"><ele>580.6666666666667</ele><time>2026-04-19T16:33:21.012Z</time></trkpt><trkpt lat="45.7892727" lon="10.0253713"><ele>579.5</ele><time>2026-04-19T16:33:22.012Z</time></trkpt><trkpt lat="45.7892203" lon="10.0254257"><ele>578.3333333333334</ele><time>2026-04-19T16:33:23.012Z</time></trkpt><trkpt lat="45.7891558" lon="10.0254819"><ele>577.1666666666666</ele><time>2026-04-19T16:33:24.012Z</time></trkpt><trkpt lat="45.7890885" lon="10.0255346"><ele>576.0</ele><time>2026-04-19T16:33:25.011Z</time></trkpt><trkpt lat="45.7890237" lon="10.025592"><ele>576.0</ele><time>2026-04-19T16:33:26.012Z</time></trkpt><trkpt lat="45.7889577" lon="10.0256624"><ele>576.0</ele><time>2026-04-19T16:33:27.012Z</time></trkpt><trkpt lat="45.7889002" lon="10.0257437"><ele>576.0</ele><time>2026-04-19T16:33:28.011Z</time></trkpt><trkpt lat="45.7888542" lon="10.0258374"><ele>576.0</ele><time>2026-04-19T16:33:29.012Z</time></trkpt><trkpt lat="45.788816" lon="10.0259418"><ele>576.0</ele><time>2026-04-19T16:33:30.012Z</time></trkpt><trkpt lat="45.7887918" lon="10.0260717"><ele>576.0</ele><time>2026-04-19T16:33:31.012Z</time></trkpt><trkpt lat="45.7887769" lon="10.0262167"><ele>576.0</ele><time>2026-04-19T16:33:32.011Z</time></trkpt><trkpt lat="45.7887636" lon="10.026371"><ele>576.0</ele><time>2026-04-19T16:33:33.011Z</time></trkpt><trkpt lat="45.7887534" lon="10.0265212"><ele>576.0</ele><time>2026-04-19T16:33:34.012Z</time></trkpt><trkpt lat="45.7887456" lon="10.0266707"><ele>576.0</ele><time>2026-04-19T16:33:35.011Z</time></trkpt><trkpt lat="45.7887377" lon="10.0268154"><ele>576.0</ele><time>2026-04-19T16:33:36.011Z</time></trkpt><trkpt lat="45.7887259" lon="10.0269634"><ele>574.8</ele><time>2026-04-19T16:33:37.012Z</time></trkpt><trkpt lat="45.7887077" lon="10.0271019"><ele>573.6</ele><time>2026-04-19T16:33:38.012Z</time></trkpt><trkpt lat="45.788678" lon="10.0272421"><ele>572.4</ele><time>2026-04-19T16:33:39.012Z</time></trkpt><trkpt lat="45.7886357" lon="10.0273983"><ele>571.2</ele><time>2026-04-19T16:33:40.012Z</time></trkpt><trkpt lat="45.7885876" lon="10.0275637"><ele>570.0</ele><time>2026-04-19T16:33:41.011Z</time></trkpt><trkpt lat="45.7885349" lon="10.0277266"><ele>565.0</ele><time>2026-04-19T16:33:42.012Z</time></trkpt><trkpt lat="45.7884853" lon="10.0278835"><ele>560.0</ele><time>2026-04-19T16:33:43.012Z</time></trkpt><trkpt lat="45.7884263" lon="10.028065"><ele>555.0</ele><time>2026-04-19T16:33:44.012Z</time></trkpt><trkpt lat="45.7883711" lon="10.0282444"><ele>550.0</ele><time>2026-04-19T16:33:45.012Z</time></trkpt><trkpt lat="45.7883204" lon="10.0284087"><ele>549.6666666666667</ele><time>2026-04-19T16:33:46.011Z</time></trkpt><trkpt lat="45.7882758" lon="10.0285611"><ele>549.3333333333334</ele><time>2026-04-19T16:33:47.012Z</time></trkpt><trkpt lat="45.7882367" lon="10.0286866"><ele>549.0</ele><time>2026-04-19T16:33:48.012Z</time></trkpt><trkpt lat="45.7881956" lon="10.0287953"><ele>548.6666666666666</ele><time>2026-04-19T16:33:49.012Z</time></trkpt><trkpt lat="45.7881457" lon="10.0288698"><ele>548.3333333333333</ele><time>2026-04-19T16:33:50.011Z</time></trkpt><trkpt lat="45.7880877" lon="10.0289091"><ele>548.0</ele><time>2026-04-19T16:33:51.012Z</time></trkpt><trkpt lat="45.7879637" lon="10.0288244"><ele>548.0</ele><time>2026-04-19T16:33:53.012Z</time></trkpt><trkpt lat="45.7879065" lon="10.0287395"><ele>548.0</ele><time>2026-04-19T16:33:54.012Z</time></trkpt><trkpt lat="45.7878471" lon="10.0286192"><ele>548.0</ele><time>2026-04-19T16:33:55.011Z</time></trkpt><trkpt lat="45.7877816" lon="10.0285018"><ele>548.0</ele><time>2026-04-19T16:33:56.012Z</time></trkpt><trkpt lat="45.7877033" lon="10.0283758"><ele>548.0</ele><time>2026-04-19T16:33:57.012Z</time></trkpt><trkpt lat="45.787619" lon="10.028252"><ele>546.5</ele><time>2026-04-19T16:33:58.012Z</time></trkpt><trkpt lat="45.7875314" lon="10.0281336"><ele>545.0</ele><time>2026-04-19T16:33:59.012Z</time></trkpt><trkpt lat="45.78744" lon="10.0280168"><ele>543.5</ele><time>2026-04-19T16:34:00.012Z</time></trkpt><trkpt lat="45.7873443" lon="10.0279095"><ele>542.0</ele><time>2026-04-19T16:34:01.012Z</time></trkpt><trkpt lat="45.7872524" lon="10.0278008"><ele>542.0</ele><time>2026-04-19T16:34:02.012Z</time></trkpt><trkpt lat="45.7871589" lon="10.0276967"><ele>542.0</ele><time>2026-04-19T16:34:03.012Z</time></trkpt><trkpt lat="45.787067" lon="10.0275894"><ele>542.0</ele><time>2026-04-19T16:34:04.011Z</time></trkpt><trkpt lat="45.7869725" lon="10.027484"><ele>542.0</ele><time>2026-04-19T16:34:05.011Z</time></trkpt><trkpt lat="45.7868762" lon="10.02738"><ele>539.25</ele><time>2026-04-19T16:34:06.012Z</time></trkpt><trkpt lat="45.7867796" lon="10.0272809"><ele>536.5</ele><time>2026-04-19T16:34:07.012Z</time></trkpt><trkpt lat="45.7866775" lon="10.0271802"><ele>533.75</ele><time>2026-04-19T16:34:08.012Z</time></trkpt><trkpt lat="45.7865712" lon="10.0271037"><ele>531.0</ele><time>2026-04-19T16:34:09.012Z</time></trkpt><trkpt lat="45.7864579" lon="10.0270374"><ele>531.0</ele><time>2026-04-19T16:34:10.012Z</time></trkpt><trkpt lat="45.7863445" lon="10.0269819"><ele>531.0</ele><time>2026-04-19T16:34:11.012Z</time></trkpt><trkpt lat="45.7862257" lon="10.0269497"><ele>531.0</ele><time>2026-04-19T16:34:12.012Z</time></trkpt><trkpt lat="45.7861041" lon="10.0269415"><ele>531.0</ele><time>2026-04-19T16:34:13.011Z</time></trkpt><trkpt lat="45.7859841" lon="10.0269387"><ele>526.5</ele><time>2026-04-19T16:34:14.012Z</time></trkpt><trkpt lat="45.7858651" lon="10.0269307"><ele>522.0</ele><time>2026-04-19T16:34:15.011Z</time></trkpt><trkpt lat="45.7857498" lon="10.0269121"><ele>517.5</ele><time>2026-04-19T16:34:16.012Z</time></trkpt><trkpt lat="45.7856423" lon="10.0268837"><ele>513.0</ele><time>2026-04-19T16:34:17.011Z</time></trkpt><trkpt lat="45.7855408" lon="10.0268249"><ele>513.0</ele><time>2026-04-19T16:34:18.012Z</time></trkpt><trkpt lat="45.7854452" lon="10.0267604"><ele>513.0</ele><time>2026-04-19T16:34:19.012Z</time></trkpt><trkpt lat="45.7853511" lon="10.026682"><ele>513.0</ele><time>2026-04-19T16:34:20.012Z</time></trkpt><trkpt lat="45.7852613" lon="10.0265857"><ele>513.0</ele><time>2026-04-19T16:34:21.012Z</time></trkpt><trkpt lat="45.7851795" lon="10.026475"><ele>513.0</ele><time>2026-04-19T16:34:22.012Z</time></trkpt><trkpt lat="45.7851014" lon="10.0263717"><ele>512.4</ele><time>2026-04-19T16:34:23.012Z</time></trkpt><trkpt lat="45.7850246" lon="10.0262747"><ele>511.79999999999995</ele><time>2026-04-19T16:34:24.011Z</time></trkpt><trkpt lat="45.7849479" lon="10.0261816"><ele>511.2</ele><time>2026-04-19T16:34:25.012Z</time></trkpt><trkpt lat="45.7848765" lon="10.0260835"><ele>510.6</ele><time>2026-04-19T16:34:26.012Z</time></trkpt><trkpt lat="45.7848115" lon="10.0259756"><ele>510.0</ele><time>2026-04-19T16:34:27.012Z</time></trkpt><trkpt lat="45.7847428" lon="10.0258731"><ele>510.6</ele><time>2026-04-19T16:34:28.012Z</time></trkpt><trkpt lat="45.7846731" lon="10.02577"><ele>511.2</ele><time>2026-04-19T16:34:29.012Z</time></trkpt><trkpt lat="45.7846031" lon="10.0256663"><ele>511.79999999999995</ele><time>2026-04-19T16:34:30.012Z</time></trkpt><trkpt lat="45.7845303" lon="10.0255605"><ele>512.4</ele><time>2026-04-19T16:34:31.012Z</time></trkpt><trkpt lat="45.784461" lon="10.0254549"><ele>513.0</ele><time>2026-04-19T16:34:32.011Z</time></trkpt><trkpt lat="45.7843935" lon="10.0253459"><ele>511.4</ele><time>2026-04-19T16:34:33.011Z</time></trkpt><trkpt lat="45.7843217" lon="10.0252315"><ele>509.79999999999995</ele><time>2026-04-19T16:34:34.011Z</time></trkpt><trkpt lat="45.7842589" lon="10.0251133"><ele>508.2</ele><time>2026-04-19T16:34:35.012Z</time></trkpt><trkpt lat="45.7842047" lon="10.0249921"><ele>506.6</ele><time>2026-04-19T16:34:36.012Z</time></trkpt><trkpt lat="45.7841621" lon="10.0248523"><ele>505.0</ele><time>2026-04-19T16:34:37.012Z</time></trkpt><trkpt lat="45.7841217" lon="10.0247165"><ele>505.0</ele><time>2026-04-19T16:34:38.012Z</time></trkpt><trkpt lat="45.7840757" lon="10.0245807"><ele>505.0</ele><time>2026-04-19T16:34:39.011Z</time></trkpt><trkpt lat="45.7840309" lon="10.0244511"><ele>505.0</ele><time>2026-04-19T16:34:40.012Z</time></trkpt><trkpt lat="45.7839803" lon="10.0243229"><ele>505.0</ele><time>2026-04-19T16:34:41.011Z</time></trkpt><trkpt lat="45.7839313" lon="10.0241916"><ele>505.0</ele><time>2026-04-19T16:34:42.011Z</time></trkpt><trkpt lat="45.7838882" lon="10.0240597"><ele>505.6</ele><time>2026-04-19T16:34:43.012Z</time></trkpt><trkpt lat="45.7838424" lon="10.0239257"><ele>506.2</ele><time>2026-04-19T16:34:44.012Z</time></trkpt><trkpt lat="45.7838014" lon="10.0237911"><ele>506.79999999999995</ele><time>2026-04-19T16:34:45.012Z</time></trkpt><trkpt lat="45.7837672" lon="10.0236586"><ele>507.4</ele><time>2026-04-19T16:34:46.012Z</time></trkpt><trkpt lat="45.7837386" lon="10.0235208"><ele>508.0</ele><time>2026-04-19T16:34:47.011Z</time></trkpt><trkpt lat="45.7837087" lon="10.0233809"><ele>508.59999999999997</ele><time>2026-04-19T16:34:48.011Z</time></trkpt><trkpt lat="45.7836751" lon="10.023241"><ele>509.19999999999993</ele><time>2026-04-19T16:34:49.011Z</time></trkpt><trkpt lat="45.7836416" lon="10.0231004"><ele>509.8</ele><time>2026-04-19T16:34:50.011Z</time></trkpt><trkpt lat="45.783611" lon="10.0229584"><ele>510.4</ele><time>2026-04-19T16:34:51.012Z</time></trkpt><trkpt lat="45.7835807" lon="10.0228135"><ele>511.0</ele><time>2026-04-19T16:34:52.012Z</time></trkpt><trkpt lat="45.7835509" lon="10.0226661"><ele>511.0</ele><time>2026-04-19T16:34:53.011Z</time></trkpt><trkpt lat="45.7835249" lon="10.0225241"><ele>511.0</ele><time>2026-04-19T16:34:54.012Z</time></trkpt><trkpt lat="45.7835015" lon="10.0223738"><ele>511.0</ele><time>2026-04-19T16:34:55.012Z</time></trkpt><trkpt lat="45.783492" lon="10.0222185"><ele>511.0</ele><time>2026-04-19T16:34:56.012Z</time></trkpt><trkpt lat="45.7834812" lon="10.0220745"><ele>511.0</ele><time>2026-04-19T16:34:57.012Z</time></trkpt><trkpt lat="45.7834745" lon="10.0219255"><ele>505.8</ele><time>2026-04-19T16:34:58.012Z</time></trkpt><trkpt lat="45.7834763" lon="10.0217773"><ele>500.6</ele><time>2026-04-19T16:34:59.012Z</time></trkpt><trkpt lat="45.7834801" lon="10.0216269"><ele>495.4</ele><time>2026-04-19T16:35:00.011Z</time></trkpt><trkpt lat="45.783489" lon="10.0214755"><ele>490.2</ele><time>2026-04-19T16:35:01.011Z</time></trkpt><trkpt lat="45.7834989" lon="10.0213187"><ele>485.0</ele><time>2026-04-19T16:35:02.012Z</time></trkpt><trkpt lat="45.7834909" lon="10.021162"><ele>484.0</ele><time>2026-04-19T16:35:03.011Z</time></trkpt><trkpt lat="45.7834804" lon="10.021014"><ele>483.0</ele><time>2026-04-19T16:35:04.012Z</time></trkpt><trkpt lat="45.78346" lon="10.0208702"><ele>482.0</ele><time>2026-04-19T16:35:05.011Z</time></trkpt><trkpt lat="45.7834348" lon="10.0207261"><ele>481.0</ele><time>2026-04-19T16:35:06.011Z</time></trkpt><trkpt lat="45.7834148" lon="10.0205846"><ele>480.0</ele><time>2026-04-19T16:35:07.012Z</time></trkpt><trkpt lat="45.7833971" lon="10.0204456"><ele>480.0</ele><time>2026-04-19T16:35:08.012Z</time></trkpt><trkpt lat="45.7833791" lon="10.0203189"><ele>480.0</ele><time>2026-04-19T16:35:09.012Z</time></trkpt><trkpt lat="45.783362" lon="10.0201934"><ele>480.0</ele><time>2026-04-19T16:35:10.011Z</time></trkpt><trkpt lat="45.7833479" lon="10.020074"><ele>480.0</ele><time>2026-04-19T16:35:11.011Z</time></trkpt><trkpt lat="45.7833417" lon="10.0199518"><ele>480.0</ele><time>2026-04-19T16:35:12.012Z</time></trkpt><trkpt lat="45.7833387" lon="10.0198376"><ele>480.0</ele><time>2026-04-19T16:35:13.012Z</time></trkpt><trkpt lat="45.7833211" lon="10.0197431"><ele>480.0</ele><time>2026-04-19T16:35:14.012Z</time></trkpt><trkpt lat="45.7832934" lon="10.0196592"><ele>480.0</ele><time>2026-04-19T16:35:15.011Z</time></trkpt><trkpt lat="45.7832228" lon="10.0196856"><ele>480.0</ele><time>2026-04-19T16:35:16.012Z</time></trkpt><trkpt lat="45.7831656" lon="10.0198275"><ele>480.0</ele><time>2026-04-19T16:35:18.011Z</time></trkpt><trkpt lat="45.7831681" lon="10.0199424"><ele>480.0</ele><time>2026-04-19T16:35:19.011Z</time></trkpt><trkpt lat="45.7831613" lon="10.0200666"><ele>480.0</ele><time>2026-04-19T16:35:20.012Z</time></trkpt><trkpt lat="45.7831489" lon="10.0201953"><ele>480.0</ele><time>2026-04-19T16:35:21.012Z</time></trkpt><trkpt lat="45.7831245" lon="10.0203217"><ele>480.0</ele><time>2026-04-19T16:35:22.012Z</time></trkpt><trkpt lat="45.7830847" lon="10.0204447"><ele>480.0</ele><time>2026-04-19T16:35:23.012Z</time></trkpt><trkpt lat="45.7830195" lon="10.0205438"><ele>480.0</ele><time>2026-04-19T16:35:24.012Z</time></trkpt><trkpt lat="45.7829466" lon="10.0206369"><ele>480.0</ele><time>2026-04-19T16:35:25.011Z</time></trkpt><trkpt lat="45.7828757" lon="10.020723"><ele>480.0</ele><time>2026-04-19T16:35:26.011Z</time></trkpt><trkpt lat="45.7828074" lon="10.0208196"><ele>480.0</ele><time>2026-04-19T16:35:27.012Z</time></trkpt><trkpt lat="45.7827435" lon="10.0209033"><ele>480.0</ele><time>2026-04-19T16:35:28.011Z</time></trkpt><trkpt lat="45.7826894" lon="10.0209837"><ele>480.0</ele><time>2026-04-19T16:35:29.012Z</time></trkpt><trkpt lat="45.7826437" lon="10.0210762"><ele>480.0</ele><time>2026-04-19T16:35:30.012Z</time></trkpt><trkpt lat="45.7825971" lon="10.0212085"><ele>480.0</ele><time>2026-04-19T16:35:32.012Z</time></trkpt><trkpt lat="45.7825416" lon="10.0212566"><ele>476.1666666666667</ele><time>2026-04-19T16:35:34.012Z</time></trkpt><trkpt lat="45.7824713" lon="10.0211557"><ele>472.33333333333337</ele><time>2026-04-19T16:35:36.012Z</time></trkpt><trkpt lat="45.782443" lon="10.0210641"><ele>468.5</ele><time>2026-04-19T16:35:37.011Z</time></trkpt><trkpt lat="45.7824147" lon="10.0209642"><ele>464.6666666666667</ele><time>2026-04-19T16:35:38.012Z</time></trkpt><trkpt lat="45.7823892" lon="10.0208617"><ele>460.83333333333337</ele><time>2026-04-19T16:35:39.011Z</time></trkpt><trkpt lat="45.7823537" lon="10.0207707"><ele>457.0</ele><time>2026-04-19T16:35:40.012Z</time></trkpt><trkpt lat="45.7823167" lon="10.0206867"><ele>456.20000000000005</ele><time>2026-04-19T16:35:41.012Z</time></trkpt><trkpt lat="45.7822784" lon="10.0206007"><ele>455.40000000000003</ele><time>2026-04-19T16:35:42.011Z</time></trkpt><trkpt lat="45.7822428" lon="10.0205249"><ele>454.59999999999997</ele><time>2026-04-19T16:35:43.011Z</time></trkpt><trkpt lat="45.7821766" lon="10.020391"><ele>453.79999999999995</ele><time>2026-04-19T16:35:45.012Z</time></trkpt><trkpt lat="45.7820793" lon="10.0202958"><ele>453.0</ele><time>2026-04-19T16:35:47.012Z</time></trkpt><trkpt lat="45.7819773" lon="10.0201941"><ele>453.0</ele><time>2026-04-19T16:35:49.012Z</time></trkpt><trkpt lat="45.7818874" lon="10.0200948"><ele>452.99999999999994</ele><time>2026-04-19T16:35:51.012Z</time></trkpt><trkpt lat="45.7817953" lon="10.0199929"><ele>452.99999999999994</ele><time>2026-04-19T16:35:53.011Z</time></trkpt><trkpt lat="45.7817152" lon="10.0199318"><ele>453.0</ele><time>2026-04-19T16:35:55.012Z</time></trkpt><trkpt lat="45.7816656" lon="10.0198512"><ele>453.0</ele><time>2026-04-19T16:35:58.012Z</time></trkpt><trkpt lat="45.7816769" lon="10.0197196"><ele>449.59999999999997</ele><time>2026-04-19T16:36:00.012Z</time></trkpt><trkpt lat="45.7817005" lon="10.0196148"><ele>446.19999999999993</ele><time>2026-04-19T16:36:01.012Z</time></trkpt><trkpt lat="45.7817316" lon="10.0194976"><ele>442.8</ele><time>2026-04-19T16:36:02.012Z</time></trkpt><trkpt lat="45.7817616" lon="10.0193737"><ele>439.4</ele><time>2026-04-19T16:36:03.011Z</time></trkpt><trkpt lat="45.7818009" lon="10.0192439"><ele>436.0</ele><time>2026-04-19T16:36:04.011Z</time></trkpt><trkpt lat="45.7818441" lon="10.019114"><ele>437.0</ele><time>2026-04-19T16:36:05.012Z</time></trkpt><trkpt lat="45.7818919" lon="10.0189804"><ele>438.0</ele><time>2026-04-19T16:36:06.011Z</time></trkpt><trkpt lat="45.7819457" lon="10.018841"><ele>439.0</ele><time>2026-04-19T16:36:07.012Z</time></trkpt><trkpt lat="45.7820065" lon="10.0187017"><ele>440.0</ele><time>2026-04-19T16:36:08.012Z</time></trkpt><trkpt lat="45.782066" lon="10.0185551"><ele>441.0</ele><time>2026-04-19T16:36:09.011Z</time></trkpt><trkpt lat="45.7821274" lon="10.0184131"><ele>439.20000000000005</ele><time>2026-04-19T16:36:10.012Z</time></trkpt><trkpt lat="45.7821917" lon="10.0182794"><ele>437.40000000000003</ele><time>2026-04-19T16:36:11.012Z</time></trkpt><trkpt lat="45.7822507" lon="10.0181487"><ele>435.6</ele><time>2026-04-19T16:36:12.012Z</time></trkpt><trkpt lat="45.7823028" lon="10.0180267"><ele>433.8</ele><time>2026-04-19T16:36:13.012Z</time></trkpt><trkpt lat="45.7823598" lon="10.0179137"><ele>432.0</ele><time>2026-04-19T16:36:14.011Z</time></trkpt><trkpt lat="45.7824282" lon="10.0178165"><ele>432.0</ele><time>2026-04-19T16:36:15.012Z</time></trkpt><trkpt lat="45.7824835" lon="10.0177195"><ele>432.0</ele><time>2026-04-19T16:36:16.011Z</time></trkpt><trkpt lat="45.7825124" lon="10.0176155"><ele>432.0</ele><time>2026-04-19T16:36:17.012Z</time></trkpt><trkpt lat="45.7825196" lon="10.0175193"><ele>432.0</ele><time>2026-04-19T16:36:18.011Z</time></trkpt><trkpt lat="45.7825036" lon="10.0174184"><ele>432.0</ele><time>2026-04-19T16:36:19.012Z</time></trkpt><trkpt lat="45.7824678" lon="10.0173177"><ele>432.0</ele><time>2026-04-19T16:36:20.012Z</time></trkpt><trkpt lat="45.7824347" lon="10.0172046"><ele>431.5</ele><time>2026-04-19T16:36:21.011Z</time></trkpt><trkpt lat="45.7824015" lon="10.017091"><ele>431.0</ele><time>2026-04-19T16:36:22.012Z</time></trkpt><trkpt lat="45.7823646" lon="10.0169666"><ele>430.5</ele><time>2026-04-19T16:36:23.011Z</time></trkpt><trkpt lat="45.7823168" lon="10.0168733"><ele>430.0</ele><time>2026-04-19T16:36:24.012Z</time></trkpt><trkpt lat="45.7822534" lon="10.016793"><ele>429.5</ele><time>2026-04-19T16:36:25.012Z</time></trkpt><trkpt lat="45.7821854" lon="10.0167268"><ele>429.0</ele><time>2026-04-19T16:36:26.012Z</time></trkpt><trkpt lat="45.7821173" lon="10.0167107"><ele>429.0</ele><time>2026-04-19T16:36:27.011Z</time></trkpt><trkpt lat="45.7820511" lon="10.0167105"><ele>429.0</ele><time>2026-04-19T16:36:28.012Z</time></trkpt><trkpt lat="45.7819685" lon="10.0167246"><ele>429.0</ele><time>2026-04-19T16:36:29.012Z</time></trkpt><trkpt lat="45.7818731" lon="10.0167404"><ele>429.0</ele><time>2026-04-19T16:36:30.012Z</time></trkpt><trkpt lat="45.781772" lon="10.0167581"><ele>429.0</ele><time>2026-04-19T16:36:31.011Z</time></trkpt><trkpt lat="45.7816422" lon="10.0167802"><ele>430.2</ele><time>2026-04-19T16:36:32.012Z</time></trkpt><trkpt lat="45.7815232" lon="10.0167932"><ele>431.4</ele><time>2026-04-19T16:36:33.012Z</time></trkpt><trkpt lat="45.7814181" lon="10.0168043"><ele>432.6</ele><time>2026-04-19T16:36:34.012Z</time></trkpt><trkpt lat="45.7813274" lon="10.0168129"><ele>433.8</ele><time>2026-04-19T16:36:35.012Z</time></trkpt><trkpt lat="45.7812605" lon="10.0168263"><ele>435.0</ele><time>2026-04-19T16:36:36.012Z</time></trkpt><trkpt lat="45.7811624" lon="10.0168784"><ele>435.0</ele><time>2026-04-19T16:36:38.012Z</time></trkpt><trkpt lat="45.781028" lon="10.0169523"><ele>435.0</ele><time>2026-04-19T16:36:40.011Z</time></trkpt><trkpt lat="45.7809573" lon="10.0169655"><ele>435.0</ele><time>2026-04-19T16:36:41.011Z</time></trkpt><trkpt lat="45.7808938" lon="10.0170099"><ele>435.0</ele><time>2026-04-19T16:36:42.012Z</time></trkpt><trkpt lat="45.7808375" lon="10.0170869"><ele>435.0</ele><time>2026-04-19T16:36:43.011Z</time></trkpt><trkpt lat="45.7807447" lon="10.0171435"><ele>436.0</ele><time>2026-04-19T16:36:45.012Z</time></trkpt><trkpt lat="45.7806472" lon="10.017088"><ele>437.0</ele><time>2026-04-19T16:36:47.011Z</time></trkpt><trkpt lat="45.7805865" lon="10.0170229"><ele>438.0</ele><time>2026-04-19T16:36:48.011Z</time></trkpt><trkpt lat="45.7805323" lon="10.0169578"><ele>439.0</ele><time>2026-04-19T16:36:49.012Z</time></trkpt><trkpt lat="45.7804779" lon="10.0168892"><ele>440.0</ele><time>2026-04-19T16:36:50.012Z</time></trkpt><trkpt lat="45.7804147" lon="10.0168113"><ele>441.0</ele><time>2026-04-19T16:36:51.012Z</time></trkpt><trkpt lat="45.7803532" lon="10.0167301"><ele>442.1666666666667</ele><time>2026-04-19T16:36:52.012Z</time></trkpt><trkpt lat="45.7802875" lon="10.0166433"><ele>443.33333333333337</ele><time>2026-04-19T16:36:53.011Z</time></trkpt><trkpt lat="45.7802417" lon="10.0165789"><ele>444.5</ele><time>2026-04-19T16:36:54.011Z</time></trkpt><trkpt lat="45.7801707" lon="10.0165923"><ele>445.6666666666667</ele><time>2026-04-19T16:36:58.012Z</time></trkpt><trkpt lat="45.7801098" lon="10.016662"><ele>446.83333333333337</ele><time>2026-04-19T16:37:02.012Z</time></trkpt><trkpt lat="45.7801268" lon="10.016761"><ele>448.0</ele><time>2026-04-19T16:37:04.012Z</time></trkpt><trkpt lat="45.7801383" lon="10.0168686"><ele>448.2</ele><time>2026-04-19T16:37:06.011Z</time></trkpt><trkpt lat="45.7801213" lon="10.0169625"><ele>448.4</ele><time>2026-04-19T16:37:08.011Z</time></trkpt><trkpt lat="45.7800935" lon="10.0170604"><ele>448.59999999999997</ele><time>2026-04-19T16:37:11.012Z</time></trkpt><trkpt lat="45.7800578" lon="10.0169352"><ele>448.79999999999995</ele><time>2026-04-19T16:37:15.011Z</time></trkpt><trkpt lat="45.7800499" lon="10.016833"><ele>449.0</ele><time>2026-04-19T16:37:16.012Z</time></trkpt><trkpt lat="45.7800025" lon="10.0166407"><ele>449.99999999999994</ele><time>2026-04-19T16:37:18.011Z</time></trkpt><trkpt lat="45.7799657" lon="10.016544"><ele>451.0</ele><time>2026-04-19T16:37:19.012Z</time></trkpt><trkpt lat="45.7799269" lon="10.0164375"><ele>452.0</ele><time>2026-04-19T16:37:20.011Z</time></trkpt><trkpt lat="45.7798884" lon="10.0163414"><ele>453.0</ele><time>2026-04-19T16:37:21.012Z</time></trkpt><trkpt lat="45.7798527" lon="10.0162361"><ele>453.99999999999994</ele><time>2026-04-19T16:37:22.011Z</time></trkpt><trkpt lat="45.7798239" lon="10.0161185"><ele>455.0</ele><time>2026-04-19T16:37:23.012Z</time></trkpt><trkpt lat="45.7797933" lon="10.0160072"><ele>455.0</ele><time>2026-04-19T16:37:24.012Z</time></trkpt><trkpt lat="45.7797768" lon="10.0158903"><ele>455.0</ele><time>2026-04-19T16:37:25.012Z</time></trkpt><trkpt lat="45.7797651" lon="10.0157717"><ele>455.0</ele><time>2026-04-19T16:37:26.012Z</time></trkpt><trkpt lat="45.7797571" lon="10.0156317"><ele>455.0</ele><time>2026-04-19T16:37:27.012Z</time></trkpt><trkpt lat="45.7797497" lon="10.015501"><ele>455.0</ele><time>2026-04-19T16:37:28.011Z</time></trkpt><trkpt lat="45.7797371" lon="10.0153418"><ele>455.8333333333333</ele><time>2026-04-19T16:37:29.011Z</time></trkpt><trkpt lat="45.7797178" lon="10.0152"><ele>456.66666666666663</ele><time>2026-04-19T16:37:30.012Z</time></trkpt><trkpt lat="45.7797051" lon="10.0150712"><ele>457.5</ele><time>2026-04-19T16:37:31.012Z</time></trkpt><trkpt lat="45.7796983" lon="10.0149797"><ele>458.33333333333337</ele><time>2026-04-19T16:37:32.011Z</time></trkpt><trkpt lat="45.7797078" lon="10.0148699"><ele>459.1666666666667</ele><time>2026-04-19T16:37:33.011Z</time></trkpt><trkpt lat="45.779715" lon="10.0147561"><ele>460.0</ele><time>2026-04-19T16:37:34.012Z</time></trkpt><trkpt lat="45.779726" lon="10.0146295"><ele>461.1666666666667</ele><time>2026-04-19T16:37:35.011Z</time></trkpt><trkpt lat="45.7797291" lon="10.0145038"><ele>462.33333333333337</ele><time>2026-04-19T16:37:36.012Z</time></trkpt><trkpt lat="45.7797388" lon="10.0143877"><ele>463.5</ele><time>2026-04-19T16:37:37.012Z</time></trkpt><trkpt lat="45.77975" lon="10.0142794"><ele>464.66666666666663</ele><time>2026-04-19T16:37:38.012Z</time></trkpt><trkpt lat="45.7797669" lon="10.0141613"><ele>465.8333333333333</ele><time>2026-04-19T16:37:39.012Z</time></trkpt><trkpt lat="45.7797734" lon="10.0140546"><ele>467.0</ele><time>2026-04-19T16:37:40.012Z</time></trkpt><trkpt lat="45.7797737" lon="10.0139414"><ele>467.8333333333333</ele><time>2026-04-19T16:37:41.012Z</time></trkpt><trkpt lat="45.779763" lon="10.0138147"><ele>468.66666666666663</ele><time>2026-04-19T16:37:42.012Z</time></trkpt><trkpt lat="45.7797545" lon="10.0136887"><ele>469.5</ele><time>2026-04-19T16:37:43.012Z</time></trkpt><trkpt lat="45.7797479" lon="10.0135815"><ele>470.33333333333337</ele><time>2026-04-19T16:37:44.012Z</time></trkpt><trkpt lat="45.779743" lon="10.0134553"><ele>471.1666666666667</ele><time>2026-04-19T16:37:45.012Z</time></trkpt><trkpt lat="45.7797095" lon="10.0133457"><ele>472.0</ele><time>2026-04-19T16:37:46.012Z</time></trkpt><trkpt lat="45.7796581" lon="10.0132509"><ele>472.33333333333337</ele><time>2026-04-19T16:37:47.011Z</time></trkpt><trkpt lat="45.7795979" lon="10.0131684"><ele>472.6666666666667</ele><time>2026-04-19T16:37:48.011Z</time></trkpt><trkpt lat="45.7795498" lon="10.0130816"><ele>473.0</ele><time>2026-04-19T16:37:49.011Z</time></trkpt><trkpt lat="45.7795132" lon="10.0129794"><ele>473.33333333333337</ele><time>2026-04-19T16:37:50.011Z</time></trkpt><trkpt lat="45.779486" lon="10.0128783"><ele>473.6666666666667</ele><time>2026-04-19T16:37:51.012Z</time></trkpt><trkpt lat="45.7794816" lon="10.012754"><ele>474.0</ele><time>2026-04-19T16:37:52.011Z</time></trkpt><trkpt lat="45.7794723" lon="10.0126322"><ele>474.0</ele><time>2026-04-19T16:37:53.012Z</time></trkpt><trkpt lat="45.7794483" lon="10.0125044"><ele>474.0</ele><time>2026-04-19T16:37:54.011Z</time></trkpt><trkpt lat="45.7794082" lon="10.0123751"><ele>474.0</ele><time>2026-04-19T16:37:55.012Z</time></trkpt><trkpt lat="45.7793762" lon="10.0122458"><ele>474.0</ele><time>2026-04-19T16:37:56.012Z</time></trkpt><trkpt lat="45.7793552" lon="10.0121274"><ele>474.0</ele><time>2026-04-19T16:37:57.012Z</time></trkpt><trkpt lat="45.7793424" lon="10.012005"><ele>476.3333333333333</ele><time>2026-04-19T16:37:58.011Z</time></trkpt><trkpt lat="45.7793352" lon="10.0118713"><ele>478.66666666666663</ele><time>2026-04-19T16:37:59.011Z</time></trkpt><trkpt lat="45.7793278" lon="10.0117528"><ele>481.0</ele><time>2026-04-19T16:38:00.012Z</time></trkpt><trkpt lat="45.7793049" lon="10.0116414"><ele>483.3333333333333</ele><time>2026-04-19T16:38:01.012Z</time></trkpt><trkpt lat="45.7792804" lon="10.0115313"><ele>485.66666666666663</ele><time>2026-04-19T16:38:02.012Z</time></trkpt><trkpt lat="45.779256" lon="10.0114249"><ele>488.0</ele><time>2026-04-19T16:38:03.012Z</time></trkpt><trkpt lat="45.7792295" lon="10.0113129"><ele>488.16666666666663</ele><time>2026-04-19T16:38:04.012Z</time></trkpt><trkpt lat="45.7792032" lon="10.0112028"><ele>488.3333333333333</ele><time>2026-04-19T16:38:05.012Z</time></trkpt><trkpt lat="45.7791885" lon="10.0110979"><ele>488.5</ele><time>2026-04-19T16:38:06.012Z</time></trkpt><trkpt lat="45.7791724" lon="10.0110019"><ele>488.66666666666663</ele><time>2026-04-19T16:38:07.012Z</time></trkpt><trkpt lat="45.7791697" lon="10.0108221"><ele>488.8333333333333</ele><time>2026-04-19T16:38:09.011Z</time></trkpt><trkpt lat="45.7791713" lon="10.010717"><ele>489.0</ele><time>2026-04-19T16:38:10.012Z</time></trkpt><trkpt lat="45.7791832" lon="10.0106073"><ele>489.1666666666667</ele><time>2026-04-19T16:38:11.012Z</time></trkpt><trkpt lat="45.7791927" lon="10.0104813"><ele>489.33333333333337</ele><time>2026-04-19T16:38:12.012Z</time></trkpt><trkpt lat="45.779199" lon="10.010363"><ele>489.5</ele><time>2026-04-19T16:38:13.012Z</time></trkpt><trkpt lat="45.7792059" lon="10.0102443"><ele>489.6666666666667</ele><time>2026-04-19T16:38:14.012Z</time></trkpt><trkpt lat="45.7791895" lon="10.0101273"><ele>489.83333333333337</ele><time>2026-04-19T16:38:15.011Z</time></trkpt><trkpt lat="45.7791765" lon="10.0100142"><ele>490.0</ele><time>2026-04-19T16:38:16.012Z</time></trkpt><trkpt lat="45.7791608" lon="10.0099059"><ele>490.00000000000006</ele><time>2026-04-19T16:38:17.012Z</time></trkpt><trkpt lat="45.7791328" lon="10.0097966"><ele>490.0</ele><time>2026-04-19T16:38:18.011Z</time></trkpt><trkpt lat="45.7790982" lon="10.0097049"><ele>490.0</ele><time>2026-04-19T16:38:19.011Z</time></trkpt><trkpt lat="45.7790569" lon="10.0096128"><ele>490.0</ele><time>2026-04-19T16:38:20.011Z</time></trkpt><trkpt lat="45.7790008" lon="10.0095336"><ele>490.00000000000006</ele><time>2026-04-19T16:38:21.012Z</time></trkpt><trkpt lat="45.7789417" lon="10.0094652"><ele>490.0</ele><time>2026-04-19T16:38:22.012Z</time></trkpt><trkpt lat="45.7788786" lon="10.0094041"><ele>490.0</ele><time>2026-04-19T16:38:23.011Z</time></trkpt><trkpt lat="45.7787613" lon="10.0092898"><ele>490.0</ele><time>2026-04-19T16:38:25.012Z</time></trkpt><trkpt lat="45.7787025" lon="10.0092208"><ele>490.0</ele><time>2026-04-19T16:38:26.012Z</time></trkpt><trkpt lat="45.7786496" lon="10.0091424"><ele>490.0</ele><time>2026-04-19T16:38:27.011Z</time></trkpt><trkpt lat="45.7786095" lon="10.0090491"><ele>490.0</ele><time>2026-04-19T16:38:28.011Z</time></trkpt><trkpt lat="45.7785675" lon="10.0089441"><ele>488.83333333333337</ele><time>2026-04-19T16:38:29.012Z</time></trkpt><trkpt lat="45.7785238" lon="10.0088398"><ele>487.6666666666667</ele><time>2026-04-19T16:38:30.011Z</time></trkpt><trkpt lat="45.7784838" lon="10.0087481"><ele>486.5</ele><time>2026-04-19T16:38:31.011Z</time></trkpt><trkpt lat="45.7784438" lon="10.0086712"><ele>485.33333333333337</ele><time>2026-04-19T16:38:32.012Z</time></trkpt><trkpt lat="45.7783897" lon="10.0086062"><ele>484.1666666666667</ele><time>2026-04-19T16:38:33.012Z</time></trkpt><trkpt lat="45.7782989" lon="10.008511"><ele>483.0</ele><time>2026-04-19T16:38:35.011Z</time></trkpt><trkpt lat="45.778212" lon="10.0083917"><ele>487.1666666666667</ele><time>2026-04-19T16:38:37.012Z</time></trkpt><trkpt lat="45.7781846" lon="10.0082073"><ele>491.33333333333337</ele><time>2026-04-19T16:38:39.011Z</time></trkpt><trkpt lat="45.7782035" lon="10.008065"><ele>495.5</ele><time>2026-04-19T16:38:40.011Z</time></trkpt><trkpt lat="45.7782144" lon="10.0079542"><ele>499.6666666666667</ele><time>2026-04-19T16:38:41.012Z</time></trkpt><trkpt lat="45.7782412" lon="10.0078697"><ele>503.83333333333337</ele><time>2026-04-19T16:38:42.012Z</time></trkpt><trkpt lat="45.7782921" lon="10.0078004"><ele>508.0</ele><time>2026-04-19T16:38:43.012Z</time></trkpt><trkpt lat="45.7783619" lon="10.007747"><ele>508.00000000000006</ele><time>2026-04-19T16:38:44.011Z</time></trkpt><trkpt lat="45.7784161" lon="10.0076998"><ele>508.0</ele><time>2026-04-19T16:38:46.011Z</time></trkpt><trkpt lat="45.7785003" lon="10.0076374"><ele>508.0</ele><time>2026-04-19T16:39:00.012Z</time></trkpt><trkpt lat="45.778566" lon="10.0075722"><ele>508.0</ele><time>2026-04-19T16:39:02.012Z</time></trkpt><trkpt lat="45.7786333" lon="10.0074992"><ele>508.00000000000006</ele><time>2026-04-19T16:39:04.011Z</time></trkpt><trkpt lat="45.7787028" lon="10.0074206"><ele>508.0</ele><time>2026-04-19T16:39:06.012Z</time></trkpt><trkpt lat="45.7787771" lon="10.0073458"><ele>505.79999999999995</ele><time>2026-04-19T16:39:08.012Z</time></trkpt><trkpt lat="45.7788397" lon="10.0072803"><ele>503.59999999999997</ele><time>2026-04-19T16:39:09.012Z</time></trkpt><trkpt lat="45.7789287" lon="10.0071628"><ele>501.40000000000003</ele><time>2026-04-19T16:39:11.012Z</time></trkpt><trkpt lat="45.7790099" lon="10.0070624"><ele>499.20000000000005</ele><time>2026-04-19T16:39:13.012Z</time></trkpt><trkpt lat="45.7790583" lon="10.0069433"><ele>497.0</ele><time>2026-04-19T16:39:15.012Z</time></trkpt><trkpt lat="45.7791041" lon="10.0068117"><ele>498.0</ele><time>2026-04-19T16:39:17.012Z</time></trkpt><trkpt lat="45.7791502" lon="10.0066426"><ele>499.00000000000006</ele><time>2026-04-19T16:39:19.011Z</time></trkpt><trkpt lat="45.7791731" lon="10.0065459"><ele>500.00000000000006</ele><time>2026-04-19T16:39:20.012Z</time></trkpt><trkpt lat="45.7792011" lon="10.0063637"><ele>501.0</ele><time>2026-04-19T16:39:22.012Z</time></trkpt><trkpt lat="45.7792218" lon="10.0062015"><ele>502.0</ele><time>2026-04-19T16:39:24.012Z</time></trkpt><trkpt lat="45.779249" lon="10.0060334"><ele>502.0</ele><time>2026-04-19T16:39:26.012Z</time></trkpt><trkpt lat="45.7792714" lon="10.0059409"><ele>502.00000000000006</ele><time>2026-04-19T16:39:27.011Z</time></trkpt><trkpt lat="45.7792943" lon="10.0057682"><ele>502.00000000000006</ele><time>2026-04-19T16:39:29.012Z</time></trkpt><trkpt lat="45.7793074" lon="10.0055956"><ele>502.0</ele><time>2026-04-19T16:39:31.012Z</time></trkpt><trkpt lat="45.7793196" lon="10.0055053"><ele>502.0</ele><time>2026-04-19T16:39:32.012Z</time></trkpt><trkpt lat="45.779338" lon="10.0053317"><ele>498.8571428571428</ele><time>2026-04-19T16:39:34.011Z</time></trkpt><trkpt lat="45.7793677" lon="10.0052391"><ele>495.71428571428567</ele><time>2026-04-19T16:39:35.012Z</time></trkpt><trkpt lat="45.7793876" lon="10.0051517"><ele>492.57142857142856</ele><time>2026-04-19T16:39:36.012Z</time></trkpt><trkpt lat="45.7794049" lon="10.0050614"><ele>489.4285714285714</ele><time>2026-04-19T16:39:37.011Z</time></trkpt><trkpt lat="45.7794235" lon="10.0049686"><ele>486.2857142857142</ele><time>2026-04-19T16:39:38.012Z</time></trkpt><trkpt lat="45.7794527" lon="10.0048798"><ele>483.14285714285717</ele><time>2026-04-19T16:39:39.012Z</time></trkpt><trkpt lat="45.7794662" lon="10.0047822"><ele>480.0</ele><time>2026-04-19T16:39:40.012Z</time></trkpt><trkpt lat="45.7794747" lon="10.0046871"><ele>480.0</ele><time>2026-04-19T16:39:41.012Z</time></trkpt><trkpt lat="45.7794875" lon="10.0045231"><ele>480.0</ele><time>2026-04-19T16:39:43.011Z</time></trkpt><trkpt lat="45.779502" lon="10.0043535"><ele>480.0</ele><time>2026-04-19T16:39:45.012Z</time></trkpt><trkpt lat="45.7795043" lon="10.004157"><ele>480.0</ele><time>2026-04-19T16:39:47.012Z</time></trkpt><trkpt lat="45.7795033" lon="10.0040437"><ele>480.8333333333333</ele><time>2026-04-19T16:39:48.012Z</time></trkpt><trkpt lat="45.779491" lon="10.003942"><ele>481.66666666666663</ele><time>2026-04-19T16:39:49.012Z</time></trkpt><trkpt lat="45.7794908" lon="10.0037903"><ele>482.5</ele><time>2026-04-19T16:39:51.011Z</time></trkpt><trkpt lat="45.7794774" lon="10.0036559"><ele>483.3333333333333</ele><time>2026-04-19T16:39:53.012Z</time></trkpt><trkpt lat="45.7794802" lon="10.0035545"><ele>484.16666666666663</ele><time>2026-04-19T16:39:54.012Z</time></trkpt><trkpt lat="45.7795007" lon="10.0034609"><ele>485.0</ele><time>2026-04-19T16:39:55.011Z</time></trkpt><trkpt lat="45.7795362" lon="10.0033029"><ele>486.25</ele><time>2026-04-19T16:39:57.012Z</time></trkpt><trkpt lat="45.7795702" lon="10.0031633"><ele>487.5</ele><time>2026-04-19T16:39:59.012Z</time></trkpt><trkpt lat="45.779603" lon="10.0029745"><ele>488.75</ele><time>2026-04-19T16:40:01.011Z</time></trkpt><trkpt lat="45.7796424" lon="10.002802"><ele>490.0</ele><time>2026-04-19T16:40:03.012Z</time></trkpt><trkpt lat="45.7796546" lon="10.0026158"><ele>490.00000000000006</ele><time>2026-04-19T16:40:05.012Z</time></trkpt><trkpt lat="45.7796612" lon="10.0025218"><ele>490.0</ele><time>2026-04-19T16:40:06.011Z</time></trkpt><trkpt lat="45.7796816" lon="10.0023516"><ele>490.0</ele><time>2026-04-19T16:40:08.012Z</time></trkpt><trkpt lat="45.7796904" lon="10.0022502"><ele>490.0</ele><time>2026-04-19T16:40:09.012Z</time></trkpt><trkpt lat="45.7796989" lon="10.002151"><ele>490.00000000000006</ele><time>2026-04-19T16:40:10.012Z</time></trkpt><trkpt lat="45.7796842" lon="10.0019826"><ele>490.0</ele><time>2026-04-19T16:40:12.011Z</time></trkpt><trkpt lat="45.779642" lon="10.0018187"><ele>489.8</ele><time>2026-04-19T16:40:14.012Z</time></trkpt><trkpt lat="45.7795994" lon="10.0016983"><ele>489.6</ele><time>2026-04-19T16:40:16.012Z</time></trkpt><trkpt lat="45.7795752" lon="10.0016113"><ele>489.4</ele><time>2026-04-19T16:40:22.012Z</time></trkpt><trkpt lat="45.779554" lon="10.001416"><ele>489.2</ele><time>2026-04-19T16:40:24.011Z</time></trkpt><trkpt lat="45.7795284" lon="10.0012869"><ele>489.0</ele><time>2026-04-19T16:40:25.011Z</time></trkpt><trkpt lat="45.7795115" lon="10.0011521"><ele>488.6666666666667</ele><time>2026-04-19T16:40:26.012Z</time></trkpt><trkpt lat="45.7794955" lon="10.0010446"><ele>488.33333333333337</ele><time>2026-04-19T16:40:27.012Z</time></trkpt><trkpt lat="45.7794668" lon="10.0009298"><ele>488.0</ele><time>2026-04-19T16:40:28.011Z</time></trkpt><trkpt lat="45.7794213" lon="10.0007952"><ele>487.6666666666667</ele><time>2026-04-19T16:40:29.011Z</time></trkpt><trkpt lat="45.779397" lon="10.0006921"><ele>487.33333333333337</ele><time>2026-04-19T16:40:30.011Z</time></trkpt><trkpt lat="45.7793712" lon="10.0005958"><ele>487.0</ele><time>2026-04-19T16:40:31.011Z</time></trkpt><trkpt lat="45.7793607" lon="10.0004235"><ele>489.8</ele><time>2026-04-19T16:40:33.012Z</time></trkpt><trkpt lat="45.7793229" lon="10.0002374"><ele>492.6</ele><time>2026-04-19T16:40:35.012Z</time></trkpt><trkpt lat="45.7792992" lon="10.0001298"><ele>495.40000000000003</ele><time>2026-04-19T16:40:36.012Z</time></trkpt><trkpt lat="45.7792831" lon="10.000019"><ele>498.20000000000005</ele><time>2026-04-19T16:40:37.012Z</time></trkpt><trkpt lat="45.7792407" lon="9.9999024"><ele>501.0</ele><time>2026-04-19T16:40:38.012Z</time></trkpt><trkpt lat="45.779203" lon="9.9998068"><ele>501.0</ele><time>2026-04-19T16:40:39.012Z</time></trkpt><trkpt lat="45.7791257" lon="9.9996746"><ele>501.0</ele><time>2026-04-19T16:40:41.011Z</time></trkpt><trkpt lat="45.7790646" lon="9.9995875"><ele>501.0</ele><time>2026-04-19T16:40:43.012Z</time></trkpt><trkpt lat="45.7789805" lon="9.9995445"><ele>501.0</ele><time>2026-04-19T16:40:45.011Z</time></trkpt><trkpt lat="45.7788873" lon="9.9995441"><ele>501.0</ele><time>2026-04-19T16:40:47.012Z</time></trkpt><trkpt lat="45.7788241" lon="9.9995407"><ele>501.0</ele><time>2026-04-19T16:40:48.012Z</time></trkpt><trkpt lat="45.7787333" lon="9.9995656"><ele>501.0</ele><time>2026-04-19T16:40:50.012Z</time></trkpt><trkpt lat="45.7786465" lon="9.9995894"><ele>501.0</ele><time>2026-04-19T16:40:52.012Z</time></trkpt><trkpt lat="45.7785703" lon="9.999623"><ele>501.0</ele><time>2026-04-19T16:40:54.012Z</time></trkpt><trkpt lat="45.7785022" lon="9.9996483"><ele>501.0</ele><time>2026-04-19T16:40:56.011Z</time></trkpt><trkpt lat="45.7784236" lon="9.9995546"><ele>501.0</ele><time>2026-04-19T16:40:58.012Z</time></trkpt><trkpt lat="45.7783725" lon="9.9994136"><ele>501.6666666666667</ele><time>2026-04-19T16:41:00.011Z</time></trkpt><trkpt lat="45.7783382" lon="9.999296"><ele>502.33333333333337</ele><time>2026-04-19T16:41:02.012Z</time></trkpt><trkpt lat="45.7783092" lon="9.9991908"><ele>503.0</ele><time>2026-04-19T16:41:04.012Z</time></trkpt><trkpt lat="45.7782853" lon="9.9990949"><ele>503.6666666666667</ele><time>2026-04-19T16:41:06.012Z</time></trkpt><trkpt lat="45.7782474" lon="9.9990087"><ele>504.33333333333337</ele><time>2026-04-19T16:41:08.012Z</time></trkpt><trkpt lat="45.7781872" lon="9.9989224"><ele>505.0</ele><time>2026-04-19T16:41:10.011Z</time></trkpt><trkpt lat="45.7781182" lon="9.9988513"><ele>505.0</ele><time>2026-04-19T16:41:12.012Z</time></trkpt><trkpt lat="45.7780184" lon="9.9987986"><ele>505.0</ele><time>2026-04-19T16:41:14.012Z</time></trkpt><trkpt lat="45.7779247" lon="9.9987531"><ele>505.0</ele><time>2026-04-19T16:41:16.012Z</time></trkpt><trkpt lat="45.7778538" lon="9.9986791"><ele>505.0</ele><time>2026-04-19T16:41:18.012Z</time></trkpt><trkpt lat="45.7777671" lon="9.9986177"><ele>505.0</ele><time>2026-04-19T16:41:20.011Z</time></trkpt><trkpt lat="45.7777074" lon="9.9985614"><ele>505.8</ele><time>2026-04-19T16:41:26.011Z</time></trkpt><trkpt lat="45.7776586" lon="9.9984742"><ele>506.6</ele><time>2026-04-19T16:41:29.011Z</time></trkpt><trkpt lat="45.7776559" lon="9.9983493"><ele>507.4</ele><time>2026-04-19T16:41:30.012Z</time></trkpt><trkpt lat="45.7776413" lon="9.9981917"><ele>508.2</ele><time>2026-04-19T16:41:32.012Z</time></trkpt><trkpt lat="45.7775705" lon="9.998063"><ele>509.0</ele><time>2026-04-19T16:41:34.012Z</time></trkpt><trkpt lat="45.7774986" lon="9.9979445"><ele>509.0</ele><time>2026-04-19T16:41:36.012Z</time></trkpt><trkpt lat="45.7774328" lon="9.9978227"><ele>509.0</ele><time>2026-04-19T16:41:38.012Z</time></trkpt><trkpt lat="45.7773716" lon="9.9976966"><ele>509.0</ele><time>2026-04-19T16:41:40.012Z</time></trkpt><trkpt lat="45.7773406" lon="9.9975644"><ele>509.0</ele><time>2026-04-19T16:41:42.011Z</time></trkpt><trkpt lat="45.777354" lon="9.9974277"><ele>509.0</ele><time>2026-04-19T16:41:44.012Z</time></trkpt><trkpt lat="45.7774089" lon="9.9972548"><ele>508.3333333333333</ele><time>2026-04-19T16:41:46.012Z</time></trkpt><trkpt lat="45.7774398" lon="9.9971719"><ele>507.66666666666663</ele><time>2026-04-19T16:41:47.012Z</time></trkpt><trkpt lat="45.7774649" lon="9.9970787"><ele>507.0</ele><time>2026-04-19T16:41:48.011Z</time></trkpt><trkpt lat="45.7774989" lon="9.9969262"><ele>506.33333333333337</ele><time>2026-04-19T16:41:50.012Z</time></trkpt><trkpt lat="45.7774706" lon="9.9968224"><ele>505.6666666666667</ele><time>2026-04-19T16:41:52.012Z</time></trkpt><trkpt lat="45.7774192" lon="9.9967127"><ele>505.0</ele><time>2026-04-19T16:41:54.012Z</time></trkpt><trkpt lat="45.7773317" lon="9.9965934"><ele>503.75</ele><time>2026-04-19T16:41:56.011Z</time></trkpt><trkpt lat="45.7772378" lon="9.9964899"><ele>502.5</ele><time>2026-04-19T16:41:58.012Z</time></trkpt><trkpt lat="45.7771234" lon="9.9964337"><ele>501.25</ele><time>2026-04-19T16:42:00.012Z</time></trkpt><trkpt lat="45.7770076" lon="9.9963957"><ele>500.0</ele><time>2026-04-19T16:42:02.012Z</time></trkpt><trkpt lat="45.7769211" lon="9.9963176"><ele>500.0</ele><time>2026-04-19T16:42:04.011Z</time></trkpt><trkpt lat="45.7768807" lon="9.9961996"><ele>500.0</ele><time>2026-04-19T16:42:06.012Z</time></trkpt><trkpt lat="45.7769116" lon="9.9960609"><ele>500.0</ele><time>2026-04-19T16:42:08.012Z</time></trkpt><trkpt lat="45.7769481" lon="9.9959543"><ele>500.0</ele><time>2026-04-19T16:42:09.011Z</time></trkpt><trkpt lat="45.7770105" lon="9.9958284"><ele>500.0</ele><time>2026-04-19T16:42:11.012Z</time></trkpt><trkpt lat="45.7770546" lon="9.9957111"><ele>499.16666666666663</ele><time>2026-04-19T16:42:13.012Z</time></trkpt><trkpt lat="45.7770571" lon="9.9955958"><ele>498.3333333333333</ele><time>2026-04-19T16:42:15.012Z</time></trkpt><trkpt lat="45.7770956" lon="9.9954797"><ele>497.5</ele><time>2026-04-19T16:42:17.012Z</time></trkpt><trkpt lat="45.7771566" lon="9.9953992"><ele>496.66666666666663</ele><time>2026-04-19T16:42:19.012Z</time></trkpt><trkpt lat="45.7772689" lon="9.9954263"><ele>495.8333333333333</ele><time>2026-04-19T16:42:21.012Z</time></trkpt><trkpt lat="45.7773311" lon="9.9954468"><ele>495.0</ele><time>2026-04-19T16:42:22.012Z</time></trkpt><trkpt lat="45.7773971" lon="9.9954356"><ele>495.0</ele><time>2026-04-19T16:42:23.012Z</time></trkpt><trkpt lat="45.7774734" lon="9.9954004"><ele>495.0</ele><time>2026-04-19T16:42:24.011Z</time></trkpt><trkpt lat="45.7775737" lon="9.9953299"><ele>495.0</ele><time>2026-04-19T16:42:25.012Z</time></trkpt><trkpt lat="45.777687" lon="9.9952347"><ele>495.0</ele><time>2026-04-19T16:42:26.011Z</time></trkpt><trkpt lat="45.7777579" lon="9.9951688"><ele>495.0</ele><time>2026-04-19T16:42:27.011Z</time></trkpt><trkpt lat="45.7778159" lon="9.9951059"><ele>494.0</ele><time>2026-04-19T16:42:28.011Z</time></trkpt><trkpt lat="45.7778966" lon="9.9950074"><ele>493.0</ele><time>2026-04-19T16:42:30.012Z</time></trkpt><trkpt lat="45.7779859" lon="9.9949066"><ele>492.0</ele><time>2026-04-19T16:42:32.012Z</time></trkpt><trkpt lat="45.7780927" lon="9.9948507"><ele>491.0</ele><time>2026-04-19T16:42:34.012Z</time></trkpt><trkpt lat="45.7781617" lon="9.9948272"><ele>490.0</ele><time>2026-04-19T16:42:35.012Z</time></trkpt><trkpt lat="45.7782235" lon="9.9947985"><ele>490.00000000000006</ele><time>2026-04-19T16:42:36.011Z</time></trkpt><trkpt lat="45.7782859" lon="9.9947621"><ele>490.0</ele><time>2026-04-19T16:42:37.012Z</time></trkpt><trkpt lat="45.7783959" lon="9.9946662"><ele>490.0</ele><time>2026-04-19T16:42:39.012Z</time></trkpt><trkpt lat="45.7784504" lon="9.9946173"><ele>490.0</ele><time>2026-04-19T16:42:40.011Z</time></trkpt><trkpt lat="45.7785043" lon="9.9945602"><ele>490.00000000000006</ele><time>2026-04-19T16:42:41.012Z</time></trkpt><trkpt lat="45.7785953" lon="9.9944825"><ele>490.0</ele><time>2026-04-19T16:42:43.011Z</time></trkpt><trkpt lat="45.7786861" lon="9.9944283"><ele>487.33333333333337</ele><time>2026-04-19T16:42:45.012Z</time></trkpt><trkpt lat="45.7787816" lon="9.9944334"><ele>484.6666666666667</ele><time>2026-04-19T16:42:47.011Z</time></trkpt><trkpt lat="45.7788756" lon="9.9944404"><ele>482.0</ele><time>2026-04-19T16:42:49.012Z</time></trkpt><trkpt lat="45.7789392" lon="9.9944325"><ele>479.33333333333337</ele><time>2026-04-19T16:42:50.012Z</time></trkpt><trkpt lat="45.7790075" lon="9.9944242"><ele>476.6666666666667</ele><time>2026-04-19T16:42:51.012Z</time></trkpt><trkpt lat="45.7791198" lon="9.994397"><ele>474.0</ele><time>2026-04-19T16:42:53.012Z</time></trkpt><trkpt lat="45.7791857" lon="9.9943762"><ele>474.0</ele><time>2026-04-19T16:42:54.011Z</time></trkpt><trkpt lat="45.7792752" lon="9.9943413"><ele>474.0</ele><time>2026-04-19T16:42:56.011Z</time></trkpt><trkpt lat="45.7793343" lon="9.9942856"><ele>474.0</ele><time>2026-04-19T16:42:57.011Z</time></trkpt><trkpt lat="45.7794371" lon="9.9941662"><ele>474.0</ele><time>2026-04-19T16:42:59.011Z</time></trkpt><trkpt lat="45.7794952" lon="9.9940969"><ele>474.0</ele><time>2026-04-19T16:43:00.011Z</time></trkpt><trkpt lat="45.7795596" lon="9.9940312"><ele>472.0</ele><time>2026-04-19T16:43:01.011Z</time></trkpt><trkpt lat="45.7796258" lon="9.9939736"><ele>470.0</ele><time>2026-04-19T16:43:02.011Z</time></trkpt><trkpt lat="45.779689" lon="9.9939391"><ele>468.0</ele><time>2026-04-19T16:43:03.012Z</time></trkpt><trkpt lat="45.7797611" lon="9.9939122"><ele>466.0</ele><time>2026-04-19T16:43:04.012Z</time></trkpt><trkpt lat="45.7798318" lon="9.9938839"><ele>464.0</ele><time>2026-04-19T16:43:05.012Z</time></trkpt><trkpt lat="45.7798963" lon="9.9938956"><ele>462.0</ele><time>2026-04-19T16:43:06.012Z</time></trkpt><trkpt lat="45.7800178" lon="9.9938924"><ele>462.0</ele><time>2026-04-19T16:43:08.011Z</time></trkpt><trkpt lat="45.7800801" lon="9.9938677"><ele>462.0</ele><time>2026-04-19T16:43:09.012Z</time></trkpt><trkpt lat="45.7801896" lon="9.9937835"><ele>462.0</ele><time>2026-04-19T16:43:11.012Z</time></trkpt><trkpt lat="45.7802339" lon="9.9937085"><ele>462.0</ele><time>2026-04-19T16:43:12.011Z</time></trkpt><trkpt lat="45.7802791" lon="9.9936395"><ele>462.0</ele><time>2026-04-19T16:43:13.012Z</time></trkpt><trkpt lat="45.7803231" lon="9.9935684"><ele>462.0</ele><time>2026-04-19T16:43:14.012Z</time></trkpt><trkpt lat="45.7804026" lon="9.9934457"><ele>457.40000000000003</ele><time>2026-04-19T16:43:16.012Z</time></trkpt><trkpt lat="45.7804892" lon="9.9933195"><ele>452.80000000000007</ele><time>2026-04-19T16:43:18.012Z</time></trkpt><trkpt lat="45.7805675" lon="9.9931857"><ele>448.2</ele><time>2026-04-19T16:43:20.012Z</time></trkpt><trkpt lat="45.7806098" lon="9.9930845"><ele>443.6</ele><time>2026-04-19T16:43:21.011Z</time></trkpt><trkpt lat="45.7806613" lon="9.9930019"><ele>439.0</ele><time>2026-04-19T16:43:22.011Z</time></trkpt><trkpt lat="45.7807223" lon="9.9929379"><ele>439.00000000000006</ele><time>2026-04-19T16:43:23.011Z</time></trkpt><trkpt lat="45.7807806" lon="9.9928726"><ele>439.0</ele><time>2026-04-19T16:43:24.012Z</time></trkpt><trkpt lat="45.7808379" lon="9.992809"><ele>439.0</ele><time>2026-04-19T16:43:25.012Z</time></trkpt><trkpt lat="45.7808864" lon="9.9927496"><ele>439.0</ele><time>2026-04-19T16:43:26.011Z</time></trkpt><trkpt lat="45.7809521" lon="9.9926094"><ele>439.00000000000006</ele><time>2026-04-19T16:43:28.012Z</time></trkpt><trkpt lat="45.7809854" lon="9.9924593"><ele>439.0</ele><time>2026-04-19T16:43:30.012Z</time></trkpt><trkpt lat="45.7810166" lon="9.9923029"><ele>434.79999999999995</ele><time>2026-04-19T16:43:32.011Z</time></trkpt><trkpt lat="45.7810561" lon="9.9921467"><ele>430.59999999999997</ele><time>2026-04-19T16:43:34.012Z</time></trkpt><trkpt lat="45.7811301" lon="9.9920326"><ele>426.4</ele><time>2026-04-19T16:43:36.012Z</time></trkpt><trkpt lat="45.7812345" lon="9.9919837"><ele>422.2</ele><time>2026-04-19T16:43:38.012Z</time></trkpt><trkpt lat="45.7813265" lon="9.9919824"><ele>418.0</ele><time>2026-04-19T16:43:40.012Z</time></trkpt><trkpt lat="45.7813987" lon="9.9920649"><ele>418.00000000000006</ele><time>2026-04-19T16:43:42.011Z</time></trkpt><trkpt lat="45.7814774" lon="9.9921554"><ele>418.0</ele><time>2026-04-19T16:43:44.012Z</time></trkpt><trkpt lat="45.7815173" lon="9.9922709"><ele>418.0</ele><time>2026-04-19T16:43:46.011Z</time></trkpt><trkpt lat="45.7815376" lon="9.9923716"><ele>418.0</ele><time>2026-04-19T16:43:48.012Z</time></trkpt><trkpt lat="45.7815635" lon="9.9924745"><ele>418.00000000000006</ele><time>2026-04-19T16:43:50.011Z</time></trkpt><trkpt lat="45.7816344" lon="9.9924898"><ele>418.0</ele><time>2026-04-19T16:43:52.012Z</time></trkpt><trkpt lat="45.781695" lon="9.9924286"><ele>418.0</ele><time>2026-04-19T16:43:54.011Z</time></trkpt><trkpt lat="45.7817589" lon="9.9923608"><ele>418.0</ele><time>2026-04-19T16:43:56.012Z</time></trkpt><trkpt lat="45.7818498" lon="9.9922761"><ele>418.0</ele><time>2026-04-19T16:43:58.012Z</time></trkpt><trkpt lat="45.7819436" lon="9.9922417"><ele>418.0</ele><time>2026-04-19T16:44:00.011Z</time></trkpt><trkpt lat="45.7820423" lon="9.9922556"><ele>418.0</ele><time>2026-04-19T16:44:02.012Z</time></trkpt><trkpt lat="45.7821356" lon="9.9922954"><ele>414.4</ele><time>2026-04-19T16:44:04.011Z</time></trkpt><trkpt lat="45.7822243" lon="9.9923526"><ele>410.79999999999995</ele><time>2026-04-19T16:44:06.012Z</time></trkpt><trkpt lat="45.7823408" lon="9.9923506"><ele>407.2</ele><time>2026-04-19T16:44:08.012Z</time></trkpt><trkpt lat="45.7824457" lon="9.9923345"><ele>403.6</ele><time>2026-04-19T16:44:10.011Z</time></trkpt><trkpt lat="45.7825139" lon="9.9923672"><ele>400.0</ele><time>2026-04-19T16:44:12.011Z</time></trkpt><trkpt lat="45.7825872" lon="9.9924297"><ele>392.75</ele><time>2026-04-19T16:44:14.011Z</time></trkpt><trkpt lat="45.7826831" lon="9.9925019"><ele>385.5</ele><time>2026-04-19T16:44:16.012Z</time></trkpt><trkpt lat="45.7827688" lon="9.992611"><ele>378.25</ele><time>2026-04-19T16:44:18.012Z</time></trkpt><trkpt lat="45.7828052" lon="9.9927685"><ele>371.0</ele><time>2026-04-19T16:44:20.011Z</time></trkpt><trkpt lat="45.7828199" lon="9.9929323"><ele>370.6</ele><time>2026-04-19T16:44:22.012Z</time></trkpt><trkpt lat="45.7828164" lon="9.9930833"><ele>370.20000000000005</ele><time>2026-04-19T16:44:24.012Z</time></trkpt><trkpt lat="45.7828079" lon="9.9932219"><ele>369.79999999999995</ele><time>2026-04-19T16:44:26.012Z</time></trkpt><trkpt lat="45.7827764" lon="9.9933621"><ele>369.4</ele><time>2026-04-19T16:44:28.011Z</time></trkpt><trkpt lat="45.7827346" lon="9.9935098"><ele>369.0</ele><time>2026-04-19T16:44:30.012Z</time></trkpt><trkpt lat="45.7827118" lon="9.9936741"><ele>368.8333333333333</ele><time>2026-04-19T16:44:32.011Z</time></trkpt><trkpt lat="45.7826976" lon="9.9937781"><ele>368.6666666666667</ele><time>2026-04-19T16:44:33.012Z</time></trkpt><trkpt lat="45.7826885" lon="9.9938723"><ele>368.5</ele><time>2026-04-19T16:44:34.011Z</time></trkpt><trkpt lat="45.7826729" lon="9.9940446"><ele>368.33333333333337</ele><time>2026-04-19T16:44:36.012Z</time></trkpt><trkpt lat="45.7826682" lon="9.9941369"><ele>368.1666666666667</ele><time>2026-04-19T16:44:37.012Z</time></trkpt><trkpt lat="45.7826641" lon="9.9942275"><ele>368.0</ele><time>2026-04-19T16:44:38.012Z</time></trkpt><trkpt lat="45.7826539" lon="9.9943915"><ele>368.0</ele><time>2026-04-19T16:44:40.012Z</time></trkpt><trkpt lat="45.7826576" lon="9.994524"><ele>368.0</ele><time>2026-04-19T16:44:42.012Z</time></trkpt><trkpt lat="45.7826463" lon="9.9946765"><ele>368.0</ele><time>2026-04-19T16:44:44.012Z</time></trkpt><trkpt lat="45.7826384" lon="9.9948152"><ele>368.0</ele><time>2026-04-19T16:44:46.012Z</time></trkpt><trkpt lat="45.7827196" lon="9.99492"><ele>368.0</ele><time>2026-04-19T16:44:48.011Z</time></trkpt><trkpt lat="45.7828372" lon="9.9950175"><ele>368.0</ele><time>2026-04-19T16:44:50.011Z</time></trkpt><trkpt lat="45.7828935" lon="9.995065"><ele>368.0</ele><time>2026-04-19T16:44:51.012Z</time></trkpt><trkpt lat="45.7829496" lon="9.99511"><ele>368.0</ele><time>2026-04-19T16:44:52.012Z</time></trkpt><trkpt lat="45.7830473" lon="9.9951458"><ele>368.0</ele><time>2026-04-19T16:44:54.012Z</time></trkpt><trkpt lat="45.7831535" lon="9.9951455"><ele>368.0</ele><time>2026-04-19T16:44:56.012Z</time></trkpt><trkpt lat="45.7832424" lon="9.9951638"><ele>368.0</ele><time>2026-04-19T16:44:58.012Z</time></trkpt><trkpt lat="45.7833438" lon="9.995176"><ele>368.0</ele><time>2026-04-19T16:45:00.012Z</time></trkpt><trkpt lat="45.7834403" lon="9.9951958"><ele>368.0</ele><time>2026-04-19T16:45:02.011Z</time></trkpt><trkpt lat="45.7835529" lon="9.9952194"><ele>368.0</ele><time>2026-04-19T16:45:04.011Z</time></trkpt><trkpt lat="45.7836649" lon="9.9952484"><ele>368.0</ele><time>2026-04-19T16:45:06.011Z</time></trkpt><trkpt lat="45.7837319" lon="9.9952574"><ele>368.0</ele><time>2026-04-19T16:45:07.012Z</time></trkpt><trkpt lat="45.7838582" lon="9.995243"><ele>366.8571428571429</ele><time>2026-04-19T16:45:09.012Z</time></trkpt><trkpt lat="45.7839224" lon="9.9952346"><ele>365.71428571428567</ele><time>2026-04-19T16:45:10.012Z</time></trkpt><trkpt lat="45.7839846" lon="9.9952176"><ele>364.57142857142856</ele><time>2026-04-19T16:45:11.012Z</time></trkpt><trkpt lat="45.7840541" lon="9.9952068"><ele>363.42857142857144</ele><time>2026-04-19T16:45:12.011Z</time></trkpt><trkpt lat="45.7841247" lon="9.9952166"><ele>362.28571428571433</ele><time>2026-04-19T16:45:13.011Z</time></trkpt><trkpt lat="45.7841882" lon="9.9952393"><ele>361.1428571428571</ele><time>2026-04-19T16:45:14.011Z</time></trkpt><trkpt lat="45.78426" lon="9.9952582"><ele>360.0</ele><time>2026-04-19T16:45:15.012Z</time></trkpt><trkpt lat="45.7843727" lon="9.9953064"><ele>359.1666666666667</ele><time>2026-04-19T16:45:17.012Z</time></trkpt><trkpt lat="45.7844959" lon="9.9952781"><ele>358.3333333333333</ele><time>2026-04-19T16:45:19.012Z</time></trkpt><trkpt lat="45.7845608" lon="9.9952604"><ele>357.5</ele><time>2026-04-19T16:45:20.011Z</time></trkpt><trkpt lat="45.7846374" lon="9.9952312"><ele>356.66666666666663</ele><time>2026-04-19T16:45:21.012Z</time></trkpt><trkpt lat="45.7847071" lon="9.9952045"><ele>355.8333333333333</ele><time>2026-04-19T16:45:22.012Z</time></trkpt><trkpt lat="45.7847832" lon="9.9951824"><ele>355.0</ele><time>2026-04-19T16:45:23.012Z</time></trkpt><trkpt lat="45.7848589" lon="9.9951866"><ele>355.0</ele><time>2026-04-19T16:45:24.012Z</time></trkpt><trkpt lat="45.7849346" lon="9.9951947"><ele>355.0</ele><time>2026-04-19T16:45:25.012Z</time></trkpt><trkpt lat="45.7850227" lon="9.9952023"><ele>355.0</ele><time>2026-04-19T16:45:26.012Z</time></trkpt><trkpt lat="45.7851081" lon="9.9952073"><ele>355.0</ele><time>2026-04-19T16:45:27.012Z</time></trkpt><trkpt lat="45.7851927" lon="9.9952078"><ele>355.0</ele><time>2026-04-19T16:45:28.012Z</time></trkpt><trkpt lat="45.7852777" lon="9.9952049"><ele>355.0</ele><time>2026-04-19T16:45:29.011Z</time></trkpt><trkpt lat="45.7853654" lon="9.9952028"><ele>354.0</ele><time>2026-04-19T16:45:30.012Z</time></trkpt><trkpt lat="45.7854501" lon="9.9951702"><ele>353.0</ele><time>2026-04-19T16:45:31.012Z</time></trkpt><trkpt lat="45.7855201" lon="9.9951267"><ele>352.0</ele><time>2026-04-19T16:45:32.012Z</time></trkpt><trkpt lat="45.7855904" lon="9.9950776"><ele>351.0</ele><time>2026-04-19T16:45:33.012Z</time></trkpt><trkpt lat="45.7856519" lon="9.9950259"><ele>350.0</ele><time>2026-04-19T16:45:34.011Z</time></trkpt><trkpt lat="45.7857131" lon="9.9949871"><ele>349.0</ele><time>2026-04-19T16:45:35.011Z</time></trkpt><trkpt lat="45.7857778" lon="9.9948482"><ele>349.0</ele><time>2026-04-19T16:45:37.012Z</time></trkpt><trkpt lat="45.7857815" lon="9.9947029"><ele>349.0</ele><time>2026-04-19T16:45:39.011Z</time></trkpt><trkpt lat="45.7857787" lon="9.9945787"><ele>349.0</ele><time>2026-04-19T16:45:41.011Z</time></trkpt><trkpt lat="45.7858152" lon="9.9944387"><ele>349.0</ele><time>2026-04-19T16:45:43.012Z</time></trkpt><trkpt lat="45.7858618" lon="9.9943735"><ele>349.0</ele><time>2026-04-19T16:45:44.012Z</time></trkpt><trkpt lat="45.7859399" lon="9.9942927"><ele>349.0</ele><time>2026-04-19T16:45:45.011Z</time></trkpt><trkpt lat="45.7860041" lon="9.9942263"><ele>349.0</ele><time>2026-04-19T16:45:46.011Z</time></trkpt><trkpt lat="45.7860566" lon="9.9941749"><ele>349.0</ele><time>2026-04-19T16:45:47.012Z</time></trkpt><trkpt lat="45.7861094" lon="9.9941225"><ele>349.0</ele><time>2026-04-19T16:45:48.011Z</time></trkpt><trkpt lat="45.786193" lon="9.9940587"><ele>349.0</ele><time>2026-04-19T16:45:50.012Z</time></trkpt><trkpt lat="45.786272" lon="9.9940737"><ele>349.0</ele><time>2026-04-19T16:45:52.012Z</time></trkpt><trkpt lat="45.7863427" lon="9.9942084"><ele>348.5</ele><time>2026-04-19T16:45:54.012Z</time></trkpt><trkpt lat="45.7863698" lon="9.9943161"><ele>348.0</ele><time>2026-04-19T16:45:55.011Z</time></trkpt><trkpt lat="45.7863926" lon="9.9944266"><ele>347.5</ele><time>2026-04-19T16:45:56.012Z</time></trkpt><trkpt lat="45.786417" lon="9.9945517"><ele>347.0</ele><time>2026-04-19T16:45:57.012Z</time></trkpt><trkpt lat="45.7864389" lon="9.994689"><ele>346.5</ele><time>2026-04-19T16:45:58.012Z</time></trkpt><trkpt lat="45.7864597" lon="9.9948299"><ele>346.0</ele><time>2026-04-19T16:45:59.012Z</time></trkpt><trkpt lat="45.7864846" lon="9.9949715"><ele>346.20000000000005</ele><time>2026-04-19T16:46:00.012Z</time></trkpt><trkpt lat="45.7865057" lon="9.9951168"><ele>346.40000000000003</ele><time>2026-04-19T16:46:01.011Z</time></trkpt><trkpt lat="45.7865116" lon="9.9952656"><ele>346.6</ele><time>2026-04-19T16:46:02.012Z</time></trkpt><trkpt lat="45.7865037" lon="9.9954156"><ele>346.8</ele><time>2026-04-19T16:46:03.012Z</time></trkpt><trkpt lat="45.7865" lon="9.9955691"><ele>347.0</ele><time>2026-04-19T16:46:04.011Z</time></trkpt><trkpt lat="45.7864944" lon="9.9957064"><ele>347.0</ele><time>2026-04-19T16:46:05.012Z</time></trkpt><trkpt lat="45.7864877" lon="9.9958338"><ele>347.0</ele><time>2026-04-19T16:46:06.012Z</time></trkpt><trkpt lat="45.786484" lon="9.9959534"><ele>347.0</ele><time>2026-04-19T16:46:07.012Z</time></trkpt><trkpt lat="45.7864845" lon="9.9960684"><ele>347.0</ele><time>2026-04-19T16:46:08.012Z</time></trkpt><trkpt lat="45.786489" lon="9.9961879"><ele>347.0</ele><time>2026-04-19T16:46:09.012Z</time></trkpt><trkpt lat="45.7864893" lon="9.9963148"><ele>347.0</ele><time>2026-04-19T16:46:10.011Z</time></trkpt><trkpt lat="45.7864902" lon="9.9964547"><ele>347.0</ele><time>2026-04-19T16:46:11.011Z</time></trkpt><trkpt lat="45.7864901" lon="9.99659"><ele>347.0</ele><time>2026-04-19T16:46:12.012Z</time></trkpt><trkpt lat="45.7864919" lon="9.9967339"><ele>347.0</ele><time>2026-04-19T16:46:13.012Z</time></trkpt><trkpt lat="45.786492" lon="9.9968859"><ele>347.0</ele><time>2026-04-19T16:46:14.012Z</time></trkpt><trkpt lat="45.7864918" lon="9.9970459"><ele>347.0</ele><time>2026-04-19T16:46:15.012Z</time></trkpt><trkpt lat="45.7864907" lon="9.9972066"><ele>346.75</ele><time>2026-04-19T16:46:16.012Z</time></trkpt><trkpt lat="45.786489" lon="9.9973696"><ele>346.5</ele><time>2026-04-19T16:46:17.012Z</time></trkpt><trkpt lat="45.7864937" lon="9.9975344"><ele>346.25</ele><time>2026-04-19T16:46:18.012Z</time></trkpt><trkpt lat="45.7865054" lon="9.9976999"><ele>346.0</ele><time>2026-04-19T16:46:19.012Z</time></trkpt><trkpt lat="45.7865254" lon="9.9978629"><ele>345.8</ele><time>2026-04-19T16:46:20.012Z</time></trkpt><trkpt lat="45.7865505" lon="9.9980192"><ele>345.6</ele><time>2026-04-19T16:46:21.011Z</time></trkpt><trkpt lat="45.7865765" lon="9.9981685"><ele>345.4</ele><time>2026-04-19T16:46:22.012Z</time></trkpt><trkpt lat="45.7866047" lon="9.9983148"><ele>345.2</ele><time>2026-04-19T16:46:23.012Z</time></trkpt><trkpt lat="45.7866325" lon="9.9984593"><ele>345.0</ele><time>2026-04-19T16:46:24.012Z</time></trkpt><trkpt lat="45.7866617" lon="9.9986087"><ele>345.4</ele><time>2026-04-19T16:46:25.012Z</time></trkpt><trkpt lat="45.7866868" lon="9.9987537"><ele>345.8</ele><time>2026-04-19T16:46:26.011Z</time></trkpt><trkpt lat="45.7867099" lon="9.9989096"><ele>346.20000000000005</ele><time>2026-04-19T16:46:27.012Z</time></trkpt><trkpt lat="45.7867285" lon="9.9990638"><ele>346.6</ele><time>2026-04-19T16:46:28.011Z</time></trkpt><trkpt lat="45.7867479" lon="9.9992152"><ele>347.0</ele><time>2026-04-19T16:46:29.012Z</time></trkpt><trkpt lat="45.7867693" lon="9.9993629"><ele>347.0</ele><time>2026-04-19T16:46:30.012Z</time></trkpt><trkpt lat="45.7867897" lon="9.9995123"><ele>347.0</ele><time>2026-04-19T16:46:31.011Z</time></trkpt><trkpt lat="45.7868132" lon="9.9996593"><ele>347.0</ele><time>2026-04-19T16:46:32.012Z</time></trkpt><trkpt lat="45.7868287" lon="9.9997885"><ele>347.0</ele><time>2026-04-19T16:46:33.012Z</time></trkpt><trkpt lat="45.7868412" lon="9.9999111"><ele>347.0</ele><time>2026-04-19T16:46:34.012Z</time></trkpt><trkpt lat="45.7868828" lon="10.000008"><ele>347.0</ele><time>2026-04-19T16:46:35.012Z</time></trkpt><trkpt lat="45.7869242" lon="10.0000832"><ele>347.0</ele><time>2026-04-19T16:46:36.011Z</time></trkpt><trkpt lat="45.7870098" lon="10.000143"><ele>347.0</ele><time>2026-04-19T16:46:38.012Z</time></trkpt><trkpt lat="45.7870923" lon="10.000189"><ele>347.0</ele><time>2026-04-19T16:46:41.012Z</time></trkpt><trkpt lat="45.7870796" lon="10.0002872"><ele>347.0</ele><time>2026-04-19T16:46:44.012Z</time></trkpt><trkpt lat="45.7870523" lon="10.0004124"><ele>347.0</ele><time>2026-04-19T16:46:46.011Z</time></trkpt><trkpt lat="45.7870057" lon="10.0005768"><ele>347.0</ele><time>2026-04-19T16:46:48.011Z</time></trkpt><trkpt lat="45.7869683" lon="10.0007131"><ele>347.0</ele><time>2026-04-19T16:46:49.012Z</time></trkpt><trkpt lat="45.7869331" lon="10.0008744"><ele>347.0</ele><time>2026-04-19T16:46:50.012Z</time></trkpt><trkpt lat="45.7869011" lon="10.0010609"><ele>347.0</ele><time>2026-04-19T16:46:51.012Z</time></trkpt><trkpt lat="45.7868774" lon="10.0012811"><ele>347.33333333333337</ele><time>2026-04-19T16:46:52.012Z</time></trkpt><trkpt lat="45.7868488" lon="10.001538"><ele>347.6666666666667</ele><time>2026-04-19T16:46:53.012Z</time></trkpt><trkpt lat="45.7868195" lon="10.0017795"><ele>348.0</ele><time>2026-04-19T16:46:54.011Z</time></trkpt><trkpt lat="45.7867937" lon="10.0020089"><ele>347.5</ele><time>2026-04-19T16:46:55.011Z</time></trkpt><trkpt lat="45.7867726" lon="10.0022217"><ele>347.0</ele><time>2026-04-19T16:46:56.012Z</time></trkpt><trkpt lat="45.7867572" lon="10.0024193"><ele>346.5</ele><time>2026-04-19T16:46:57.012Z</time></trkpt><trkpt lat="45.7867455" lon="10.0026011"><ele>346.0</ele><time>2026-04-19T16:46:58.011Z</time></trkpt><trkpt lat="45.786742" lon="10.0027727"><ele>346.0</ele><time>2026-04-19T16:46:59.011Z</time></trkpt><trkpt lat="45.7867487" lon="10.0029302"><ele>346.0</ele><time>2026-04-19T16:47:00.012Z</time></trkpt><trkpt lat="45.7867622" lon="10.0030751"><ele>346.0</ele><time>2026-04-19T16:47:01.012Z</time></trkpt><trkpt lat="45.786775" lon="10.0032082"><ele>346.0</ele><time>2026-04-19T16:47:02.012Z</time></trkpt><trkpt lat="45.7867906" lon="10.0033455"><ele>346.0</ele><time>2026-04-19T16:47:03.012Z</time></trkpt><trkpt lat="45.7868035" lon="10.0034899"><ele>346.0</ele><time>2026-04-19T16:47:04.011Z</time></trkpt><trkpt lat="45.7868064" lon="10.0036356"><ele>346.0</ele><time>2026-04-19T16:47:05.011Z</time></trkpt><trkpt lat="45.7868116" lon="10.0037857"><ele>346.0</ele><time>2026-04-19T16:47:06.012Z</time></trkpt><trkpt lat="45.7868167" lon="10.0039397"><ele>346.0</ele><time>2026-04-19T16:47:07.011Z</time></trkpt><trkpt lat="45.7868197" lon="10.0041195"><ele>346.0</ele><time>2026-04-19T16:47:08.011Z</time></trkpt><trkpt lat="45.7868147" lon="10.0042896"><ele>347.0</ele><time>2026-04-19T16:47:09.011Z</time></trkpt><trkpt lat="45.7868051" lon="10.0044623"><ele>348.0</ele><time>2026-04-19T16:47:10.012Z</time></trkpt><trkpt lat="45.7867958" lon="10.0046414"><ele>349.0</ele><time>2026-04-19T16:47:11.012Z</time></trkpt><trkpt lat="45.7867881" lon="10.0048181"><ele>350.0</ele><time>2026-04-19T16:47:12.011Z</time></trkpt><trkpt lat="45.7867828" lon="10.0049912"><ele>351.0</ele><time>2026-04-19T16:47:13.012Z</time></trkpt><trkpt lat="45.7867751" lon="10.005168"><ele>352.0</ele><time>2026-04-19T16:47:14.012Z</time></trkpt><trkpt lat="45.786766" lon="10.0053446"><ele>353.0</ele><time>2026-04-19T16:47:15.011Z</time></trkpt><trkpt lat="45.7867646" lon="10.0055212"><ele>354.0</ele><time>2026-04-19T16:47:16.012Z</time></trkpt><trkpt lat="45.7867719" lon="10.0056979"><ele>355.5</ele><time>2026-04-19T16:47:17.012Z</time></trkpt><trkpt lat="45.7867834" lon="10.0058732"><ele>357.0</ele><time>2026-04-19T16:47:18.012Z</time></trkpt><trkpt lat="45.7868018" lon="10.0060478"><ele>358.5</ele><time>2026-04-19T16:47:19.012Z</time></trkpt><trkpt lat="45.7868234" lon="10.006225"><ele>360.0</ele><time>2026-04-19T16:47:20.012Z</time></trkpt><trkpt lat="45.786853" lon="10.0064027"><ele>356.5</ele><time>2026-04-19T16:47:21.011Z</time></trkpt><trkpt lat="45.7868876" lon="10.0065803"><ele>353.0</ele><time>2026-04-19T16:47:22.011Z</time></trkpt><trkpt lat="45.7869378" lon="10.0067561"><ele>349.5</ele><time>2026-04-19T16:47:23.012Z</time></trkpt><trkpt lat="45.786992" lon="10.006938"><ele>346.0</ele><time>2026-04-19T16:47:24.012Z</time></trkpt><trkpt lat="45.7870454" lon="10.0071185"><ele>346.0</ele><time>2026-04-19T16:47:25.012Z</time></trkpt><trkpt lat="45.787101" lon="10.0073109"><ele>346.0</ele><time>2026-04-19T16:47:26.012Z</time></trkpt><trkpt lat="45.7871575" lon="10.0074989"><ele>346.0</ele><time>2026-04-19T16:47:27.012Z</time></trkpt><trkpt lat="45.7872134" lon="10.0076925"><ele>346.0</ele><time>2026-04-19T16:47:28.011Z</time></trkpt><trkpt lat="45.787271" lon="10.0078873"><ele>346.75</ele><time>2026-04-19T16:47:29.012Z</time></trkpt><trkpt lat="45.7873224" lon="10.0080774"><ele>347.5</ele><time>2026-04-19T16:47:30.012Z</time></trkpt><trkpt lat="45.7873728" lon="10.0082727"><ele>348.25</ele><time>2026-04-19T16:47:31.012Z</time></trkpt><trkpt lat="45.7874271" lon="10.0084665"><ele>349.0</ele><time>2026-04-19T16:47:32.011Z</time></trkpt><trkpt lat="45.7874802" lon="10.0086597"><ele>349.5</ele><time>2026-04-19T16:47:33.012Z</time></trkpt><trkpt lat="45.7875339" lon="10.0088564"><ele>350.0</ele><time>2026-04-19T16:47:34.011Z</time></trkpt><trkpt lat="45.7875903" lon="10.0090521"><ele>350.5</ele><time>2026-04-19T16:47:35.012Z</time></trkpt><trkpt lat="45.787645" lon="10.0092504"><ele>351.0</ele><time>2026-04-19T16:47:36.011Z</time></trkpt><trkpt lat="45.787698" lon="10.009444"><ele>351.5</ele><time>2026-04-19T16:47:37.011Z</time></trkpt><trkpt lat="45.7877503" lon="10.0096382"><ele>352.0</ele><time>2026-04-19T16:47:38.012Z</time></trkpt><trkpt lat="45.787803" lon="10.0098257"><ele>352.5</ele><time>2026-04-19T16:47:39.011Z</time></trkpt><trkpt lat="45.7878538" lon="10.0100055"><ele>353.0</ele><time>2026-04-19T16:47:40.011Z</time></trkpt><trkpt lat="45.7879028" lon="10.0101861"><ele>353.0</ele><time>2026-04-19T16:47:41.012Z</time></trkpt><trkpt lat="45.7879523" lon="10.0103663"><ele>353.0</ele><time>2026-04-19T16:47:42.011Z</time></trkpt><trkpt lat="45.7880023" lon="10.0105419"><ele>353.0</ele><time>2026-04-19T16:47:43.012Z</time></trkpt><trkpt lat="45.7880541" lon="10.0107211"><ele>353.0</ele><time>2026-04-19T16:47:44.012Z</time></trkpt><trkpt lat="45.7881102" lon="10.0108931"><ele>354.79999999999995</ele><time>2026-04-19T16:47:45.012Z</time></trkpt><trkpt lat="45.7881811" lon="10.0110471"><ele>356.6</ele><time>2026-04-19T16:47:46.012Z</time></trkpt><trkpt lat="45.788261" lon="10.0111673"><ele>358.4</ele><time>2026-04-19T16:47:47.011Z</time></trkpt><trkpt lat="45.7883442" lon="10.011263"><ele>360.20000000000005</ele><time>2026-04-19T16:47:48.012Z</time></trkpt><trkpt lat="45.7884214" lon="10.0113483"><ele>362.0</ele><time>2026-04-19T16:47:49.012Z</time></trkpt><trkpt lat="45.7884707" lon="10.0114424"><ele>362.0</ele><time>2026-04-19T16:47:50.011Z</time></trkpt><trkpt lat="45.7884887" lon="10.0115571"><ele>362.0</ele><time>2026-04-19T16:47:51.012Z</time></trkpt><trkpt lat="45.7884711" lon="10.0116579"><ele>362.0</ele><time>2026-04-19T16:47:52.011Z</time></trkpt><trkpt lat="45.7884161" lon="10.0117335"><ele>362.0</ele><time>2026-04-19T16:47:53.012Z</time></trkpt><trkpt lat="45.78834" lon="10.0117646"><ele>362.0</ele><time>2026-04-19T16:47:54.012Z</time></trkpt><trkpt lat="45.7882532" lon="10.0117411"><ele>362.0</ele><time>2026-04-19T16:47:55.012Z</time></trkpt><trkpt lat="45.7881734" lon="10.0116832"><ele>362.0</ele><time>2026-04-19T16:47:56.012Z</time></trkpt><trkpt lat="45.7880917" lon="10.0116165"><ele>362.0</ele><time>2026-04-19T16:47:57.012Z</time></trkpt><trkpt lat="45.7880031" lon="10.0115577"><ele>362.0</ele><time>2026-04-19T16:47:58.012Z</time></trkpt><trkpt lat="45.7879062" lon="10.0115123"><ele>362.0</ele><time>2026-04-19T16:47:59.012Z</time></trkpt><trkpt lat="45.7878109" lon="10.0114615"><ele>362.0</ele><time>2026-04-19T16:48:00.012Z</time></trkpt><trkpt lat="45.7877125" lon="10.0114149"><ele>363.40000000000003</ele><time>2026-04-19T16:48:01.012Z</time></trkpt><trkpt lat="45.7876113" lon="10.0113711"><ele>364.8</ele><time>2026-04-19T16:48:02.011Z</time></trkpt><trkpt lat="45.7875135" lon="10.0113213"><ele>366.2</ele><time>2026-04-19T16:48:03.012Z</time></trkpt><trkpt lat="45.7874238" lon="10.0112661"><ele>367.6</ele><time>2026-04-19T16:48:04.011Z</time></trkpt><trkpt lat="45.7873314" lon="10.0112028"><ele>369.0</ele><time>2026-04-19T16:48:05.011Z</time></trkpt><trkpt lat="45.7872369" lon="10.0111492"><ele>369.0</ele><time>2026-04-19T16:48:06.012Z</time></trkpt><trkpt lat="45.7871443" lon="10.0110848"><ele>369.0</ele><time>2026-04-19T16:48:07.012Z</time></trkpt><trkpt lat="45.7870598" lon="10.0109939"><ele>369.0</ele><time>2026-04-19T16:48:08.012Z</time></trkpt><trkpt lat="45.7869731" lon="10.0109014"><ele>369.0</ele><time>2026-04-19T16:48:09.012Z</time></trkpt><trkpt lat="45.7868892" lon="10.0108132"><ele>369.0</ele><time>2026-04-19T16:48:10.012Z</time></trkpt><trkpt lat="45.7868063" lon="10.0107231"><ele>370.4</ele><time>2026-04-19T16:48:11.012Z</time></trkpt><trkpt lat="45.7867256" lon="10.010645"><ele>371.79999999999995</ele><time>2026-04-19T16:48:12.012Z</time></trkpt><trkpt lat="45.786635" lon="10.0105781"><ele>373.20000000000005</ele><time>2026-04-19T16:48:13.011Z</time></trkpt><trkpt lat="45.786528" lon="10.0105458"><ele>374.6</ele><time>2026-04-19T16:48:14.012Z</time></trkpt><trkpt lat="45.7864374" lon="10.0105187"><ele>376.0</ele><time>2026-04-19T16:48:15.012Z</time></trkpt><trkpt lat="45.7863278" lon="10.0105424"><ele>376.0</ele><time>2026-04-19T16:48:16.012Z</time></trkpt><trkpt lat="45.7862319" lon="10.010577"><ele>376.0</ele><time>2026-04-19T16:48:17.012Z</time></trkpt><trkpt lat="45.7861457" lon="10.0106554"><ele>376.0</ele><time>2026-04-19T16:48:18.012Z</time></trkpt><trkpt lat="45.7860672" lon="10.0107443"><ele>376.0</ele><time>2026-04-19T16:48:19.011Z</time></trkpt><trkpt lat="45.7860061" lon="10.0108395"><ele>376.0</ele><time>2026-04-19T16:48:20.012Z</time></trkpt><trkpt lat="45.7859614" lon="10.0109288"><ele>378.0</ele><time>2026-04-19T16:48:21.012Z</time></trkpt><trkpt lat="45.7859214" lon="10.0110103"><ele>380.0</ele><time>2026-04-19T16:48:22.012Z</time></trkpt><trkpt lat="45.7858601" lon="10.0111464"><ele>382.0</ele><time>2026-04-19T16:48:24.012Z</time></trkpt><trkpt lat="45.7858394" lon="10.01124"><ele>384.0</ele><time>2026-04-19T16:48:26.011Z</time></trkpt><trkpt lat="45.7859118" lon="10.0112211"><ele>386.00000000000006</ele><time>2026-04-19T16:48:28.012Z</time></trkpt><trkpt lat="45.7859816" lon="10.01112"><ele>388.0</ele><time>2026-04-19T16:48:30.012Z</time></trkpt><trkpt lat="45.7860525" lon="10.0110341"><ele>388.0</ele><time>2026-04-19T16:48:32.012Z</time></trkpt><trkpt lat="45.7861042" lon="10.0110948"><ele>388.0</ele><time>2026-04-19T16:48:34.012Z</time></trkpt><trkpt lat="45.78611" lon="10.0112393"><ele>388.0</ele><time>2026-04-19T16:48:36.012Z</time></trkpt><trkpt lat="45.7861053" lon="10.0113988"><ele>388.0</ele><time>2026-04-19T16:48:38.012Z</time></trkpt><trkpt lat="45.7861336" lon="10.011536"><ele>388.0</ele><time>2026-04-19T16:48:40.012Z</time></trkpt><trkpt lat="45.7862007" lon="10.0116436"><ele>391.2</ele><time>2026-04-19T16:48:42.011Z</time></trkpt><trkpt lat="45.7862981" lon="10.0117078"><ele>394.4</ele><time>2026-04-19T16:48:44.011Z</time></trkpt><trkpt lat="45.7863955" lon="10.0117921"><ele>397.59999999999997</ele><time>2026-04-19T16:48:46.011Z</time></trkpt><trkpt lat="45.7864485" lon="10.0119001"><ele>400.79999999999995</ele><time>2026-04-19T16:48:48.012Z</time></trkpt><trkpt lat="45.7864226" lon="10.012024"><ele>404.0</ele><time>2026-04-19T16:48:50.012Z</time></trkpt><trkpt lat="45.7863706" lon="10.0120972"><ele>404.0</ele><time>2026-04-19T16:48:52.011Z</time></trkpt><trkpt lat="45.7863743" lon="10.0121887"><ele>404.0</ele><time>2026-04-19T16:48:55.012Z</time></trkpt><trkpt lat="45.7864432" lon="10.0121981"><ele>404.0</ele><time>2026-04-19T16:48:57.011Z</time></trkpt><trkpt lat="45.786527" lon="10.0122129"><ele>404.0</ele><time>2026-04-19T16:49:00.012Z</time></trkpt><trkpt lat="45.7865986" lon="10.012218"><ele>404.0</ele><time>2026-04-19T16:50:13.012Z</time></trkpt><trkpt lat="45.7866716" lon="10.0122327"><ele>404.0</ele><time>2026-04-19T16:50:34.011Z</time></trkpt><trkpt lat="45.7867241" lon="10.0122965"><ele>404.0</ele><time>2026-04-19T16:50:38.012Z</time></trkpt><trkpt lat="45.7867393" lon="10.0123877"><ele>404.0</ele><time>2026-04-19T16:51:08.011Z</time></trkpt><trkpt lat="45.7867236" lon="10.0124857"><ele>404.0</ele><time>2026-04-19T16:51:28.012Z</time></trkpt><trkpt lat="45.786695" lon="10.012589"><ele>404.0</ele><time>2026-04-19T16:51:34.012Z</time></trkpt><trkpt lat="45.7866709" lon="10.0126959"><ele>404.0</ele><time>2026-04-19T16:51:39.012Z</time></trkpt><trkpt lat="45.7866831" lon="10.0128161"><ele>404.0</ele><time>2026-04-19T16:51:42.011Z</time></trkpt><trkpt lat="45.7867282" lon="10.0128867"><ele>404.0</ele><time>2026-04-19T16:51:45.011Z</time></trkpt><trkpt lat="45.7867515" lon="10.0129748"><ele>404.0</ele><time>2026-04-19T16:52:12.012Z</time></trkpt><trkpt lat="45.7867149" lon="10.0130627"><ele>408.4</ele><time>2026-04-19T16:52:33.011Z</time></trkpt><trkpt lat="45.7866377" lon="10.013084"><ele>412.79999999999995</ele><time>2026-04-19T16:52:36.012Z</time></trkpt><trkpt lat="45.7865694" lon="10.0131544"><ele>417.20000000000005</ele><time>2026-04-19T16:52:39.011Z</time></trkpt><trkpt lat="45.7864972" lon="10.0132336"><ele>421.6</ele><time>2026-04-19T16:52:41.011Z</time></trkpt><trkpt lat="45.7864048" lon="10.0132578"><ele>426.0</ele><time>2026-04-19T16:52:43.011Z</time></trkpt><trkpt lat="45.7863202" lon="10.0133486"><ele>429.8</ele><time>2026-04-19T16:52:45.011Z</time></trkpt><trkpt lat="45.7862639" lon="10.0134773"><ele>433.6</ele><time>2026-04-19T16:52:47.012Z</time></trkpt><trkpt lat="45.7862156" lon="10.0136341"><ele>437.4</ele><time>2026-04-19T16:52:49.011Z</time></trkpt><trkpt lat="45.7862286" lon="10.0137942"><ele>441.2</ele><time>2026-04-19T16:52:51.011Z</time></trkpt><trkpt lat="45.7862506" lon="10.0139213"><ele>445.0</ele><time>2026-04-19T16:52:53.011Z</time></trkpt><trkpt lat="45.7862613" lon="10.0140538"><ele>448.1666666666667</ele><time>2026-04-19T16:52:55.012Z</time></trkpt><trkpt lat="45.7862867" lon="10.0142081"><ele>451.33333333333337</ele><time>2026-04-19T16:52:57.011Z</time></trkpt><trkpt lat="45.7862613" lon="10.0143081"><ele>454.5</ele><time>2026-04-19T16:52:59.012Z</time></trkpt><trkpt lat="45.7862236" lon="10.0144181"><ele>457.66666666666663</ele><time>2026-04-19T16:53:01.012Z</time></trkpt><trkpt lat="45.7861695" lon="10.0145006"><ele>460.8333333333333</ele><time>2026-04-19T16:53:03.012Z</time></trkpt><trkpt lat="45.7861061" lon="10.0145715"><ele>464.0</ele><time>2026-04-19T16:53:09.012Z</time></trkpt><trkpt lat="45.7860486" lon="10.0146234"><ele>463.00000000000006</ele><time>2026-04-19T16:53:11.012Z</time></trkpt><trkpt lat="45.7859888" lon="10.0146796"><ele>462.0</ele><time>2026-04-19T16:54:07.012Z</time></trkpt><trkpt lat="45.7859379" lon="10.0147334"><ele>461.00000000000006</ele><time>2026-04-19T16:54:20.011Z</time></trkpt><trkpt lat="45.785889" lon="10.01481"><ele>460.00000000000006</ele><time>2026-04-19T16:54:23.011Z</time></trkpt><trkpt lat="45.7858405" lon="10.0148726"><ele>459.0</ele><time>2026-04-19T16:54:24.012Z</time></trkpt><trkpt lat="45.7857758" lon="10.0149632"><ele>458.00000000000006</ele><time>2026-04-19T16:54:26.012Z</time></trkpt><trkpt lat="45.7858349" lon="10.0150171"><ele>457.00000000000006</ele><time>2026-04-19T16:54:41.012Z</time></trkpt><trkpt lat="45.7858972" lon="10.0150487"><ele>459.50000000000006</ele><time>2026-04-19T16:54:43.012Z</time></trkpt><trkpt lat="45.7859504" lon="10.0151543"><ele>462.0</ele><time>2026-04-19T16:54:45.012Z</time></trkpt><trkpt lat="45.7860164" lon="10.0152995"><ele>464.5</ele><time>2026-04-19T16:54:47.011Z</time></trkpt><trkpt lat="45.786052" lon="10.0154"><ele>467.0</ele><time>2026-04-19T16:54:48.012Z</time></trkpt><trkpt lat="45.786096" lon="10.0154758"><ele>469.50000000000006</ele><time>2026-04-19T16:54:49.011Z</time></trkpt><trkpt lat="45.7861443" lon="10.0155449"><ele>472.0</ele><time>2026-04-19T16:54:50.011Z</time></trkpt><trkpt lat="45.786202" lon="10.0155915"><ele>473.83333333333337</ele><time>2026-04-19T16:54:51.012Z</time></trkpt><trkpt lat="45.7862836" lon="10.0156489"><ele>475.6666666666667</ele><time>2026-04-19T16:54:53.011Z</time></trkpt><trkpt lat="45.7863024" lon="10.0157684"><ele>477.5</ele><time>2026-04-19T16:54:55.011Z</time></trkpt><trkpt lat="45.7862596" lon="10.0158624"><ele>479.33333333333337</ele><time>2026-04-19T16:54:56.012Z</time></trkpt><trkpt lat="45.7862365" lon="10.015976"><ele>481.1666666666667</ele><time>2026-04-19T16:54:57.011Z</time></trkpt><trkpt lat="45.7862239" lon="10.0161133"><ele>483.0</ele><time>2026-04-19T16:54:58.012Z</time></trkpt><trkpt lat="45.7862205" lon="10.016259"><ele>485.0</ele><time>2026-04-19T16:54:59.011Z</time></trkpt><trkpt lat="45.7861966" lon="10.0164036"><ele>487.0</ele><time>2026-04-19T16:55:00.012Z</time></trkpt><trkpt lat="45.7861929" lon="10.0165321"><ele>489.0</ele><time>2026-04-19T16:55:01.011Z</time></trkpt><trkpt lat="45.7862141" lon="10.0166866"><ele>491.0</ele><time>2026-04-19T16:55:03.011Z</time></trkpt><trkpt lat="45.7862087" lon="10.0167846"><ele>493.0</ele><time>2026-04-19T16:55:05.012Z</time></trkpt><trkpt lat="45.7861878" lon="10.0168792"><ele>495.0</ele><time>2026-04-19T16:55:07.01Z</time></trkpt><trkpt lat="45.7861554" lon="10.0170029"><ele>493.0</ele><time>2026-04-19T16:55:09.012Z</time></trkpt><trkpt lat="45.7861155" lon="10.0171129"><ele>491.0</ele><time>2026-04-19T16:55:11.011Z</time></trkpt><trkpt lat="45.7860434" lon="10.017206"><ele>489.0</ele><time>2026-04-19T16:55:13.012Z</time></trkpt><trkpt lat="45.78597" lon="10.0172679"><ele>487.0</ele><time>2026-04-19T16:55:15.012Z</time></trkpt><trkpt lat="45.7858831" lon="10.0172899"><ele>485.0</ele><time>2026-04-19T16:55:17.012Z</time></trkpt><trkpt lat="45.7857881" lon="10.0172858"><ele>484.99999999999994</ele><time>2026-04-19T16:55:19.011Z</time></trkpt><trkpt lat="45.7856898" lon="10.0172831"><ele>485.0</ele><time>2026-04-19T16:55:21.011Z</time></trkpt><trkpt lat="45.7856078" lon="10.0173002"><ele>485.0</ele><time>2026-04-19T16:55:23.012Z</time></trkpt><trkpt lat="45.7855353" lon="10.0172738"><ele>485.0</ele><time>2026-04-19T16:55:25.011Z</time></trkpt><trkpt lat="45.7854753" lon="10.0172431"><ele>484.99999999999994</ele><time>2026-04-19T16:55:27.011Z</time></trkpt><trkpt lat="45.7853971" lon="10.0171986"><ele>485.0</ele><time>2026-04-19T16:55:29.012Z</time></trkpt><trkpt lat="45.7852886" lon="10.0171868"><ele>484.99999999999994</ele><time>2026-04-19T16:55:31.012Z</time></trkpt><trkpt lat="45.7851804" lon="10.0172204"><ele>485.0</ele><time>2026-04-19T16:55:33.012Z</time></trkpt><trkpt lat="45.7851207" lon="10.0172617"><ele>485.0</ele><time>2026-04-19T16:55:34.011Z</time></trkpt><trkpt lat="45.7850682" lon="10.0173192"><ele>485.0</ele><time>2026-04-19T16:55:35.012Z</time></trkpt><trkpt lat="45.7850241" lon="10.0173898"><ele>484.99999999999994</ele><time>2026-04-19T16:55:36.012Z</time></trkpt><trkpt lat="45.784969" lon="10.0175383"><ele>485.0</ele><time>2026-04-19T16:55:38.011Z</time></trkpt><trkpt lat="45.7849227" lon="10.0177002"><ele>484.4285714285715</ele><time>2026-04-19T16:55:40.011Z</time></trkpt><trkpt lat="45.7848987" lon="10.0177908"><ele>483.8571428571429</ele><time>2026-04-19T16:55:41.012Z</time></trkpt><trkpt lat="45.7848746" lon="10.0178816"><ele>483.2857142857143</ele><time>2026-04-19T16:55:42.012Z</time></trkpt><trkpt lat="45.7848585" lon="10.017972"><ele>482.7142857142857</ele><time>2026-04-19T16:55:43.011Z</time></trkpt><trkpt lat="45.7848415" lon="10.0180718"><ele>482.1428571428571</ele><time>2026-04-19T16:55:44.011Z</time></trkpt><trkpt lat="45.7848384" lon="10.0181717"><ele>481.5714285714285</ele><time>2026-04-19T16:55:45.011Z</time></trkpt><trkpt lat="45.7848474" lon="10.0182727"><ele>480.99999999999994</ele><time>2026-04-19T16:55:46.012Z</time></trkpt><trkpt lat="45.7848571" lon="10.0183677"><ele>482.50000000000006</ele><time>2026-04-19T16:55:47.012Z</time></trkpt><trkpt lat="45.7848765" lon="10.0184692"><ele>484.0</ele><time>2026-04-19T16:55:48.012Z</time></trkpt><trkpt lat="45.7848834" lon="10.0185702"><ele>485.5</ele><time>2026-04-19T16:55:49.011Z</time></trkpt><trkpt lat="45.7848911" lon="10.0186692"><ele>487.0</ele><time>2026-04-19T16:55:50.012Z</time></trkpt><trkpt lat="45.7848807" lon="10.0187697"><ele>488.50000000000006</ele><time>2026-04-19T16:55:51.011Z</time></trkpt><trkpt lat="45.7848748" lon="10.0189436"><ele>490.0</ele><time>2026-04-19T16:55:53.012Z</time></trkpt><trkpt lat="45.7848563" lon="10.0190597"><ele>490.50000000000006</ele><time>2026-04-19T16:55:54.011Z</time></trkpt><trkpt lat="45.7848387" lon="10.019153"><ele>491.0</ele><time>2026-04-19T16:55:55.012Z</time></trkpt><trkpt lat="45.7848169" lon="10.0192434"><ele>491.5</ele><time>2026-04-19T16:55:56.011Z</time></trkpt><trkpt lat="45.7847712" lon="10.0193869"><ele>492.0</ele><time>2026-04-19T16:55:58.011Z</time></trkpt><trkpt lat="45.7847027" lon="10.0193998"><ele>492.50000000000006</ele><time>2026-04-19T16:56:00.012Z</time></trkpt><trkpt lat="45.784665" lon="10.0193025"><ele>493.0</ele><time>2026-04-19T16:56:02.011Z</time></trkpt><trkpt lat="45.7846413" lon="10.0191997"><ele>492.50000000000006</ele><time>2026-04-19T16:56:03.012Z</time></trkpt><trkpt lat="45.784546" lon="10.0190906"><ele>492.0</ele><time>2026-04-19T16:56:05.012Z</time></trkpt><trkpt lat="45.7844756" lon="10.0190568"><ele>491.5</ele><time>2026-04-19T16:56:06.011Z</time></trkpt><trkpt lat="45.7843983" lon="10.0190198"><ele>491.0</ele><time>2026-04-19T16:56:07.011Z</time></trkpt><trkpt lat="45.7843224" lon="10.0189812"><ele>490.50000000000006</ele><time>2026-04-19T16:56:08.012Z</time></trkpt><trkpt lat="45.7842505" lon="10.0189363"><ele>490.0</ele><time>2026-04-19T16:56:09.012Z</time></trkpt><trkpt lat="45.7841698" lon="10.018894"><ele>487.83333333333337</ele><time>2026-04-19T16:56:10.012Z</time></trkpt><trkpt lat="45.7840941" lon="10.0188465"><ele>485.6666666666667</ele><time>2026-04-19T16:56:11.012Z</time></trkpt><trkpt lat="45.7840112" lon="10.0188112"><ele>483.5</ele><time>2026-04-19T16:56:12.012Z</time></trkpt><trkpt lat="45.7839401" lon="10.0187853"><ele>481.33333333333337</ele><time>2026-04-19T16:56:13.012Z</time></trkpt><trkpt lat="45.7838771" lon="10.0187562"><ele>479.1666666666667</ele><time>2026-04-19T16:56:14.012Z</time></trkpt><trkpt lat="45.7837849" lon="10.0188005"><ele>477.0</ele><time>2026-04-19T16:56:16.012Z</time></trkpt><trkpt lat="45.7837341" lon="10.0188841"><ele>477.0</ele><time>2026-04-19T16:56:17.012Z</time></trkpt><trkpt lat="45.7836781" lon="10.0189946"><ele>477.0</ele><time>2026-04-19T16:56:18.012Z</time></trkpt><trkpt lat="45.7836304" lon="10.0190945"><ele>477.0</ele><time>2026-04-19T16:56:19.012Z</time></trkpt><trkpt lat="45.783584" lon="10.0191732"><ele>477.0</ele><time>2026-04-19T16:56:20.012Z</time></trkpt><trkpt lat="45.7835246" lon="10.0192336"><ele>477.0</ele><time>2026-04-19T16:56:21.012Z</time></trkpt><trkpt lat="45.7834745" lon="10.019299"><ele>477.0</ele><time>2026-04-19T16:56:22.011Z</time></trkpt><trkpt lat="45.7834195" lon="10.0193556"><ele>477.0</ele><time>2026-04-19T16:56:23.011Z</time></trkpt><trkpt lat="45.7833574" lon="10.0194904"><ele>477.00000000000006</ele><time>2026-04-19T16:56:25.012Z</time></trkpt><trkpt lat="45.7833422" lon="10.0196423"><ele>477.00000000000006</ele><time>2026-04-19T16:56:27.011Z</time></trkpt><trkpt lat="45.7833601" lon="10.0198203"><ele>477.0</ele><time>2026-04-19T16:56:29.011Z</time></trkpt><trkpt lat="45.7833656" lon="10.0199205"><ele>477.0</ele><time>2026-04-19T16:56:30.012Z</time></trkpt><trkpt lat="45.7833811" lon="10.0200942"><ele>477.0</ele><time>2026-04-19T16:56:32.011Z</time></trkpt><trkpt lat="45.7833913" lon="10.0202054"><ele>476.99999999999994</ele><time>2026-04-19T16:56:34.012Z</time></trkpt><trkpt lat="45.7833318" lon="10.0201124"><ele>477.0</ele><time>2026-04-19T16:56:44.012Z</time></trkpt><trkpt lat="45.7833326" lon="10.0200057"><ele>477.0</ele><time>2026-04-19T16:56:45.012Z</time></trkpt><trkpt lat="45.7833358" lon="10.0199068"><ele>476.99999999999994</ele><time>2026-04-19T16:56:46.011Z</time></trkpt><trkpt lat="45.7833373" lon="10.0198101"><ele>477.0</ele><time>2026-04-19T16:56:47.011Z</time></trkpt><trkpt lat="45.7833132" lon="10.0197228"><ele>477.0</ele><time>2026-04-19T16:56:48.011Z</time></trkpt><trkpt lat="45.7832148" lon="10.01969"><ele>477.0</ele><time>2026-04-19T16:56:50.011Z</time></trkpt><trkpt lat="45.7831738" lon="10.0198424"><ele>477.00000000000006</ele><time>2026-04-19T16:56:52.012Z</time></trkpt><trkpt lat="45.7831684" lon="10.0199554"><ele>477.00000000000006</ele><time>2026-04-19T16:56:53.012Z</time></trkpt><trkpt lat="45.7831625" lon="10.0200859"><ele>477.0</ele><time>2026-04-19T16:56:54.012Z</time></trkpt><trkpt lat="45.7831389" lon="10.0202275"><ele>477.0</ele><time>2026-04-19T16:56:55.012Z</time></trkpt><trkpt lat="45.7831039" lon="10.0203584"><ele>477.6</ele><time>2026-04-19T16:56:56.012Z</time></trkpt><trkpt lat="45.7830554" lon="10.0204782"><ele>478.20000000000005</ele><time>2026-04-19T16:56:57.011Z</time></trkpt><trkpt lat="45.7829928" lon="10.0205815"><ele>478.8</ele><time>2026-04-19T16:56:58.011Z</time></trkpt><trkpt lat="45.7829209" lon="10.0206718"><ele>479.4</ele><time>2026-04-19T16:56:59.012Z</time></trkpt><trkpt lat="45.7828478" lon="10.0207529"><ele>480.0</ele><time>2026-04-19T16:57:00.012Z</time></trkpt><trkpt lat="45.7827772" lon="10.0208376"><ele>480.0</ele><time>2026-04-19T16:57:01.011Z</time></trkpt><trkpt lat="45.7827141" lon="10.0209238"><ele>480.0</ele><time>2026-04-19T16:57:02.012Z</time></trkpt><trkpt lat="45.7826613" lon="10.0210072"><ele>480.0</ele><time>2026-04-19T16:57:03.011Z</time></trkpt><trkpt lat="45.7826249" lon="10.0210949"><ele>480.0</ele><time>2026-04-19T16:57:04.012Z</time></trkpt><trkpt lat="45.7825837" lon="10.0212278"><ele>480.0</ele><time>2026-04-19T16:57:06.012Z</time></trkpt><trkpt lat="45.7825183" lon="10.0212278"><ele>480.0</ele><time>2026-04-19T16:57:08.012Z</time></trkpt><trkpt lat="45.782453" lon="10.0210634"><ele>476.1666666666667</ele><time>2026-04-19T16:57:10.012Z</time></trkpt><trkpt lat="45.782425" lon="10.0209539"><ele>472.33333333333337</ele><time>2026-04-19T16:57:11.011Z</time></trkpt><trkpt lat="45.7823896" lon="10.0208345"><ele>468.5</ele><time>2026-04-19T16:57:12.012Z</time></trkpt><trkpt lat="45.782346" lon="10.0207264"><ele>464.6666666666667</ele><time>2026-04-19T16:57:13.011Z</time></trkpt><trkpt lat="45.7822987" lon="10.0206313"><ele>460.83333333333337</ele><time>2026-04-19T16:57:14.012Z</time></trkpt><trkpt lat="45.7822551" lon="10.0205331"><ele>457.0</ele><time>2026-04-19T16:57:15.012Z</time></trkpt><trkpt lat="45.7822159" lon="10.02045"><ele>456.33333333333337</ele><time>2026-04-19T16:57:16.012Z</time></trkpt><trkpt lat="45.7821761" lon="10.0203795"><ele>455.6666666666667</ele><time>2026-04-19T16:57:17.011Z</time></trkpt><trkpt lat="45.782081" lon="10.0202737"><ele>455.0</ele><time>2026-04-19T16:57:19.011Z</time></trkpt><trkpt lat="45.7819874" lon="10.0201911"><ele>454.33333333333337</ele><time>2026-04-19T16:57:21.011Z</time></trkpt><trkpt lat="45.7819227" lon="10.0201658"><ele>453.6666666666667</ele><time>2026-04-19T16:57:23.012Z</time></trkpt><trkpt lat="45.78192" lon="10.020286"><ele>453.0</ele><time>2026-04-19T16:57:26.012Z</time></trkpt><trkpt lat="45.7819576" lon="10.0203932"><ele>452.99999999999994</ele><time>2026-04-19T16:57:28.011Z</time></trkpt><trkpt lat="45.7819956" lon="10.0204692"><ele>453.0</ele><time>2026-04-19T16:57:30.012Z</time></trkpt><trkpt lat="45.7819434" lon="10.0204137"><ele>452.99999999999994</ele><time>2026-04-19T16:58:04.011Z</time></trkpt><trkpt lat="45.7818757" lon="10.0203916"><ele>452.99999999999994</ele><time>2026-04-19T16:59:36.011Z</time></trkpt><trkpt lat="45.7819139" lon="10.0203189"><ele>453.0</ele><time>2026-04-19T16:59:45.012Z</time></trkpt><trkpt lat="45.7819458" lon="10.0203983"><ele>452.99999999999994</ele><time>2026-04-19T17:00:04.012Z</time></trkpt><trkpt lat="45.78187" lon="10.0203777"><ele>452.99999999999994</ele><time>2026-04-19T17:00:33.012Z</time></trkpt><trkpt lat="45.7818064" lon="10.0203345"><ele>452.99999999999994</ele><time>2026-04-19T17:01:23.012Z</time></trkpt><trkpt lat="45.7818338" lon="10.020244"><ele>453.0</ele><time>2026-04-19T17:01:28.971Z</time></trkpt><trkpt lat="45.7818905" lon="10.0202921"><ele>452.99999999999994</ele><time>2026-04-19T17:01:53.012Z</time></trkpt><trkpt lat="45.781817" lon="10.0203462"><ele>452.99999999999994</ele><time>2026-04-19T17:03:16.012Z</time></trkpt><trkpt lat="45.7818851" lon="10.0203175"><ele>453.0</ele><time>2026-04-19T17:07:46.012Z</time></trkpt><trkpt lat="45.7819555" lon="10.0203014"><ele>452.99999999999994</ele><time>2026-04-19T17:10:24.011Z</time></trkpt><trkpt lat="45.7819753" lon="10.0203895"><ele>452.99999999999994</ele><time>2026-04-19T17:10:53.012Z</time></trkpt><trkpt lat="45.7820226" lon="10.0204587"><ele>453.0</ele><time>2026-04-19T17:11:01.011Z</time></trkpt><trkpt lat="45.7820058" lon="10.0205777"><ele>453.0</ele><time>2026-04-19T17:11:09.012Z</time></trkpt><trkpt lat="45.7819398" lon="10.0205522"><ele>453.0</ele><time>2026-04-19T17:11:32.012Z</time></trkpt><trkpt lat="45.781933" lon="10.0204481"><ele>453.0</ele><time>2026-04-19T17:11:47.011Z</time></trkpt><trkpt lat="45.7819261" lon="10.0203441"><ele>453.0</ele><time>2026-04-19T17:12:03.012Z</time></trkpt><trkpt lat="45.7818932" lon="10.0202114"><ele>453.0</ele><time>2026-04-19T17:12:05.012Z</time></trkpt><trkpt lat="45.7818788" lon="10.0201186"><ele>450.8333333333333</ele><time>2026-04-19T17:12:07.012Z</time></trkpt><trkpt lat="45.7818303" lon="10.0200271"><ele>448.66666666666663</ele><time>2026-04-19T17:12:09.012Z</time></trkpt><trkpt lat="45.7817526" lon="10.019954"><ele>446.5</ele><time>2026-04-19T17:12:11.012Z</time></trkpt><trkpt lat="45.7816892" lon="10.0198863"><ele>444.3333333333333</ele><time>2026-04-19T17:12:13.012Z</time></trkpt><trkpt lat="45.7816913" lon="10.0197546"><ele>442.16666666666663</ele><time>2026-04-19T17:12:15.012Z</time></trkpt><trkpt lat="45.7817098" lon="10.0196648"><ele>440.0</ele><time>2026-04-19T17:12:16.011Z</time></trkpt><trkpt lat="45.781732" lon="10.0195631"><ele>440.16666666666663</ele><time>2026-04-19T17:12:17.011Z</time></trkpt><trkpt lat="45.7817591" lon="10.0194534"><ele>440.3333333333333</ele><time>2026-04-19T17:12:18.012Z</time></trkpt><trkpt lat="45.7817897" lon="10.019339"><ele>440.5</ele><time>2026-04-19T17:12:19.012Z</time></trkpt><trkpt lat="45.7818251" lon="10.0192187"><ele>440.66666666666663</ele><time>2026-04-19T17:12:20.012Z</time></trkpt><trkpt lat="45.7818628" lon="10.0190966"><ele>440.8333333333333</ele><time>2026-04-19T17:12:21.011Z</time></trkpt><trkpt lat="45.7819076" lon="10.0189784"><ele>441.0</ele><time>2026-04-19T17:12:22.012Z</time></trkpt><trkpt lat="45.7819565" lon="10.0188588"><ele>441.0</ele><time>2026-04-19T17:12:23.012Z</time></trkpt><trkpt lat="45.7820068" lon="10.0187486"><ele>441.0</ele><time>2026-04-19T17:12:24.011Z</time></trkpt><trkpt lat="45.7820582" lon="10.0186399"><ele>441.0</ele><time>2026-04-19T17:12:25.012Z</time></trkpt><trkpt lat="45.7821089" lon="10.0185271"><ele>441.0</ele><time>2026-04-19T17:12:26.012Z</time></trkpt><trkpt lat="45.7821612" lon="10.0184119"><ele>441.0</ele><time>2026-04-19T17:12:27.011Z</time></trkpt><trkpt lat="45.7822144" lon="10.0182925"><ele>439.20000000000005</ele><time>2026-04-19T17:12:28.011Z</time></trkpt><trkpt lat="45.7822652" lon="10.0181737"><ele>437.40000000000003</ele><time>2026-04-19T17:12:29.012Z</time></trkpt><trkpt lat="45.7823197" lon="10.0180599"><ele>435.6</ele><time>2026-04-19T17:12:30.012Z</time></trkpt><trkpt lat="45.7823769" lon="10.0179489"><ele>433.8</ele><time>2026-04-19T17:12:31.011Z</time></trkpt><trkpt lat="45.7824392" lon="10.0178425"><ele>432.0</ele><time>2026-04-19T17:12:32.012Z</time></trkpt><trkpt lat="45.7825041" lon="10.0177356"><ele>432.0</ele><time>2026-04-19T17:12:33.012Z</time></trkpt><trkpt lat="45.7825769" lon="10.017633"><ele>432.00000000000006</ele><time>2026-04-19T17:12:34.012Z</time></trkpt><trkpt lat="45.7826492" lon="10.0175314"><ele>432.00000000000006</ele><time>2026-04-19T17:12:35.011Z</time></trkpt><trkpt lat="45.782722" lon="10.0174298"><ele>432.0</ele><time>2026-04-19T17:12:36.012Z</time></trkpt><trkpt lat="45.7827921" lon="10.0173218"><ele>432.0</ele><time>2026-04-19T17:12:37.012Z</time></trkpt><trkpt lat="45.7828575" lon="10.0172121"><ele>432.8</ele><time>2026-04-19T17:12:38.012Z</time></trkpt><trkpt lat="45.7829243" lon="10.0170958"><ele>433.6</ele><time>2026-04-19T17:12:39.011Z</time></trkpt><trkpt lat="45.7829904" lon="10.0169818"><ele>434.40000000000003</ele><time>2026-04-19T17:12:40.012Z</time></trkpt><trkpt lat="45.7830527" lon="10.0168668"><ele>435.20000000000005</ele><time>2026-04-19T17:12:41.012Z</time></trkpt><trkpt lat="45.7831134" lon="10.0167499"><ele>436.0</ele><time>2026-04-19T17:12:42.012Z</time></trkpt><trkpt lat="45.7831709" lon="10.016635"><ele>434.0</ele><time>2026-04-19T17:12:43.011Z</time></trkpt><trkpt lat="45.7832251" lon="10.016514"><ele>432.0</ele><time>2026-04-19T17:12:44.012Z</time></trkpt><trkpt lat="45.7832805" lon="10.0163942"><ele>430.0</ele><time>2026-04-19T17:12:45.012Z</time></trkpt><trkpt lat="45.7833349" lon="10.0162748"><ele>428.0</ele><time>2026-04-19T17:12:46.011Z</time></trkpt><trkpt lat="45.7833883" lon="10.0161574"><ele>426.0</ele><time>2026-04-19T17:12:47.012Z</time></trkpt><trkpt lat="45.7834374" lon="10.0160325"><ele>426.0</ele><time>2026-04-19T17:12:48.012Z</time></trkpt><trkpt lat="45.7834811" lon="10.015899"><ele>426.0</ele><time>2026-04-19T17:12:49.012Z</time></trkpt><trkpt lat="45.7835188" lon="10.0157554"><ele>426.0</ele><time>2026-04-19T17:12:50.012Z</time></trkpt><trkpt lat="45.7835537" lon="10.0156098"><ele>426.0</ele><time>2026-04-19T17:12:51.012Z</time></trkpt><trkpt lat="45.783585" lon="10.0154699"><ele>426.0</ele><time>2026-04-19T17:12:52.012Z</time></trkpt><trkpt lat="45.783617" lon="10.0153357"><ele>426.0</ele><time>2026-04-19T17:12:53.012Z</time></trkpt><trkpt lat="45.7836566" lon="10.015194"><ele>426.0</ele><time>2026-04-19T17:12:54.012Z</time></trkpt><trkpt lat="45.7837045" lon="10.0150439"><ele>426.0</ele><time>2026-04-19T17:12:55.012Z</time></trkpt><trkpt lat="45.7837516" lon="10.0149025"><ele>426.0</ele><time>2026-04-19T17:12:56.011Z</time></trkpt><trkpt lat="45.7837997" lon="10.0147634"><ele>426.0</ele><time>2026-04-19T17:12:57.012Z</time></trkpt><trkpt lat="45.7838512" lon="10.0146371"><ele>423.8</ele><time>2026-04-19T17:12:58.012Z</time></trkpt><trkpt lat="45.7839144" lon="10.0145407"><ele>421.6</ele><time>2026-04-19T17:12:59.012Z</time></trkpt><trkpt lat="45.7839955" lon="10.0144871"><ele>419.4</ele><time>2026-04-19T17:13:00.012Z</time></trkpt><trkpt lat="45.7840928" lon="10.0144769"><ele>417.2</ele><time>2026-04-19T17:13:01.011Z</time></trkpt><trkpt lat="45.7841943" lon="10.0145003"><ele>415.0</ele><time>2026-04-19T17:13:02.011Z</time></trkpt><trkpt lat="45.7843006" lon="10.0145049"><ele>415.0</ele><time>2026-04-19T17:13:03.012Z</time></trkpt><trkpt lat="45.7844047" lon="10.0144601"><ele>415.0</ele><time>2026-04-19T17:13:04.011Z</time></trkpt><trkpt lat="45.7844889" lon="10.014363"><ele>415.0</ele><time>2026-04-19T17:13:05.012Z</time></trkpt><trkpt lat="45.7845499" lon="10.0142412"><ele>415.0</ele><time>2026-04-19T17:13:06.012Z</time></trkpt><trkpt lat="45.7845971" lon="10.0141002"><ele>415.0</ele><time>2026-04-19T17:13:07.012Z</time></trkpt><trkpt lat="45.7846328" lon="10.0139538"><ele>415.0</ele><time>2026-04-19T17:13:08.012Z</time></trkpt><trkpt lat="45.7846698" lon="10.0137973"><ele>415.0</ele><time>2026-04-19T17:13:09.011Z</time></trkpt><trkpt lat="45.784706" lon="10.0136425"><ele>415.0</ele><time>2026-04-19T17:13:10.012Z</time></trkpt><trkpt lat="45.7847418" lon="10.0134796"><ele>415.0</ele><time>2026-04-19T17:13:11.012Z</time></trkpt><trkpt lat="45.7847801" lon="10.0133197"><ele>412.0</ele><time>2026-04-19T17:13:12.011Z</time></trkpt><trkpt lat="45.784822" lon="10.0131511"><ele>409.0</ele><time>2026-04-19T17:13:13.012Z</time></trkpt><trkpt lat="45.7848807" lon="10.0129931"><ele>406.0</ele><time>2026-04-19T17:13:14.011Z</time></trkpt><trkpt lat="45.7849582" lon="10.0128522"><ele>403.0</ele><time>2026-04-19T17:13:15.011Z</time></trkpt><trkpt lat="45.7850513" lon="10.0127328"><ele>403.0</ele><time>2026-04-19T17:13:16.012Z</time></trkpt><trkpt lat="45.785148" lon="10.0126142"><ele>403.0</ele><time>2026-04-19T17:13:17.012Z</time></trkpt><trkpt lat="45.785237" lon="10.0124915"><ele>403.0</ele><time>2026-04-19T17:13:18.012Z</time></trkpt><trkpt lat="45.7853186" lon="10.0123639"><ele>403.0</ele><time>2026-04-19T17:13:19.012Z</time></trkpt><trkpt lat="45.7853954" lon="10.0122362"><ele>402.4</ele><time>2026-04-19T17:13:20.011Z</time></trkpt><trkpt lat="45.7854693" lon="10.0121084"><ele>401.79999999999995</ele><time>2026-04-19T17:13:21.012Z</time></trkpt><trkpt lat="45.7855366" lon="10.0119839"><ele>401.2</ele><time>2026-04-19T17:13:22.011Z</time></trkpt><trkpt lat="45.7855946" lon="10.011864"><ele>400.6</ele><time>2026-04-19T17:13:23.011Z</time></trkpt><trkpt lat="45.7856385" lon="10.0117365"><ele>400.0</ele><time>2026-04-19T17:13:24.012Z</time></trkpt><trkpt lat="45.7856761" lon="10.0116136"><ele>398.00000000000006</ele><time>2026-04-19T17:13:25.012Z</time></trkpt><trkpt lat="45.7857137" lon="10.0114964"><ele>396.0</ele><time>2026-04-19T17:13:26.011Z</time></trkpt><trkpt lat="45.7857594" lon="10.0113924"><ele>394.0</ele><time>2026-04-19T17:13:27.012Z</time></trkpt><trkpt lat="45.7858134" lon="10.0112957"><ele>392.0</ele><time>2026-04-19T17:13:28.011Z</time></trkpt><trkpt lat="45.785867" lon="10.0111929"><ele>390.00000000000006</ele><time>2026-04-19T17:13:29.012Z</time></trkpt><trkpt lat="45.7859228" lon="10.0110842"><ele>388.0</ele><time>2026-04-19T17:13:30.011Z</time></trkpt><trkpt lat="45.785978" lon="10.0109828"><ele>388.0</ele><time>2026-04-19T17:13:31.011Z</time></trkpt><trkpt lat="45.7860342" lon="10.0108767"><ele>388.0</ele><time>2026-04-19T17:13:32.012Z</time></trkpt><trkpt lat="45.7860946" lon="10.0107767"><ele>388.0</ele><time>2026-04-19T17:13:33.012Z</time></trkpt><trkpt lat="45.7861647" lon="10.0107045"><ele>388.0</ele><time>2026-04-19T17:13:34.012Z</time></trkpt><trkpt lat="45.786244" lon="10.0106451"><ele>388.0</ele><time>2026-04-19T17:13:35.011Z</time></trkpt><trkpt lat="45.786328" lon="10.0106012"><ele>385.59999999999997</ele><time>2026-04-19T17:13:36.012Z</time></trkpt><trkpt lat="45.7864162" lon="10.0105579"><ele>383.2</ele><time>2026-04-19T17:13:37.011Z</time></trkpt><trkpt lat="45.7865089" lon="10.0105469"><ele>380.8</ele><time>2026-04-19T17:13:38.012Z</time></trkpt><trkpt lat="45.786601" lon="10.0105682"><ele>378.4</ele><time>2026-04-19T17:13:39.012Z</time></trkpt><trkpt lat="45.786682" lon="10.0105966"><ele>376.0</ele><time>2026-04-19T17:13:40.011Z</time></trkpt><trkpt lat="45.7867596" lon="10.0106582"><ele>376.0</ele><time>2026-04-19T17:13:41.012Z</time></trkpt><trkpt lat="45.7868352" lon="10.0107466"><ele>376.0</ele><time>2026-04-19T17:13:42.012Z</time></trkpt><trkpt lat="45.7869142" lon="10.0108283"><ele>376.0</ele><time>2026-04-19T17:13:43.012Z</time></trkpt><trkpt lat="45.7869934" lon="10.0109157"><ele>376.0</ele><time>2026-04-19T17:13:44.011Z</time></trkpt><trkpt lat="45.7870815" lon="10.0110085"><ele>376.0</ele><time>2026-04-19T17:13:45.012Z</time></trkpt><trkpt lat="45.7871778" lon="10.0111032"><ele>374.25</ele><time>2026-04-19T17:13:46.012Z</time></trkpt><trkpt lat="45.7872819" lon="10.0111836"><ele>372.5</ele><time>2026-04-19T17:13:47.012Z</time></trkpt><trkpt lat="45.78739" lon="10.0112573"><ele>370.75</ele><time>2026-04-19T17:13:48.011Z</time></trkpt><trkpt lat="45.7875024" lon="10.0113295"><ele>369.0</ele><time>2026-04-19T17:13:49.012Z</time></trkpt><trkpt lat="45.7876167" lon="10.0113944"><ele>367.25</ele><time>2026-04-19T17:13:50.011Z</time></trkpt><trkpt lat="45.7877318" lon="10.0114512"><ele>365.5</ele><time>2026-04-19T17:13:51.012Z</time></trkpt><trkpt lat="45.787847" lon="10.0114994"><ele>363.75</ele><time>2026-04-19T17:13:52.012Z</time></trkpt><trkpt lat="45.7879583" lon="10.0115477"><ele>362.0</ele><time>2026-04-19T17:13:53.011Z</time></trkpt><trkpt lat="45.7880624" lon="10.0116138"><ele>363.0</ele><time>2026-04-19T17:13:54.012Z</time></trkpt><trkpt lat="45.7881611" lon="10.0116847"><ele>364.0</ele><time>2026-04-19T17:13:55.011Z</time></trkpt><trkpt lat="45.7882564" lon="10.0117486"><ele>365.0</ele><time>2026-04-19T17:13:56.012Z</time></trkpt><trkpt lat="45.788352" lon="10.011782"><ele>366.0</ele><time>2026-04-19T17:13:57.011Z</time></trkpt><trkpt lat="45.7884453" lon="10.011762"><ele>367.0</ele><time>2026-04-19T17:13:58.012Z</time></trkpt><trkpt lat="45.7885152" lon="10.0116903"><ele>366.16666666666663</ele><time>2026-04-19T17:13:59.012Z</time></trkpt><trkpt lat="45.7885618" lon="10.0115838"><ele>365.3333333333333</ele><time>2026-04-19T17:14:00.012Z</time></trkpt><trkpt lat="45.7885643" lon="10.0114659"><ele>364.5</ele><time>2026-04-19T17:14:01.012Z</time></trkpt><trkpt lat="45.7885276" lon="10.0113575"><ele>363.6666666666667</ele><time>2026-04-19T17:14:02.012Z</time></trkpt><trkpt lat="45.7884607" lon="10.0112756"><ele>362.83333333333337</ele><time>2026-04-19T17:14:03.011Z</time></trkpt><trkpt lat="45.7883806" lon="10.0111839"><ele>362.0</ele><time>2026-04-19T17:14:04.012Z</time></trkpt><trkpt lat="45.7882923" lon="10.0110861"><ele>362.0</ele><time>2026-04-19T17:14:05.012Z</time></trkpt><trkpt lat="45.7882215" lon="10.0109538"><ele>362.0</ele><time>2026-04-19T17:14:06.011Z</time></trkpt><trkpt lat="45.788161" lon="10.0108046"><ele>362.0</ele><time>2026-04-19T17:14:07.012Z</time></trkpt><trkpt lat="45.7881097" lon="10.0106368"><ele>362.0</ele><time>2026-04-19T17:14:08.012Z</time></trkpt><trkpt lat="45.7880607" lon="10.0104649"><ele>359.75</ele><time>2026-04-19T17:14:09.012Z</time></trkpt><trkpt lat="45.7880098" lon="10.0102955"><ele>357.5</ele><time>2026-04-19T17:14:10.012Z</time></trkpt><trkpt lat="45.7879635" lon="10.0101205"><ele>355.25</ele><time>2026-04-19T17:14:11.012Z</time></trkpt><trkpt lat="45.7879146" lon="10.0099497"><ele>353.0</ele><time>2026-04-19T17:14:12.012Z</time></trkpt><trkpt lat="45.7878643" lon="10.009773"><ele>352.5</ele><time>2026-04-19T17:14:13.011Z</time></trkpt><trkpt lat="45.7878116" lon="10.0095867"><ele>352.0</ele><time>2026-04-19T17:14:14.012Z</time></trkpt><trkpt lat="45.7877611" lon="10.0093969"><ele>351.5</ele><time>2026-04-19T17:14:15.012Z</time></trkpt><trkpt lat="45.78771" lon="10.0092158"><ele>351.0</ele><time>2026-04-19T17:14:16.012Z</time></trkpt><trkpt lat="45.787659" lon="10.0090352"><ele>351.0</ele><time>2026-04-19T17:14:17.011Z</time></trkpt><trkpt lat="45.7876087" lon="10.008855"><ele>351.0</ele><time>2026-04-19T17:14:18.012Z</time></trkpt><trkpt lat="45.7875605" lon="10.0086762"><ele>351.0</ele><time>2026-04-19T17:14:19.012Z</time></trkpt><trkpt lat="45.7875115" lon="10.0085036"><ele>351.0</ele><time>2026-04-19T17:14:20.011Z</time></trkpt><trkpt lat="45.7874591" lon="10.0083218"><ele>350.5</ele><time>2026-04-19T17:14:21.012Z</time></trkpt><trkpt lat="45.7874119" lon="10.0081473"><ele>350.0</ele><time>2026-04-19T17:14:22.012Z</time></trkpt><trkpt lat="45.7873645" lon="10.0079712"><ele>349.5</ele><time>2026-04-19T17:14:23.011Z</time></trkpt><trkpt lat="45.7873116" lon="10.0078008"><ele>349.0</ele><time>2026-04-19T17:14:24.012Z</time></trkpt><trkpt lat="45.7872623" lon="10.0076281"><ele>348.25</ele><time>2026-04-19T17:14:25.012Z</time></trkpt><trkpt lat="45.7872165" lon="10.007455"><ele>347.5</ele><time>2026-04-19T17:14:26.011Z</time></trkpt><trkpt lat="45.7871654" lon="10.0072797"><ele>346.75</ele><time>2026-04-19T17:14:27.012Z</time></trkpt><trkpt lat="45.787118" lon="10.0071056"><ele>346.0</ele><time>2026-04-19T17:14:28.012Z</time></trkpt><trkpt lat="45.7870743" lon="10.0069332"><ele>346.0</ele><time>2026-04-19T17:14:29.012Z</time></trkpt><trkpt lat="45.787021" lon="10.0067556"><ele>346.0</ele><time>2026-04-19T17:14:30.012Z</time></trkpt><trkpt lat="45.7869687" lon="10.0065712"><ele>346.0</ele><time>2026-04-19T17:14:31.011Z</time></trkpt><trkpt lat="45.7869235" lon="10.0063938"><ele>346.0</ele><time>2026-04-19T17:14:32.012Z</time></trkpt><trkpt lat="45.7868855" lon="10.0062049"><ele>345.75</ele><time>2026-04-19T17:14:33.012Z</time></trkpt><trkpt lat="45.7868577" lon="10.0060139"><ele>345.5</ele><time>2026-04-19T17:14:34.012Z</time></trkpt><trkpt lat="45.786839" lon="10.0058143"><ele>345.25</ele><time>2026-04-19T17:14:35.011Z</time></trkpt><trkpt lat="45.7868257" lon="10.0056189"><ele>345.0</ele><time>2026-04-19T17:14:36.012Z</time></trkpt><trkpt lat="45.7868157" lon="10.0054254"><ele>346.25</ele><time>2026-04-19T17:14:37.012Z</time></trkpt><trkpt lat="45.7868122" lon="10.0052297"><ele>347.5</ele><time>2026-04-19T17:14:38.011Z</time></trkpt><trkpt lat="45.7868159" lon="10.0050305"><ele>348.75</ele><time>2026-04-19T17:14:39.012Z</time></trkpt><trkpt lat="45.7868255" lon="10.0048323"><ele>350.0</ele><time>2026-04-19T17:14:40.012Z</time></trkpt><trkpt lat="45.7868381" lon="10.0046361"><ele>348.75</ele><time>2026-04-19T17:14:41.011Z</time></trkpt><trkpt lat="45.7868445" lon="10.0044396"><ele>347.5</ele><time>2026-04-19T17:14:42.012Z</time></trkpt><trkpt lat="45.7868567" lon="10.0042492"><ele>346.25</ele><time>2026-04-19T17:14:43.012Z</time></trkpt><trkpt lat="45.7868631" lon="10.0040616"><ele>345.0</ele><time>2026-04-19T17:14:44.012Z</time></trkpt><trkpt lat="45.7868694" lon="10.0039009"><ele>344.8333333333333</ele><time>2026-04-19T17:14:45.012Z</time></trkpt><trkpt lat="45.7868803" lon="10.0037518"><ele>344.6666666666667</ele><time>2026-04-19T17:14:46.012Z</time></trkpt><trkpt lat="45.786895" lon="10.0036117"><ele>344.5</ele><time>2026-04-19T17:14:47.011Z</time></trkpt><trkpt lat="45.7869181" lon="10.0034841"><ele>344.33333333333337</ele><time>2026-04-19T17:14:48.012Z</time></trkpt><trkpt lat="45.7869203" lon="10.0033709"><ele>344.1666666666667</ele><time>2026-04-19T17:14:49.011Z</time></trkpt><trkpt lat="45.7869224" lon="10.0032725"><ele>344.0</ele><time>2026-04-19T17:14:50.011Z</time></trkpt><trkpt lat="45.7868617" lon="10.0031607"><ele>344.2</ele><time>2026-04-19T17:14:51.012Z</time></trkpt><trkpt lat="45.7868289" lon="10.0030364"><ele>344.4</ele><time>2026-04-19T17:14:52.012Z</time></trkpt><trkpt lat="45.7868048" lon="10.002902"><ele>344.6</ele><time>2026-04-19T17:14:53.011Z</time></trkpt><trkpt lat="45.7867892" lon="10.0027603"><ele>344.8</ele><time>2026-04-19T17:14:54.012Z</time></trkpt><trkpt lat="45.7867869" lon="10.0026177"><ele>345.0</ele><time>2026-04-19T17:14:55.012Z</time></trkpt><trkpt lat="45.786789" lon="10.0024737"><ele>345.2</ele><time>2026-04-19T17:14:56.012Z</time></trkpt><trkpt lat="45.7867995" lon="10.0023166"><ele>345.4</ele><time>2026-04-19T17:14:57.012Z</time></trkpt><trkpt lat="45.7868161" lon="10.0021619"><ele>345.6</ele><time>2026-04-19T17:14:58.012Z</time></trkpt><trkpt lat="45.7868376" lon="10.0020077"><ele>345.8</ele><time>2026-04-19T17:14:59.012Z</time></trkpt><trkpt lat="45.7868582" lon="10.00185"><ele>346.0</ele><time>2026-04-19T17:15:00.012Z</time></trkpt><trkpt lat="45.7868767" lon="10.0016936"><ele>346.5</ele><time>2026-04-19T17:15:01.011Z</time></trkpt><trkpt lat="45.7868924" lon="10.0015353"><ele>347.0</ele><time>2026-04-19T17:15:02.011Z</time></trkpt><trkpt lat="45.786912" lon="10.0013786"><ele>347.5</ele><time>2026-04-19T17:15:03.011Z</time></trkpt><trkpt lat="45.7869271" lon="10.0012141"><ele>348.0</ele><time>2026-04-19T17:15:04.011Z</time></trkpt><trkpt lat="45.7869437" lon="10.001054"><ele>348.0</ele><time>2026-04-19T17:15:05.011Z</time></trkpt><trkpt lat="45.786967" lon="10.0008956"><ele>348.0</ele><time>2026-04-19T17:15:06.011Z</time></trkpt><trkpt lat="45.7869971" lon="10.0007515"><ele>348.0</ele><time>2026-04-19T17:15:07.012Z</time></trkpt><trkpt lat="45.7870316" lon="10.0006241"><ele>348.0</ele><time>2026-04-19T17:15:08.012Z</time></trkpt><trkpt lat="45.787069" lon="10.0005102"><ele>348.0</ele><time>2026-04-19T17:15:09.012Z</time></trkpt><trkpt lat="45.7871009" lon="10.0004028"><ele>347.79999999999995</ele><time>2026-04-19T17:15:10.012Z</time></trkpt><trkpt lat="45.7871277" lon="10.0003079"><ele>347.6</ele><time>2026-04-19T17:15:11.012Z</time></trkpt><trkpt lat="45.7871319" lon="10.0001459"><ele>347.4</ele><time>2026-04-19T17:15:13.012Z</time></trkpt><trkpt lat="45.7870098" lon="10.0000657"><ele>347.20000000000005</ele><time>2026-04-19T17:15:15.012Z</time></trkpt><trkpt lat="45.7869379" lon="10.0000108"><ele>347.0</ele><time>2026-04-19T17:15:16.011Z</time></trkpt><trkpt lat="45.7868935" lon="9.9999319"><ele>347.0</ele><time>2026-04-19T17:15:17.012Z</time></trkpt><trkpt lat="45.7868755" lon="9.9998219"><ele>347.0</ele><time>2026-04-19T17:15:18.012Z</time></trkpt><trkpt lat="45.7868602" lon="9.9996983"><ele>347.0</ele><time>2026-04-19T17:15:19.011Z</time></trkpt><trkpt lat="45.7868475" lon="9.999571"><ele>347.0</ele><time>2026-04-19T17:15:20.012Z</time></trkpt><trkpt lat="45.7868275" lon="9.9994396"><ele>347.0</ele><time>2026-04-19T17:15:21.012Z</time></trkpt><trkpt lat="45.7868073" lon="9.9993042"><ele>347.0</ele><time>2026-04-19T17:15:22.012Z</time></trkpt><trkpt lat="45.7867916" lon="9.9991646"><ele>347.0</ele><time>2026-04-19T17:15:23.011Z</time></trkpt><trkpt lat="45.7867747" lon="9.9990251"><ele>347.0</ele><time>2026-04-19T17:15:24.012Z</time></trkpt><trkpt lat="45.7867516" lon="9.9988872"><ele>347.0</ele><time>2026-04-19T17:15:25.011Z</time></trkpt><trkpt lat="45.7867296" lon="9.998749"><ele>347.0</ele><time>2026-04-19T17:15:26.012Z</time></trkpt><trkpt lat="45.786708" lon="9.9986103"><ele>347.0</ele><time>2026-04-19T17:15:27.012Z</time></trkpt><trkpt lat="45.7866812" lon="9.998478"><ele>347.0</ele><time>2026-04-19T17:15:28.012Z</time></trkpt><trkpt lat="45.7866529" lon="9.9983446"><ele>347.0</ele><time>2026-04-19T17:15:29.011Z</time></trkpt><trkpt lat="45.7866227" lon="9.9982184"><ele>347.0</ele><time>2026-04-19T17:15:30.012Z</time></trkpt><trkpt lat="45.7866014" lon="9.9980688"><ele>347.0</ele><time>2026-04-19T17:15:31.012Z</time></trkpt><trkpt lat="45.7865831" lon="9.9979493"><ele>347.0</ele><time>2026-04-19T17:15:32.012Z</time></trkpt><trkpt lat="45.7865622" lon="9.9978084"><ele>346.8</ele><time>2026-04-19T17:15:33.011Z</time></trkpt><trkpt lat="45.7865458" lon="9.9976732"><ele>346.6</ele><time>2026-04-19T17:15:34.012Z</time></trkpt><trkpt lat="45.7865311" lon="9.9975387"><ele>346.40000000000003</ele><time>2026-04-19T17:15:35.012Z</time></trkpt><trkpt lat="45.7865299" lon="9.9973974"><ele>346.20000000000005</ele><time>2026-04-19T17:15:36.011Z</time></trkpt><trkpt lat="45.7865279" lon="9.9972317"><ele>346.0</ele><time>2026-04-19T17:15:37.011Z</time></trkpt><trkpt lat="45.7865327" lon="9.9970994"><ele>346.0</ele><time>2026-04-19T17:15:38.012Z</time></trkpt><trkpt lat="45.7865399" lon="9.9969631"><ele>346.0</ele><time>2026-04-19T17:15:39.011Z</time></trkpt><trkpt lat="45.7865452" lon="9.9968312"><ele>346.0</ele><time>2026-04-19T17:15:40.011Z</time></trkpt><trkpt lat="45.7865451" lon="9.9966934"><ele>346.0</ele><time>2026-04-19T17:15:41.012Z</time></trkpt><trkpt lat="45.7865484" lon="9.9965533"><ele>346.0</ele><time>2026-04-19T17:15:42.011Z</time></trkpt><trkpt lat="45.7865495" lon="9.996418"><ele>346.20000000000005</ele><time>2026-04-19T17:15:43.011Z</time></trkpt><trkpt lat="45.7865485" lon="9.9962833"><ele>346.40000000000003</ele><time>2026-04-19T17:15:44.011Z</time></trkpt><trkpt lat="45.7865402" lon="9.9961433"><ele>346.6</ele><time>2026-04-19T17:15:45.012Z</time></trkpt><trkpt lat="45.7865397" lon="9.9960008"><ele>346.8</ele><time>2026-04-19T17:15:46.011Z</time></trkpt><trkpt lat="45.7865359" lon="9.9958655"><ele>347.0</ele><time>2026-04-19T17:15:47.012Z</time></trkpt><trkpt lat="45.7865354" lon="9.9957502"><ele>347.0</ele><time>2026-04-19T17:15:48.012Z</time></trkpt><trkpt lat="45.7865363" lon="9.995626"><ele>347.0</ele><time>2026-04-19T17:15:49.012Z</time></trkpt><trkpt lat="45.7865397" lon="9.9955179"><ele>347.0</ele><time>2026-04-19T17:15:50.012Z</time></trkpt><trkpt lat="45.7865475" lon="9.9953561"><ele>347.0</ele><time>2026-04-19T17:15:52.012Z</time></trkpt><trkpt lat="45.786605" lon="9.9953181"><ele>347.0</ele><time>2026-04-19T17:15:54.012Z</time></trkpt><trkpt lat="45.7867028" lon="9.9954315"><ele>347.0</ele><time>2026-04-19T17:15:56.011Z</time></trkpt><trkpt lat="45.786742" lon="9.9955198"><ele>347.0</ele><time>2026-04-19T17:15:57.012Z</time></trkpt><trkpt lat="45.786788" lon="9.9955994"><ele>347.0</ele><time>2026-04-19T17:15:58.012Z</time></trkpt><trkpt lat="45.7868397" lon="9.9956594"><ele>347.0</ele><time>2026-04-19T17:15:59.012Z</time></trkpt><trkpt lat="45.786925" lon="9.9957569"><ele>347.0</ele><time>2026-04-19T17:16:01.012Z</time></trkpt><trkpt lat="45.7870305" lon="9.9956813"><ele>347.0</ele><time>2026-04-19T17:16:03.012Z</time></trkpt><trkpt lat="45.7870581" lon="9.9955594"><ele>346.6</ele><time>2026-04-19T17:16:04.012Z</time></trkpt><trkpt lat="45.7870732" lon="9.9954301"><ele>346.20000000000005</ele><time>2026-04-19T17:16:05.012Z</time></trkpt><trkpt lat="45.7870844" lon="9.9952975"><ele>345.8</ele><time>2026-04-19T17:16:06.012Z</time></trkpt><trkpt lat="45.7870885" lon="9.9951149"><ele>345.4</ele><time>2026-04-19T17:16:07.012Z</time></trkpt><trkpt lat="45.787089" lon="9.99493"><ele>345.0</ele><time>2026-04-19T17:16:08.012Z</time></trkpt><trkpt lat="45.7870976" lon="9.9947049"><ele>345.0</ele><time>2026-04-19T17:16:09.012Z</time></trkpt><trkpt lat="45.7870999" lon="9.9944864"><ele>345.0</ele><time>2026-04-19T17:16:10.012Z</time></trkpt><trkpt lat="45.7871019" lon="9.9942828"><ele>345.0</ele><time>2026-04-19T17:16:11.012Z</time></trkpt><trkpt lat="45.7871138" lon="9.9941088"><ele>345.0</ele><time>2026-04-19T17:16:12.011Z</time></trkpt><trkpt lat="45.7871165" lon="9.9939476"><ele>344.6</ele><time>2026-04-19T17:16:13.012Z</time></trkpt><trkpt lat="45.7871144" lon="9.9937982"><ele>344.2</ele><time>2026-04-19T17:16:14.011Z</time></trkpt><trkpt lat="45.7871117" lon="9.9936658"><ele>343.79999999999995</ele><time>2026-04-19T17:16:15.012Z</time></trkpt><trkpt lat="45.7871116" lon="9.993561"><ele>343.4</ele><time>2026-04-19T17:16:16.011Z</time></trkpt><trkpt lat="45.7871195" lon="9.9934523"><ele>343.0</ele><time>2026-04-19T17:16:17.012Z</time></trkpt><trkpt lat="45.7871959" lon="9.9933381"><ele>343.0</ele><time>2026-04-19T17:16:19.011Z</time></trkpt><trkpt lat="45.7872607" lon="9.9933248"><ele>343.0</ele><time>2026-04-19T17:16:20.012Z</time></trkpt><trkpt lat="45.7873347" lon="9.993345"><ele>343.0</ele><time>2026-04-19T17:16:21.012Z</time></trkpt><trkpt lat="45.7874119" lon="9.9933563"><ele>343.0</ele><time>2026-04-19T17:16:22.012Z</time></trkpt><trkpt lat="45.7874928" lon="9.9933611"><ele>343.0</ele><time>2026-04-19T17:16:23.012Z</time></trkpt><trkpt lat="45.7875829" lon="9.9933756"><ele>343.0</ele><time>2026-04-19T17:16:24.012Z</time></trkpt><trkpt lat="45.7876705" lon="9.993378"><ele>343.0</ele><time>2026-04-19T17:16:25.012Z</time></trkpt><trkpt lat="45.7877505" lon="9.993386"><ele>343.0</ele><time>2026-04-19T17:16:26.011Z</time></trkpt><trkpt lat="45.7878179" lon="9.9933785"><ele>343.0</ele><time>2026-04-19T17:16:27.012Z</time></trkpt><trkpt lat="45.7878807" lon="9.9933669"><ele>343.0</ele><time>2026-04-19T17:16:28.012Z</time></trkpt><trkpt lat="45.7879873" lon="9.99336"><ele>343.0</ele><time>2026-04-19T17:16:30.012Z</time></trkpt><trkpt lat="45.7879958" lon="9.9934825"><ele>343.0</ele><time>2026-04-19T17:16:32.012Z</time></trkpt><trkpt lat="45.7880394" lon="9.9935682"><ele>343.0</ele><time>2026-04-19T17:16:34.012Z</time></trkpt><trkpt lat="45.7881077" lon="9.993611"><ele>343.0</ele><time>2026-04-19T17:16:36.011Z</time></trkpt><trkpt lat="45.7881679" lon="9.9936413"><ele>343.0</ele><time>2026-04-19T17:16:37.011Z</time></trkpt><trkpt lat="45.7882614" lon="9.9936854"><ele>343.0</ele><time>2026-04-19T17:16:39.012Z</time></trkpt><trkpt lat="45.7883352" lon="9.9937104"><ele>343.0</ele><time>2026-04-19T17:16:42.012Z</time></trkpt><trkpt lat="45.7884037" lon="9.9937443"><ele>343.0</ele><time>2026-04-19T17:16:46.011Z</time></trkpt><trkpt lat="45.7884895" lon="9.9936405"><ele>344.0</ele><time>2026-04-19T17:16:49.011Z</time></trkpt><trkpt lat="45.7885331" lon="9.9934495"><ele>345.0</ele><time>2026-04-19T17:16:51.011Z</time></trkpt><trkpt lat="45.7885569" lon="9.9933272"><ele>346.0</ele><time>2026-04-19T17:16:52.012Z</time></trkpt><trkpt lat="45.7885927" lon="9.9931823"><ele>347.0</ele><time>2026-04-19T17:16:53.012Z</time></trkpt><trkpt lat="45.788626" lon="9.9930209"><ele>347.0</ele><time>2026-04-19T17:16:54.012Z</time></trkpt><trkpt lat="45.7886681" lon="9.9928428"><ele>347.0</ele><time>2026-04-19T17:16:55.012Z</time></trkpt><trkpt lat="45.7887182" lon="9.9926577"><ele>347.0</ele><time>2026-04-19T17:16:56.011Z</time></trkpt><trkpt lat="45.7887813" lon="9.9924635"><ele>347.0</ele><time>2026-04-19T17:16:57.012Z</time></trkpt><trkpt lat="45.7888478" lon="9.9922689"><ele>346.33333333333337</ele><time>2026-04-19T17:16:58.012Z</time></trkpt><trkpt lat="45.788926" lon="9.9920649"><ele>345.6666666666667</ele><time>2026-04-19T17:16:59.012Z</time></trkpt><trkpt lat="45.7890106" lon="9.9918546"><ele>345.0</ele><time>2026-04-19T17:17:00.012Z</time></trkpt><trkpt lat="45.7890989" lon="9.9916411"><ele>344.6666666666667</ele><time>2026-04-19T17:17:01.012Z</time></trkpt><trkpt lat="45.7891861" lon="9.9914318"><ele>344.33333333333337</ele><time>2026-04-19T17:17:02.011Z</time></trkpt><trkpt lat="45.78927" lon="9.9912145"><ele>344.0</ele><time>2026-04-19T17:17:03.011Z</time></trkpt><trkpt lat="45.789354" lon="9.9910009"><ele>344.0</ele><time>2026-04-19T17:17:04.012Z</time></trkpt><trkpt lat="45.7894385" lon="9.9907929"><ele>344.0</ele><time>2026-04-19T17:17:05.012Z</time></trkpt><trkpt lat="45.7895239" lon="9.9905795"><ele>344.0</ele><time>2026-04-19T17:17:06.011Z</time></trkpt><trkpt lat="45.7896149" lon="9.9903647"><ele>344.0</ele><time>2026-04-19T17:17:07.011Z</time></trkpt><trkpt lat="45.7897017" lon="9.9901489"><ele>344.0</ele><time>2026-04-19T17:17:08.012Z</time></trkpt><trkpt lat="45.7897964" lon="9.9899299"><ele>344.0</ele><time>2026-04-19T17:17:09.011Z</time></trkpt><trkpt lat="45.7898904" lon="9.9897109"><ele>344.33333333333337</ele><time>2026-04-19T17:17:10.011Z</time></trkpt><trkpt lat="45.789986" lon="9.9894855"><ele>344.6666666666667</ele><time>2026-04-19T17:17:11.012Z</time></trkpt><trkpt lat="45.7900795" lon="9.989268"><ele>345.0</ele><time>2026-04-19T17:17:12.011Z</time></trkpt><trkpt lat="45.7901643" lon="9.9890485"><ele>347.0</ele><time>2026-04-19T17:17:13.012Z</time></trkpt><trkpt lat="45.7902386" lon="9.9888309"><ele>349.0</ele><time>2026-04-19T17:17:14.011Z</time></trkpt><trkpt lat="45.7903023" lon="9.9886016"><ele>351.0</ele><time>2026-04-19T17:17:15.012Z</time></trkpt><trkpt lat="45.7903472" lon="9.9883609"><ele>350.0</ele><time>2026-04-19T17:17:16.012Z</time></trkpt><trkpt lat="45.7903786" lon="9.988119"><ele>349.0</ele><time>2026-04-19T17:17:17.011Z</time></trkpt><trkpt lat="45.790378" lon="9.9878672"><ele>348.0</ele><time>2026-04-19T17:17:18.012Z</time></trkpt><trkpt lat="45.7903643" lon="9.9876082"><ele>348.3333333333333</ele><time>2026-04-19T17:17:19.011Z</time></trkpt><trkpt lat="45.7903338" lon="9.9873387"><ele>348.66666666666663</ele><time>2026-04-19T17:17:20.012Z</time></trkpt><trkpt lat="45.7903001" lon="9.9870697"><ele>349.0</ele><time>2026-04-19T17:17:21.011Z</time></trkpt><trkpt lat="45.790265" lon="9.9868061"><ele>349.66666666666663</ele><time>2026-04-19T17:17:22.012Z</time></trkpt><trkpt lat="45.790234" lon="9.986545"><ele>350.3333333333333</ele><time>2026-04-19T17:17:23.012Z</time></trkpt><trkpt lat="45.7902111" lon="9.9862831"><ele>351.0</ele><time>2026-04-19T17:17:24.011Z</time></trkpt><trkpt lat="45.7902125" lon="9.9860116"><ele>352.0</ele><time>2026-04-19T17:17:25.012Z</time></trkpt><trkpt lat="45.7902347" lon="9.9857363"><ele>353.0</ele><time>2026-04-19T17:17:26.012Z</time></trkpt><trkpt lat="45.7902761" lon="9.9854683"><ele>354.0</ele><time>2026-04-19T17:17:27.012Z</time></trkpt><trkpt lat="45.7903302" lon="9.9852151"><ele>355.6666666666667</ele><time>2026-04-19T17:17:28.012Z</time></trkpt><trkpt lat="45.79039" lon="9.9849646"><ele>357.33333333333337</ele><time>2026-04-19T17:17:29.012Z</time></trkpt><trkpt lat="45.7904347" lon="9.9847149"><ele>359.0</ele><time>2026-04-19T17:17:30.012Z</time></trkpt><trkpt lat="45.79046" lon="9.9844598"><ele>359.0</ele><time>2026-04-19T17:17:31.012Z</time></trkpt><trkpt lat="45.7904697" lon="9.9842017"><ele>359.0</ele><time>2026-04-19T17:17:32.012Z</time></trkpt><trkpt lat="45.7904611" lon="9.9839426"><ele>359.0</ele><time>2026-04-19T17:17:33.012Z</time></trkpt><trkpt lat="45.7904389" lon="9.9836775"><ele>358.6666666666667</ele><time>2026-04-19T17:17:34.011Z</time></trkpt><trkpt lat="45.7904126" lon="9.9834115"><ele>358.3333333333333</ele><time>2026-04-19T17:17:35.012Z</time></trkpt><trkpt lat="45.7903842" lon="9.9831488"><ele>358.0</ele><time>2026-04-19T17:17:36.012Z</time></trkpt><trkpt lat="45.7903621" lon="9.9828799"><ele>357.66666666666663</ele><time>2026-04-19T17:17:37.011Z</time></trkpt><trkpt lat="45.7903384" lon="9.9826153"><ele>357.3333333333333</ele><time>2026-04-19T17:17:38.012Z</time></trkpt><trkpt lat="45.7903145" lon="9.982349"><ele>357.0</ele><time>2026-04-19T17:17:39.011Z</time></trkpt><trkpt lat="45.7902992" lon="9.9820882"><ele>357.0</ele><time>2026-04-19T17:17:40.011Z</time></trkpt><trkpt lat="45.7902849" lon="9.9818281"><ele>357.0</ele><time>2026-04-19T17:17:41.011Z</time></trkpt><trkpt lat="45.7902922" lon="9.98158"><ele>357.0</ele><time>2026-04-19T17:17:42.012Z</time></trkpt><trkpt lat="45.7903117" lon="9.9813397"><ele>355.6666666666667</ele><time>2026-04-19T17:17:43.012Z</time></trkpt><trkpt lat="45.7903417" lon="9.9811142"><ele>354.33333333333337</ele><time>2026-04-19T17:17:44.011Z</time></trkpt><trkpt lat="45.7903738" lon="9.9809033"><ele>353.0</ele><time>2026-04-19T17:17:45.011Z</time></trkpt><trkpt lat="45.7904039" lon="9.9807001"><ele>352.75</ele><time>2026-04-19T17:17:46.012Z</time></trkpt><trkpt lat="45.790429" lon="9.980501"><ele>352.5</ele><time>2026-04-19T17:17:47.012Z</time></trkpt><trkpt lat="45.7904518" lon="9.9803185"><ele>352.25</ele><time>2026-04-19T17:17:48.011Z</time></trkpt><trkpt lat="45.790465" lon="9.9801496"><ele>352.0</ele><time>2026-04-19T17:17:49.011Z</time></trkpt><trkpt lat="45.7904836" lon="9.979993"><ele>352.0</ele><time>2026-04-19T17:17:50.012Z</time></trkpt><trkpt lat="45.7904971" lon="9.9798459"><ele>352.0</ele><time>2026-04-19T17:17:51.012Z</time></trkpt><trkpt lat="45.7905121" lon="9.9797179"><ele>352.0</ele><time>2026-04-19T17:17:52.012Z</time></trkpt><trkpt lat="45.7905231" lon="9.9796134"><ele>352.0</ele><time>2026-04-19T17:17:53.011Z</time></trkpt><trkpt lat="45.790526" lon="9.9794608"><ele>352.0</ele><time>2026-04-19T17:17:55.012Z</time></trkpt><trkpt lat="45.7904584" lon="9.9794296"><ele>352.0</ele><time>2026-04-19T17:17:57.012Z</time></trkpt><trkpt lat="45.7903727" lon="9.9795286"><ele>352.0</ele><time>2026-04-19T17:17:59.011Z</time></trkpt><trkpt lat="45.7903216" lon="9.9795991"><ele>352.0</ele><time>2026-04-19T17:18:00.012Z</time></trkpt><trkpt lat="45.7902693" lon="9.9796698"><ele>352.0</ele><time>2026-04-19T17:18:01.011Z</time></trkpt><trkpt lat="45.7902077" lon="9.9797541"><ele>352.0</ele><time>2026-04-19T17:18:02.012Z</time></trkpt><trkpt lat="45.7901454" lon="9.9798541"><ele>352.0</ele><time>2026-04-19T17:18:03.011Z</time></trkpt><trkpt lat="45.7900718" lon="9.9799658"><ele>352.0</ele><time>2026-04-19T17:18:04.012Z</time></trkpt><trkpt lat="45.789995" lon="9.9800747"><ele>349.5</ele><time>2026-04-19T17:18:05.011Z</time></trkpt><trkpt lat="45.7899134" lon="9.9801717"><ele>347.0</ele><time>2026-04-19T17:18:06.012Z</time></trkpt><trkpt lat="45.7898233" lon="9.9802717"><ele>344.5</ele><time>2026-04-19T17:18:07.011Z</time></trkpt><trkpt lat="45.7897214" lon="9.9803701"><ele>342.0</ele><time>2026-04-19T17:18:08.012Z</time></trkpt><trkpt lat="45.7896232" lon="9.980463"><ele>342.0</ele><time>2026-04-19T17:18:09.011Z</time></trkpt><trkpt lat="45.7895201" lon="9.9805504"><ele>342.0</ele><time>2026-04-19T17:18:10.012Z</time></trkpt><trkpt lat="45.7894159" lon="9.9806306"><ele>342.0</ele><time>2026-04-19T17:18:11.012Z</time></trkpt><trkpt lat="45.7893114" lon="9.9807129"><ele>342.0</ele><time>2026-04-19T17:18:12.011Z</time></trkpt><trkpt lat="45.7892103" lon="9.9807908"><ele>341.40000000000003</ele><time>2026-04-19T17:18:13.012Z</time></trkpt><trkpt lat="45.789112" lon="9.9808607"><ele>340.8</ele><time>2026-04-19T17:18:14.011Z</time></trkpt><trkpt lat="45.7890178" lon="9.9809402"><ele>340.2</ele><time>2026-04-19T17:18:15.012Z</time></trkpt><trkpt lat="45.7889177" lon="9.9810143"><ele>339.6</ele><time>2026-04-19T17:18:16.011Z</time></trkpt><trkpt lat="45.7888194" lon="9.9810871"><ele>339.0</ele><time>2026-04-19T17:18:17.012Z</time></trkpt><trkpt lat="45.7887147" lon="9.9811598"><ele>339.0</ele><time>2026-04-19T17:18:18.011Z</time></trkpt><trkpt lat="45.7886173" lon="9.9812285"><ele>339.0</ele><time>2026-04-19T17:18:19.011Z</time></trkpt><trkpt lat="45.7885189" lon="9.9812882"><ele>339.0</ele><time>2026-04-19T17:18:20.011Z</time></trkpt><trkpt lat="45.7884132" lon="9.9813372"><ele>339.0</ele><time>2026-04-19T17:18:21.011Z</time></trkpt><trkpt lat="45.7883094" lon="9.9813599"><ele>339.0</ele><time>2026-04-19T17:18:22.012Z</time></trkpt><trkpt lat="45.7882045" lon="9.9813469"><ele>339.2</ele><time>2026-04-19T17:18:23.012Z</time></trkpt><trkpt lat="45.7881086" lon="9.9813007"><ele>339.4</ele><time>2026-04-19T17:18:24.01Z</time></trkpt><trkpt lat="45.7880128" lon="9.9812086"><ele>339.6</ele><time>2026-04-19T17:18:25.012Z</time></trkpt><trkpt lat="45.7879345" lon="9.9810936"><ele>339.8</ele><time>2026-04-19T17:18:26.012Z</time></trkpt><trkpt lat="45.7878648" lon="9.9809696"><ele>340.0</ele><time>2026-04-19T17:18:27.012Z</time></trkpt><trkpt lat="45.7878031" lon="9.9808369"><ele>339.8</ele><time>2026-04-19T17:18:28.012Z</time></trkpt><trkpt lat="45.787751" lon="9.9807011"><ele>339.6</ele><time>2026-04-19T17:18:29.011Z</time></trkpt><trkpt lat="45.787717" lon="9.9805482"><ele>339.4</ele><time>2026-04-19T17:18:30.012Z</time></trkpt><trkpt lat="45.7876898" lon="9.9803957"><ele>339.2</ele><time>2026-04-19T17:18:31.012Z</time></trkpt><trkpt lat="45.7876622" lon="9.9802541"><ele>339.0</ele><time>2026-04-19T17:18:32.012Z</time></trkpt><trkpt lat="45.7876336" lon="9.9801234"><ele>338.8333333333333</ele><time>2026-04-19T17:18:33.012Z</time></trkpt><trkpt lat="45.7876081" lon="9.9799954"><ele>338.6666666666667</ele><time>2026-04-19T17:18:34.012Z</time></trkpt><trkpt lat="45.7875901" lon="9.9798845"><ele>338.5</ele><time>2026-04-19T17:18:35.011Z</time></trkpt><trkpt lat="45.7875702" lon="9.9797902"><ele>338.33333333333337</ele><time>2026-04-19T17:18:36.011Z</time></trkpt><trkpt lat="45.7875616" lon="9.9796727"><ele>338.1666666666667</ele><time>2026-04-19T17:18:38.011Z</time></trkpt><trkpt lat="45.7876001" lon="9.9797804"><ele>338.0</ele><time>2026-04-19T17:20:04.012Z</time></trkpt><trkpt lat="45.787646" lon="9.9798436"><ele>338.0</ele><time>2026-04-19T17:20:06.011Z</time></trkpt><trkpt lat="45.7877365" lon="9.9798185"><ele>336.0</ele><time>2026-04-19T17:20:08.012Z</time></trkpt><trkpt lat="45.787798" lon="9.9797947"><ele>336.0</ele><time>2026-04-19T17:20:10.012Z</time></trkpt></trkseg></trk></gpx>